<?xml version='1.0' encoding='UTF-8'?>
<gpx version="1.1" creator="https://www.komoot.de" xmlns="http://www.topografix.com/GPX/1/1" xmlns:xsi="http://www.w3.org/2001/XMLSchema-instance" xsi:schemaLocation="http://www.topografix.com/GPX/1/1 http://www.topografix.com/GPX/1/1/gpx.xsd">
  <metadata>
    <name>60_680Oberboelchen</name>
    <author>
      <link href="https://www.komoot.de">
        <text>komoot</text>
        <type>text/html</type>
      </link>
    </author>
  </metadata>
  <trk>
    <name>60_680Oberboelchen</name>
    <trkseg>
      <trkpt lat="47.542329" lon="7.869820">
        <ele>337.919488</ele>
        <time>2021-11-15T20:35:31.111Z</time>
      </trkpt>
      <trkpt lat="47.542329" lon="7.869820">
        <ele>337.919488</ele>
        <time>2021-11-15T20:35:31.146Z</time>
      </trkpt>
      <trkpt lat="47.542372" lon="7.869746">
        <ele>337.919488</ele>
        <time>2021-11-15T20:35:31.966Z</time>
      </trkpt>
      <trkpt lat="47.542477" lon="7.869601">
        <ele>337.919488</ele>
        <time>2021-11-15T20:35:33.962Z</time>
      </trkpt>
      <trkpt lat="47.542657" lon="7.869354">
        <ele>337.919488</ele>
        <time>2021-11-15T20:35:36.983Z</time>
      </trkpt>
      <trkpt lat="47.542696" lon="7.869257">
        <ele>337.919488</ele>
        <time>2021-11-15T20:35:37.934Z</time>
      </trkpt>
      <trkpt lat="47.542722" lon="7.869201">
        <ele>337.919488</ele>
        <time>2021-11-15T20:35:38.582Z</time>
      </trkpt>
      <trkpt lat="47.543049" lon="7.868759">
        <ele>337.750687</ele>
        <time>2021-11-15T20:35:43.609Z</time>
      </trkpt>
      <trkpt lat="47.543105" lon="7.868711">
        <ele>337.659869</ele>
        <time>2021-11-15T20:35:44.372Z</time>
      </trkpt>
      <trkpt lat="47.543201" lon="7.868657">
        <ele>337.515725</ele>
        <time>2021-11-15T20:35:45.457Z</time>
      </trkpt>
      <trkpt lat="47.543657" lon="7.868359">
        <ele>336.816118</ele>
        <time>2021-11-15T20:35:51.245Z</time>
      </trkpt>
      <trkpt lat="47.543801" lon="7.868269">
        <ele>336.596731</ele>
        <time>2021-11-15T20:35:53.723Z</time>
      </trkpt>
      <trkpt lat="47.544214" lon="7.867988">
        <ele>335.958779</ele>
        <time>2021-11-15T20:36:01.340Z</time>
      </trkpt>
      <trkpt lat="47.544246" lon="7.867967">
        <ele>335.909650</ele>
        <time>2021-11-15T20:36:01.936Z</time>
      </trkpt>
      <trkpt lat="47.544410" lon="7.867825">
        <ele>335.643006</ele>
        <time>2021-11-15T20:36:05.189Z</time>
      </trkpt>
      <trkpt lat="47.544469" lon="7.867776">
        <ele>335.548060</ele>
        <time>2021-11-15T20:36:06.211Z</time>
      </trkpt>
      <trkpt lat="47.544568" lon="7.867693">
        <ele>335.396262</ele>
        <time>2021-11-15T20:36:08.138Z</time>
      </trkpt>
      <trkpt lat="47.545003" lon="7.867278">
        <ele>335.573771</ele>
        <time>2021-11-15T20:36:16.987Z</time>
      </trkpt>
      <trkpt lat="47.545160" lon="7.866985">
        <ele>335.660405</ele>
        <time>2021-11-15T20:36:21.637Z</time>
      </trkpt>
      <trkpt lat="47.545240" lon="7.866887">
        <ele>335.696019</ele>
        <time>2021-11-15T20:36:23.911Z</time>
      </trkpt>
      <trkpt lat="47.546096" lon="7.866147">
        <ele>336.152577</ele>
        <time>2021-11-15T20:36:48.981Z</time>
      </trkpt>
      <trkpt lat="47.546327" lon="7.865959">
        <ele>336.677637</ele>
        <time>2021-11-15T20:36:56.718Z</time>
      </trkpt>
      <trkpt lat="47.546510" lon="7.865766">
        <ele>337.125147</ele>
        <time>2021-11-15T20:37:03.819Z</time>
      </trkpt>
      <trkpt lat="47.546819" lon="7.865489">
        <ele>337.844649</ele>
        <time>2021-11-15T20:37:14.050Z</time>
      </trkpt>
      <trkpt lat="47.546889" lon="7.865225">
        <ele>338.226056</ele>
        <time>2021-11-15T20:37:19.242Z</time>
      </trkpt>
      <trkpt lat="47.546894" lon="7.864837">
        <ele>338.747892</ele>
        <time>2021-11-15T20:37:26.661Z</time>
      </trkpt>
      <trkpt lat="47.546885" lon="7.864500">
        <ele>339.201408</ele>
        <time>2021-11-15T20:37:33.450Z</time>
      </trkpt>
      <trkpt lat="47.546877" lon="7.864345">
        <ele>339.410444</ele>
        <time>2021-11-15T20:37:36.344Z</time>
      </trkpt>
      <trkpt lat="47.546592" lon="7.863006">
        <ele>340.537745</ele>
        <time>2021-11-15T20:38:02.353Z</time>
      </trkpt>
      <trkpt lat="47.546526" lon="7.861665">
        <ele>341.538399</ele>
        <time>2021-11-15T20:38:23.085Z</time>
      </trkpt>
      <trkpt lat="47.546487" lon="7.859119">
        <ele>341.182263</ele>
        <time>2021-11-15T20:38:55.705Z</time>
      </trkpt>
      <trkpt lat="47.546537" lon="7.857497">
        <ele>340.879510</ele>
        <time>2021-11-15T20:39:16.717Z</time>
      </trkpt>
      <trkpt lat="47.546582" lon="7.856413">
        <ele>340.673458</ele>
        <time>2021-11-15T20:39:31.071Z</time>
      </trkpt>
      <trkpt lat="47.546945" lon="7.851719">
        <ele>339.306336</ele>
        <time>2021-11-15T20:40:32.105Z</time>
      </trkpt>
      <trkpt lat="47.547141" lon="7.850355">
        <ele>338.143283</ele>
        <time>2021-11-15T20:40:47.670Z</time>
      </trkpt>
      <trkpt lat="47.547143" lon="7.849985">
        <ele>337.676421</ele>
        <time>2021-11-15T20:40:51.579Z</time>
      </trkpt>
      <trkpt lat="47.547124" lon="7.848795">
        <ele>336.174521</ele>
        <time>2021-11-15T20:41:04.177Z</time>
      </trkpt>
      <trkpt lat="47.547274" lon="7.845536">
        <ele>332.109311</ele>
        <time>2021-11-15T20:41:38.936Z</time>
      </trkpt>
      <trkpt lat="47.547295" lon="7.844722">
        <ele>331.729821</ele>
        <time>2021-11-15T20:41:48.431Z</time>
      </trkpt>
      <trkpt lat="47.547313" lon="7.843735">
        <ele>331.269846</ele>
        <time>2021-11-15T20:42:00.839Z</time>
      </trkpt>
      <trkpt lat="47.547354" lon="7.842839">
        <ele>330.890706</ele>
        <time>2021-11-15T20:42:13.000Z</time>
      </trkpt>
      <trkpt lat="47.547373" lon="7.842724">
        <ele>330.859221</ele>
        <time>2021-11-15T20:42:14.702Z</time>
      </trkpt>
      <trkpt lat="47.547448" lon="7.842262">
        <ele>330.732858</ele>
        <time>2021-11-15T20:42:21.345Z</time>
      </trkpt>
      <trkpt lat="47.547362" lon="7.841665">
        <ele>330.570521</ele>
        <time>2021-11-15T20:42:29.608Z</time>
      </trkpt>
      <trkpt lat="47.547339" lon="7.841072">
        <ele>330.412563</ele>
        <time>2021-11-15T20:42:37.140Z</time>
      </trkpt>
      <trkpt lat="47.547332" lon="7.840572">
        <ele>330.279569</ele>
        <time>2021-11-15T20:42:43.232Z</time>
      </trkpt>
      <trkpt lat="47.547300" lon="7.838688">
        <ele>328.478765</ele>
        <time>2021-11-15T20:43:04.446Z</time>
      </trkpt>
      <trkpt lat="47.547276" lon="7.837287">
        <ele>326.932564</ele>
        <time>2021-11-15T20:43:19.322Z</time>
      </trkpt>
      <trkpt lat="47.547240" lon="7.836221">
        <ele>325.576806</ele>
        <time>2021-11-15T20:43:30.741Z</time>
      </trkpt>
      <trkpt lat="47.547190" lon="7.835066">
        <ele>324.107491</ele>
        <time>2021-11-15T20:43:43.247Z</time>
      </trkpt>
      <trkpt lat="47.547020" lon="7.831965">
        <ele>320.344630</ele>
        <time>2021-11-15T20:44:17.047Z</time>
      </trkpt>
      <trkpt lat="47.546946" lon="7.830852">
        <ele>318.901184</ele>
        <time>2021-11-15T20:44:29.079Z</time>
      </trkpt>
      <trkpt lat="47.546823" lon="7.829336">
        <ele>316.856878</ele>
        <time>2021-11-15T20:44:45.271Z</time>
      </trkpt>
      <trkpt lat="47.546721" lon="7.828140">
        <ele>315.098415</ele>
        <time>2021-11-15T20:44:57.989Z</time>
      </trkpt>
      <trkpt lat="47.546592" lon="7.826850">
        <ele>313.254409</ele>
        <time>2021-11-15T20:45:11.454Z</time>
      </trkpt>
      <trkpt lat="47.546574" lon="7.826239">
        <ele>312.488239</ele>
        <time>2021-11-15T20:45:17.897Z</time>
      </trkpt>
      <trkpt lat="47.546582" lon="7.825899">
        <ele>312.062039</ele>
        <time>2021-11-15T20:45:21.503Z</time>
      </trkpt>
      <trkpt lat="47.546589" lon="7.825597">
        <ele>311.683480</ele>
        <time>2021-11-15T20:45:24.719Z</time>
      </trkpt>
      <trkpt lat="47.546693" lon="7.825618">
        <ele>311.488674</ele>
        <time>2021-11-15T20:45:26.391Z</time>
      </trkpt>
      <trkpt lat="47.547233" lon="7.825872">
        <ele>310.437145</ele>
        <time>2021-11-15T20:45:35.509Z</time>
      </trkpt>
      <trkpt lat="47.547666" lon="7.826091">
        <ele>310.323026</ele>
        <time>2021-11-15T20:45:43.210Z</time>
      </trkpt>
      <trkpt lat="47.548237" lon="7.826410">
        <ele>310.410173</ele>
        <time>2021-11-15T20:45:55.356Z</time>
      </trkpt>
      <trkpt lat="47.548679" lon="7.826710">
        <ele>310.479602</ele>
        <time>2021-11-15T20:46:06.568Z</time>
      </trkpt>
      <trkpt lat="47.549105" lon="7.827067">
        <ele>310.773075</ele>
        <time>2021-11-15T20:46:19.056Z</time>
      </trkpt>
      <trkpt lat="47.550183" lon="7.828277">
        <ele>312.917543</ele>
        <time>2021-11-15T20:46:57.106Z</time>
      </trkpt>
      <trkpt lat="47.550522" lon="7.828744">
        <ele>313.355620</ele>
        <time>2021-11-15T20:47:09.166Z</time>
      </trkpt>
      <trkpt lat="47.550675" lon="7.828955">
        <ele>313.326701</ele>
        <time>2021-11-15T20:47:13.785Z</time>
      </trkpt>
      <trkpt lat="47.551640" lon="7.830558">
        <ele>313.074142</ele>
        <time>2021-11-15T20:47:41.055Z</time>
      </trkpt>
      <trkpt lat="47.552065" lon="7.831350">
        <ele>311.862203</ele>
        <time>2021-11-15T20:47:52.078Z</time>
      </trkpt>
      <trkpt lat="47.552251" lon="7.831814">
        <ele>311.215802</ele>
        <time>2021-11-15T20:47:57.818Z</time>
      </trkpt>
      <trkpt lat="47.552368" lon="7.832305">
        <ele>310.592120</ele>
        <time>2021-11-15T20:48:03.287Z</time>
      </trkpt>
      <trkpt lat="47.552415" lon="7.832576">
        <ele>310.256981</ele>
        <time>2021-11-15T20:48:06.273Z</time>
      </trkpt>
      <trkpt lat="47.552458" lon="7.832824">
        <ele>309.950290</ele>
        <time>2021-11-15T20:48:08.895Z</time>
      </trkpt>
      <trkpt lat="47.552508" lon="7.832936">
        <ele>309.737857</ele>
        <time>2021-11-15T20:48:10.354Z</time>
      </trkpt>
      <trkpt lat="47.552556" lon="7.832977">
        <ele>309.605494</ele>
        <time>2021-11-15T20:48:11.317Z</time>
      </trkpt>
      <trkpt lat="47.552616" lon="7.832891">
        <ele>309.406059</ele>
        <time>2021-11-15T20:48:12.124Z</time>
      </trkpt>
      <trkpt lat="47.552690" lon="7.832598">
        <ele>308.901638</ele>
        <time>2021-11-15T20:48:14.447Z</time>
      </trkpt>
      <trkpt lat="47.552645" lon="7.830686">
        <ele>305.816902</ele>
        <time>2021-11-15T20:48:28.141Z</time>
      </trkpt>
      <trkpt lat="47.552554" lon="7.829266">
        <ele>303.910682</ele>
        <time>2021-11-15T20:48:38.427Z</time>
      </trkpt>
      <trkpt lat="47.552416" lon="7.828822">
        <ele>303.268561</ele>
        <time>2021-11-15T20:48:42.091Z</time>
      </trkpt>
      <trkpt lat="47.552404" lon="7.828582">
        <ele>302.952429</ele>
        <time>2021-11-15T20:48:44.006Z</time>
      </trkpt>
      <trkpt lat="47.552421" lon="7.828481">
        <ele>302.815690</ele>
        <time>2021-11-15T20:48:44.761Z</time>
      </trkpt>
      <trkpt lat="47.552477" lon="7.828294">
        <ele>302.546948</ele>
        <time>2021-11-15T20:48:46.337Z</time>
      </trkpt>
      <trkpt lat="47.552515" lon="7.828094">
        <ele>302.274013</ele>
        <time>2021-11-15T20:48:48.055Z</time>
      </trkpt>
      <trkpt lat="47.552491" lon="7.827227">
        <ele>301.705066</ele>
        <time>2021-11-15T20:48:54.963Z</time>
      </trkpt>
      <trkpt lat="47.552567" lon="7.824508">
        <ele>300.214058</ele>
        <time>2021-11-15T20:49:18.811Z</time>
      </trkpt>
      <trkpt lat="47.552896" lon="7.820699">
        <ele>298.224115</ele>
        <time>2021-11-15T20:49:51.471Z</time>
      </trkpt>
      <trkpt lat="47.552948" lon="7.819358">
        <ele>297.696361</ele>
        <time>2021-11-15T20:50:02.935Z</time>
      </trkpt>
      <trkpt lat="47.552929" lon="7.818820">
        <ele>297.560164</ele>
        <time>2021-11-15T20:50:07.637Z</time>
      </trkpt>
      <trkpt lat="47.552844" lon="7.816432">
        <ele>297.422658</ele>
        <time>2021-11-15T20:50:30.704Z</time>
      </trkpt>
      <trkpt lat="47.552711" lon="7.812955">
        <ele>298.597497</ele>
        <time>2021-11-15T20:51:11.618Z</time>
      </trkpt>
      <trkpt lat="47.552566" lon="7.810386">
        <ele>299.746759</ele>
        <time>2021-11-15T20:51:41.649Z</time>
      </trkpt>
      <trkpt lat="47.552398" lon="7.808880">
        <ele>300.371132</ele>
        <time>2021-11-15T20:52:00.130Z</time>
      </trkpt>
      <trkpt lat="47.552068" lon="7.806445">
        <ele>300.925722</ele>
        <time>2021-11-15T20:52:28.470Z</time>
      </trkpt>
      <trkpt lat="47.552015" lon="7.806307">
        <ele>300.864377</ele>
        <time>2021-11-15T20:52:30.193Z</time>
      </trkpt>
      <trkpt lat="47.551895" lon="7.806278">
        <ele>300.794775</ele>
        <time>2021-11-15T20:52:31.502Z</time>
      </trkpt>
      <trkpt lat="47.551651" lon="7.806246">
        <ele>300.654552</ele>
        <time>2021-11-15T20:52:35.265Z</time>
      </trkpt>
      <trkpt lat="47.551671" lon="7.806117">
        <ele>300.603414</ele>
        <time>2021-11-15T20:52:36.579Z</time>
      </trkpt>
      <trkpt lat="47.551681" lon="7.805477">
        <ele>300.356078</ele>
        <time>2021-11-15T20:52:44.276Z</time>
      </trkpt>
      <trkpt lat="47.551709" lon="7.805000">
        <ele>300.171089</ele>
        <time>2021-11-15T20:52:49.921Z</time>
      </trkpt>
      <trkpt lat="47.551731" lon="7.804667">
        <ele>300.041817</ele>
        <time>2021-11-15T20:52:54.557Z</time>
      </trkpt>
      <trkpt lat="47.551744" lon="7.804473">
        <ele>299.984008</ele>
        <time>2021-11-15T20:52:56.563Z</time>
      </trkpt>
      <trkpt lat="47.551741" lon="7.804294">
        <ele>299.933353</ele>
        <time>2021-11-15T20:52:58.943Z</time>
      </trkpt>
      <trkpt lat="47.551692" lon="7.803510">
        <ele>299.710612</ele>
        <time>2021-11-15T20:53:08.091Z</time>
      </trkpt>
      <trkpt lat="47.551751" lon="7.803369">
        <ele>299.663680</ele>
        <time>2021-11-15T20:53:10.096Z</time>
      </trkpt>
      <trkpt lat="47.551744" lon="7.803277">
        <ele>299.637488</ele>
        <time>2021-11-15T20:53:10.914Z</time>
      </trkpt>
      <trkpt lat="47.551732" lon="7.803125">
        <ele>299.594195</ele>
        <time>2021-11-15T20:53:12.302Z</time>
      </trkpt>
      <trkpt lat="47.551666" lon="7.803144">
        <ele>299.566013</ele>
        <time>2021-11-15T20:53:16.969Z</time>
      </trkpt>
      <trkpt lat="47.551598" lon="7.803160">
        <ele>299.537153</ele>
        <time>2021-11-15T20:53:21.714Z</time>
      </trkpt>
      <trkpt lat="47.551163" lon="7.803129">
        <ele>299.354610</ele>
        <time>2021-11-15T20:53:30.739Z</time>
      </trkpt>
      <trkpt lat="47.550981" lon="7.803132">
        <ele>299.278319</ele>
        <time>2021-11-15T20:53:34.752Z</time>
      </trkpt>
      <trkpt lat="47.550196" lon="7.803120">
        <ele>299.539899</ele>
        <time>2021-11-15T20:53:52.078Z</time>
      </trkpt>
      <trkpt lat="47.550134" lon="7.803051">
        <ele>299.565796</ele>
        <time>2021-11-15T20:53:53.760Z</time>
      </trkpt>
      <trkpt lat="47.550146" lon="7.802262">
        <ele>299.743692</ele>
        <time>2021-11-15T20:54:05.138Z</time>
      </trkpt>
      <trkpt lat="47.549879" lon="7.802247">
        <ele>299.832927</ele>
        <time>2021-11-15T20:54:10.919Z</time>
      </trkpt>
      <trkpt lat="47.549481" lon="7.802234">
        <ele>299.925592</ele>
        <time>2021-11-15T20:54:19.640Z</time>
      </trkpt>
      <trkpt lat="47.549410" lon="7.802226">
        <ele>299.938386</ele>
        <time>2021-11-15T20:54:21.243Z</time>
      </trkpt>
      <trkpt lat="47.548877" lon="7.802168">
        <ele>300.034407</ele>
        <time>2021-11-15T20:54:32.460Z</time>
      </trkpt>
      <trkpt lat="47.548731" lon="7.802145">
        <ele>300.060787</ele>
        <time>2021-11-15T20:54:35.520Z</time>
      </trkpt>
      <trkpt lat="47.548626" lon="7.802129">
        <ele>300.079751</ele>
        <time>2021-11-15T20:54:37.667Z</time>
      </trkpt>
      <trkpt lat="47.548626" lon="7.802129">
        <ele>300.079751</ele>
        <time>2021-11-15T20:54:37.671Z</time>
      </trkpt>
      <trkpt lat="47.548626" lon="7.802129">
        <ele>300.079751</ele>
        <time>2021-11-15T20:54:37.679Z</time>
      </trkpt>
      <trkpt lat="47.548607" lon="7.801690">
        <ele>300.133098</ele>
        <time>2021-11-15T20:54:43.749Z</time>
      </trkpt>
      <trkpt lat="47.548596" lon="7.801213">
        <ele>300.190978</ele>
        <time>2021-11-15T20:54:50.279Z</time>
      </trkpt>
      <trkpt lat="47.548576" lon="7.800968">
        <ele>300.218962</ele>
        <time>2021-11-15T20:54:53.647Z</time>
      </trkpt>
      <trkpt lat="47.548569" lon="7.800838">
        <ele>300.233165</ele>
        <time>2021-11-15T20:54:55.410Z</time>
      </trkpt>
      <trkpt lat="47.548560" lon="7.800672">
        <ele>300.251302</ele>
        <time>2021-11-15T20:54:57.723Z</time>
      </trkpt>
      <trkpt lat="47.548545" lon="7.800404">
        <ele>300.280590</ele>
        <time>2021-11-15T20:55:01.375Z</time>
      </trkpt>
      <trkpt lat="47.548519" lon="7.799896">
        <ele>300.336074</ele>
        <time>2021-11-15T20:55:08.490Z</time>
      </trkpt>
      <trkpt lat="47.548514" lon="7.799795">
        <ele>300.347103</ele>
        <time>2021-11-15T20:55:09.894Z</time>
      </trkpt>
      <trkpt lat="47.548535" lon="7.799720">
        <ele>300.355946</ele>
        <time>2021-11-15T20:55:11.045Z</time>
      </trkpt>
      <trkpt lat="47.548459" lon="7.799691">
        <ele>300.368610</ele>
        <time>2021-11-15T20:55:12.691Z</time>
      </trkpt>
      <trkpt lat="47.547912" lon="7.799646">
        <ele>300.457006</ele>
        <time>2021-11-15T20:55:23.934Z</time>
      </trkpt>
      <trkpt lat="47.547540" lon="7.799538">
        <ele>300.581606</ele>
        <time>2021-11-15T20:55:31.895Z</time>
      </trkpt>
      <trkpt lat="47.546418" lon="7.798980">
        <ele>301.236507</ele>
        <time>2021-11-15T20:56:00.351Z</time>
      </trkpt>
      <trkpt lat="47.545807" lon="7.798846">
        <ele>301.480674</ele>
        <time>2021-11-15T20:56:13.293Z</time>
      </trkpt>
      <trkpt lat="47.545731" lon="7.798810">
        <ele>301.477442</ele>
        <time>2021-11-15T20:56:15.339Z</time>
      </trkpt>
      <trkpt lat="47.545581" lon="7.798713">
        <ele>301.470813</ele>
        <time>2021-11-15T20:56:18.143Z</time>
      </trkpt>
      <trkpt lat="47.545511" lon="7.798680">
        <ele>301.467838</ele>
        <time>2021-11-15T20:56:19.636Z</time>
      </trkpt>
      <trkpt lat="47.545558" lon="7.798144">
        <ele>301.453062</ele>
        <time>2021-11-15T20:56:26.424Z</time>
      </trkpt>
      <trkpt lat="47.545637" lon="7.797310">
        <ele>301.430038</ele>
        <time>2021-11-15T20:56:38.170Z</time>
      </trkpt>
      <trkpt lat="47.545645" lon="7.797258">
        <ele>301.428580</ele>
        <time>2021-11-15T20:56:38.663Z</time>
      </trkpt>
      <trkpt lat="47.545670" lon="7.797142">
        <ele>301.425251</ele>
        <time>2021-11-15T20:56:40.225Z</time>
      </trkpt>
      <trkpt lat="47.545689" lon="7.797076">
        <ele>301.423290</ele>
        <time>2021-11-15T20:56:41.129Z</time>
      </trkpt>
      <trkpt lat="47.545728" lon="7.796950">
        <ele>301.419500</ele>
        <time>2021-11-15T20:56:43.837Z</time>
      </trkpt>
      <trkpt lat="47.545771" lon="7.796805">
        <ele>301.415170</ele>
        <time>2021-11-15T20:56:46.165Z</time>
      </trkpt>
      <trkpt lat="47.545788" lon="7.796748">
        <ele>301.422583</ele>
        <time>2021-11-15T20:56:46.801Z</time>
      </trkpt>
      <trkpt lat="47.545889" lon="7.796500">
        <ele>301.485619</ele>
        <time>2021-11-15T20:56:51.086Z</time>
      </trkpt>
      <trkpt lat="47.546038" lon="7.796107">
        <ele>301.583718</ele>
        <time>2021-11-15T20:56:56.645Z</time>
      </trkpt>
      <trkpt lat="47.546105" lon="7.795928">
        <ele>301.628263</ele>
        <time>2021-11-15T20:57:00.179Z</time>
      </trkpt>
      <trkpt lat="47.546154" lon="7.795747">
        <ele>301.670705</ele>
        <time>2021-11-15T20:57:02.487Z</time>
      </trkpt>
      <trkpt lat="47.546170" lon="7.795612">
        <ele>301.700535</ele>
        <time>2021-11-15T20:57:04.400Z</time>
      </trkpt>
      <trkpt lat="47.546165" lon="7.795511">
        <ele>301.722575</ele>
        <time>2021-11-15T20:57:06.422Z</time>
      </trkpt>
      <trkpt lat="47.546019" lon="7.795020">
        <ele>301.839343</ele>
        <time>2021-11-15T20:57:14.181Z</time>
      </trkpt>
      <trkpt lat="47.545947" lon="7.794710">
        <ele>301.910692</ele>
        <time>2021-11-15T20:57:19.219Z</time>
      </trkpt>
      <trkpt lat="47.545921" lon="7.794468">
        <ele>301.964023</ele>
        <time>2021-11-15T20:57:23.338Z</time>
      </trkpt>
      <trkpt lat="47.545939" lon="7.794165">
        <ele>301.973246</ele>
        <time>2021-11-15T20:57:27.915Z</time>
      </trkpt>
      <trkpt lat="47.545969" lon="7.793663">
        <ele>301.908435</ele>
        <time>2021-11-15T20:57:35.843Z</time>
      </trkpt>
      <trkpt lat="47.546027" lon="7.793254">
        <ele>301.854689</ele>
        <time>2021-11-15T20:57:42.251Z</time>
      </trkpt>
      <trkpt lat="47.546253" lon="7.791998">
        <ele>301.687526</ele>
        <time>2021-11-15T20:57:58.427Z</time>
      </trkpt>
      <trkpt lat="47.546466" lon="7.790439">
        <ele>300.771860</ele>
        <time>2021-11-15T20:58:16.317Z</time>
      </trkpt>
      <trkpt lat="47.546673" lon="7.788921">
        <ele>299.870049</ele>
        <time>2021-11-15T20:58:34.824Z</time>
      </trkpt>
      <trkpt lat="47.546695" lon="7.788763">
        <ele>299.874152</ele>
        <time>2021-11-15T20:58:36.737Z</time>
      </trkpt>
      <trkpt lat="47.546776" lon="7.788111">
        <ele>299.891013</ele>
        <time>2021-11-15T20:58:45.251Z</time>
      </trkpt>
      <trkpt lat="47.546897" lon="7.787133">
        <ele>299.916302</ele>
        <time>2021-11-15T20:58:58.242Z</time>
      </trkpt>
      <trkpt lat="47.546959" lon="7.786598">
        <ele>299.930109</ele>
        <time>2021-11-15T20:59:05.890Z</time>
      </trkpt>
      <trkpt lat="47.546952" lon="7.786540">
        <ele>299.931607</ele>
        <time>2021-11-15T20:59:06.855Z</time>
      </trkpt>
      <trkpt lat="47.546913" lon="7.786470">
        <ele>300.061611</ele>
        <time>2021-11-15T20:59:08.636Z</time>
      </trkpt>
      <trkpt lat="47.546526" lon="7.786353">
        <ele>301.829916</ele>
        <time>2021-11-15T20:59:20.012Z</time>
      </trkpt>
      <trkpt lat="47.546464" lon="7.786335">
        <ele>302.112770</ele>
        <time>2021-11-15T20:59:21.807Z</time>
      </trkpt>
      <trkpt lat="47.546417" lon="7.786331">
        <ele>302.323536</ele>
        <time>2021-11-15T20:59:23.038Z</time>
      </trkpt>
      <trkpt lat="47.546102" lon="7.786217">
        <ele>303.775258</ele>
        <time>2021-11-15T20:59:34.559Z</time>
      </trkpt>
      <trkpt lat="47.545856" lon="7.785973">
        <ele>305.100646</ele>
        <time>2021-11-15T20:59:46.703Z</time>
      </trkpt>
      <trkpt lat="47.545672" lon="7.785654">
        <ele>306.368680</ele>
        <time>2021-11-15T20:59:58.029Z</time>
      </trkpt>
      <trkpt lat="47.545624" lon="7.785548">
        <ele>306.754416</ele>
        <time>2021-11-15T21:00:04.694Z</time>
      </trkpt>
      <trkpt lat="47.545250" lon="7.784778">
        <ele>309.519923</ele>
        <time>2021-11-15T21:00:36.220Z</time>
      </trkpt>
      <trkpt lat="47.545240" lon="7.784746">
        <ele>309.619893</ele>
        <time>2021-11-15T21:00:38.900Z</time>
      </trkpt>
      <trkpt lat="47.545054" lon="7.784227">
        <ele>311.285766</ele>
        <time>2021-11-15T21:00:57.049Z</time>
      </trkpt>
      <trkpt lat="47.544950" lon="7.784008">
        <ele>312.044882</ele>
        <time>2021-11-15T21:01:03.380Z</time>
      </trkpt>
      <trkpt lat="47.544627" lon="7.783499">
        <ele>314.025433</ele>
        <time>2021-11-15T21:01:19.243Z</time>
      </trkpt>
      <trkpt lat="47.544555" lon="7.783372">
        <ele>314.495620</ele>
        <time>2021-11-15T21:01:21.320Z</time>
      </trkpt>
      <trkpt lat="47.544490" lon="7.783060">
        <ele>315.421314</ele>
        <time>2021-11-15T21:01:26.066Z</time>
      </trkpt>
      <trkpt lat="47.544474" lon="7.782623">
        <ele>314.289063</ele>
        <time>2021-11-15T21:01:31.073Z</time>
      </trkpt>
      <trkpt lat="47.544469" lon="7.782455">
        <ele>313.757996</ele>
        <time>2021-11-15T21:01:32.373Z</time>
      </trkpt>
      <trkpt lat="47.544461" lon="7.782254">
        <ele>313.122125</ele>
        <time>2021-11-15T21:01:33.637Z</time>
      </trkpt>
      <trkpt lat="47.544100" lon="7.779438">
        <ele>303.993653</ele>
        <time>2021-11-15T21:01:51.126Z</time>
      </trkpt>
      <trkpt lat="47.543933" lon="7.778374">
        <ele>300.457516</ele>
        <time>2021-11-15T21:01:58.197Z</time>
      </trkpt>
      <trkpt lat="47.543707" lon="7.777394">
        <ele>298.151006</ele>
        <time>2021-11-15T21:02:05.418Z</time>
      </trkpt>
      <trkpt lat="47.543527" lon="7.776532">
        <ele>297.421481</ele>
        <time>2021-11-15T21:02:12.561Z</time>
      </trkpt>
      <trkpt lat="47.543482" lon="7.776095">
        <ele>297.064071</ele>
        <time>2021-11-15T21:02:16.438Z</time>
      </trkpt>
      <trkpt lat="47.543449" lon="7.775478">
        <ele>296.563651</ele>
        <time>2021-11-15T21:02:22.180Z</time>
      </trkpt>
      <trkpt lat="47.543402" lon="7.775016">
        <ele>296.328247</ele>
        <time>2021-11-15T21:02:26.850Z</time>
      </trkpt>
      <trkpt lat="47.543350" lon="7.774507">
        <ele>296.284737</ele>
        <time>2021-11-15T21:02:32.087Z</time>
      </trkpt>
      <trkpt lat="47.543145" lon="7.773277">
        <ele>296.177657</ele>
        <time>2021-11-15T21:02:44.987Z</time>
      </trkpt>
      <trkpt lat="47.543108" lon="7.773069">
        <ele>296.159477</ele>
        <time>2021-11-15T21:02:47.166Z</time>
      </trkpt>
      <trkpt lat="47.542720" lon="7.770771">
        <ele>295.624374</ele>
        <time>2021-11-15T21:03:08.389Z</time>
      </trkpt>
      <trkpt lat="47.542450" lon="7.769311">
        <ele>296.139918</ele>
        <time>2021-11-15T21:03:22.361Z</time>
      </trkpt>
      <trkpt lat="47.542317" lon="7.768533">
        <ele>296.908807</ele>
        <time>2021-11-15T21:03:30.734Z</time>
      </trkpt>
      <trkpt lat="47.541697" lon="7.765479">
        <ele>304.610587</ele>
        <time>2021-11-15T21:04:33.000Z</time>
      </trkpt>
      <trkpt lat="47.541552" lon="7.764869">
        <ele>306.854079</ele>
        <time>2021-11-15T21:04:52.739Z</time>
      </trkpt>
      <trkpt lat="47.541443" lon="7.764512">
        <ele>309.322737</ele>
        <time>2021-11-15T21:05:06.591Z</time>
      </trkpt>
      <trkpt lat="47.541364" lon="7.764150">
        <ele>311.719755</ele>
        <time>2021-11-15T21:05:17.557Z</time>
      </trkpt>
      <trkpt lat="47.541377" lon="7.764045">
        <ele>312.392347</ele>
        <time>2021-11-15T21:05:22.121Z</time>
      </trkpt>
      <trkpt lat="47.541334" lon="7.764020">
        <ele>312.823484</ele>
        <time>2021-11-15T21:05:26.964Z</time>
      </trkpt>
      <trkpt lat="47.541219" lon="7.763853">
        <ele>314.326533</ele>
        <time>2021-11-15T21:05:33.551Z</time>
      </trkpt>
      <trkpt lat="47.541023" lon="7.762922">
        <ele>320.471002</ele>
        <time>2021-11-15T21:06:11.884Z</time>
      </trkpt>
      <trkpt lat="47.541004" lon="7.762306">
        <ele>324.050036</ele>
        <time>2021-11-15T21:06:34.702Z</time>
      </trkpt>
      <trkpt lat="47.540921" lon="7.761599">
        <ele>327.278330</ele>
        <time>2021-11-15T21:06:59.371Z</time>
      </trkpt>
      <trkpt lat="47.540567" lon="7.759901">
        <ele>335.272087</ele>
        <time>2021-11-15T21:07:44.045Z</time>
      </trkpt>
      <trkpt lat="47.540447" lon="7.759585">
        <ele>335.507863</ele>
        <time>2021-11-15T21:07:51.628Z</time>
      </trkpt>
      <trkpt lat="47.539949" lon="7.758688">
        <ele>336.263109</ele>
        <time>2021-11-15T21:08:09.872Z</time>
      </trkpt>
      <trkpt lat="47.539722" lon="7.758107">
        <ele>336.699651</ele>
        <time>2021-11-15T21:08:16.162Z</time>
      </trkpt>
      <trkpt lat="47.539595" lon="7.757548">
        <ele>336.605533</ele>
        <time>2021-11-15T21:08:20.555Z</time>
      </trkpt>
      <trkpt lat="47.539346" lon="7.755736">
        <ele>330.504512</ele>
        <time>2021-11-15T21:08:32.300Z</time>
      </trkpt>
      <trkpt lat="47.539230" lon="7.755294">
        <ele>328.939872</ele>
        <time>2021-11-15T21:08:35.191Z</time>
      </trkpt>
      <trkpt lat="47.539079" lon="7.754976">
        <ele>327.750095</ele>
        <time>2021-11-15T21:08:37.582Z</time>
      </trkpt>
      <trkpt lat="47.538792" lon="7.754549">
        <ele>326.093968</ele>
        <time>2021-11-15T21:08:41.317Z</time>
      </trkpt>
      <trkpt lat="47.538723" lon="7.754445">
        <ele>325.693183</ele>
        <time>2021-11-15T21:08:42.214Z</time>
      </trkpt>
      <trkpt lat="47.538494" lon="7.754103">
        <ele>324.369219</ele>
        <time>2021-11-15T21:08:45.374Z</time>
      </trkpt>
      <trkpt lat="47.538359" lon="7.753900">
        <ele>323.586009</ele>
        <time>2021-11-15T21:08:47.276Z</time>
      </trkpt>
      <trkpt lat="47.538052" lon="7.753460">
        <ele>321.846794</ele>
        <time>2021-11-15T21:08:51.683Z</time>
      </trkpt>
      <trkpt lat="47.537715" lon="7.753194">
        <ele>320.786676</ele>
        <time>2021-11-15T21:08:55.802Z</time>
      </trkpt>
      <trkpt lat="47.537564" lon="7.753073">
        <ele>320.664878</ele>
        <time>2021-11-15T21:08:57.704Z</time>
      </trkpt>
      <trkpt lat="47.537371" lon="7.752851">
        <ele>320.491518</ele>
        <time>2021-11-15T21:09:01.141Z</time>
      </trkpt>
      <trkpt lat="47.537134" lon="7.752309">
        <ele>320.182227</ele>
        <time>2021-11-15T21:09:07.428Z</time>
      </trkpt>
      <trkpt lat="47.535912" lon="7.749669">
        <ele>319.252665</ele>
        <time>2021-11-15T21:09:37.618Z</time>
      </trkpt>
      <trkpt lat="47.535293" lon="7.747810">
        <ele>318.821513</ele>
        <time>2021-11-15T21:09:56.542Z</time>
      </trkpt>
      <trkpt lat="47.534874" lon="7.746551">
        <ele>318.558847</ele>
        <time>2021-11-15T21:10:09.471Z</time>
      </trkpt>
      <trkpt lat="47.534429" lon="7.744856">
        <ele>318.679926</ele>
        <time>2021-11-15T21:10:28.369Z</time>
      </trkpt>
      <trkpt lat="47.534370" lon="7.744709">
        <ele>318.691311</ele>
        <time>2021-11-15T21:10:30.016Z</time>
      </trkpt>
      <trkpt lat="47.534179" lon="7.744495">
        <ele>318.714928</ele>
        <time>2021-11-15T21:10:33.898Z</time>
      </trkpt>
      <trkpt lat="47.534097" lon="7.744343">
        <ele>318.725114</ele>
        <time>2021-11-15T21:10:35.909Z</time>
      </trkpt>
      <trkpt lat="47.534043" lon="7.744207">
        <ele>318.724608</ele>
        <time>2021-11-15T21:10:37.654Z</time>
      </trkpt>
      <trkpt lat="47.533870" lon="7.743466">
        <ele>318.722091</ele>
        <time>2021-11-15T21:10:46.433Z</time>
      </trkpt>
      <trkpt lat="47.533707" lon="7.742025">
        <ele>318.717402</ele>
        <time>2021-11-15T21:11:04.982Z</time>
      </trkpt>
      <trkpt lat="47.533352" lon="7.740430">
        <ele>313.770933</ele>
        <time>2021-11-15T21:11:16.355Z</time>
      </trkpt>
      <trkpt lat="47.533191" lon="7.739816">
        <ele>311.536502</ele>
        <time>2021-11-15T21:11:20.361Z</time>
      </trkpt>
      <trkpt lat="47.533226" lon="7.739781">
        <ele>311.324320</ele>
        <time>2021-11-15T21:11:20.712Z</time>
      </trkpt>
      <trkpt lat="47.533446" lon="7.739598">
        <ele>310.056560</ele>
        <time>2021-11-15T21:11:22.957Z</time>
      </trkpt>
      <trkpt lat="47.534011" lon="7.739126">
        <ele>305.407427</ele>
        <time>2021-11-15T21:11:28.635Z</time>
      </trkpt>
      <trkpt lat="47.534755" lon="7.738529">
        <ele>299.105706</ele>
        <time>2021-11-15T21:11:36.041Z</time>
      </trkpt>
      <trkpt lat="47.535216" lon="7.738157">
        <ele>296.077402</ele>
        <time>2021-11-15T21:11:40.874Z</time>
      </trkpt>
      <trkpt lat="47.534765" lon="7.736911">
        <ele>294.725460</ele>
        <time>2021-11-15T21:11:52.011Z</time>
      </trkpt>
      <trkpt lat="47.534670" lon="7.736644">
        <ele>294.436849</ele>
        <time>2021-11-15T21:11:55.478Z</time>
      </trkpt>
      <trkpt lat="47.534670" lon="7.736644">
        <ele>294.436849</ele>
        <time>2021-11-15T21:11:55.500Z</time>
      </trkpt>
      <trkpt lat="47.534450" lon="7.736026">
        <ele>293.768752</ele>
        <time>2021-11-15T21:12:03.808Z</time>
      </trkpt>
      <trkpt lat="47.534301" lon="7.735625">
        <ele>293.967979</ele>
        <time>2021-11-15T21:12:09.595Z</time>
      </trkpt>
      <trkpt lat="47.533860" lon="7.734479">
        <ele>294.686642</ele>
        <time>2021-11-15T21:12:26.567Z</time>
      </trkpt>
      <trkpt lat="47.533685" lon="7.734026">
        <ele>294.970993</ele>
        <time>2021-11-15T21:12:32.784Z</time>
      </trkpt>
      <trkpt lat="47.533596" lon="7.733768">
        <ele>295.128843</ele>
        <time>2021-11-15T21:12:36.018Z</time>
      </trkpt>
      <trkpt lat="47.533577" lon="7.733712">
        <ele>295.162990</ele>
        <time>2021-11-15T21:12:36.847Z</time>
      </trkpt>
      <trkpt lat="47.533436" lon="7.733399">
        <ele>295.201777</ele>
        <time>2021-11-15T21:12:40.871Z</time>
      </trkpt>
      <trkpt lat="47.533324" lon="7.733190">
        <ele>295.212722</ele>
        <time>2021-11-15T21:12:44.027Z</time>
      </trkpt>
      <trkpt lat="47.533220" lon="7.733022">
        <ele>295.222071</ele>
        <time>2021-11-15T21:12:46.250Z</time>
      </trkpt>
      <trkpt lat="47.532961" lon="7.732599">
        <ele>295.245495</ele>
        <time>2021-11-15T21:12:52.143Z</time>
      </trkpt>
      <trkpt lat="47.532853" lon="7.732416">
        <ele>295.255465</ele>
        <time>2021-11-15T21:12:54.786Z</time>
      </trkpt>
      <trkpt lat="47.532776" lon="7.732283">
        <ele>295.262652</ele>
        <time>2021-11-15T21:12:56.392Z</time>
      </trkpt>
      <trkpt lat="47.532665" lon="7.732105">
        <ele>295.272591</ele>
        <time>2021-11-15T21:12:58.678Z</time>
      </trkpt>
      <trkpt lat="47.532473" lon="7.731703">
        <ele>295.292790</ele>
        <time>2021-11-15T21:13:03.169Z</time>
      </trkpt>
      <trkpt lat="47.532405" lon="7.731493">
        <ele>295.298310</ele>
        <time>2021-11-15T21:13:05.378Z</time>
      </trkpt>
      <trkpt lat="47.532193" lon="7.730459">
        <ele>295.305572</ele>
        <time>2021-11-15T21:13:15.253Z</time>
      </trkpt>
      <trkpt lat="47.531944" lon="7.728603">
        <ele>295.454729</ele>
        <time>2021-11-15T21:13:35.815Z</time>
      </trkpt>
      <trkpt lat="47.531815" lon="7.728165">
        <ele>295.610795</ele>
        <time>2021-11-15T21:13:41.093Z</time>
      </trkpt>
      <trkpt lat="47.531623" lon="7.727725">
        <ele>295.781897</ele>
        <time>2021-11-15T21:13:46.932Z</time>
      </trkpt>
      <trkpt lat="47.531296" lon="7.727089">
        <ele>296.042982</ele>
        <time>2021-11-15T21:13:56.176Z</time>
      </trkpt>
      <trkpt lat="47.531193" lon="7.726888">
        <ele>296.125394</ele>
        <time>2021-11-15T21:13:58.675Z</time>
      </trkpt>
      <trkpt lat="47.531031" lon="7.726569">
        <ele>296.312430</ele>
        <time>2021-11-15T21:14:03.513Z</time>
      </trkpt>
      <trkpt lat="47.530756" lon="7.726844">
        <ele>296.602308</ele>
        <time>2021-11-15T21:14:09.597Z</time>
      </trkpt>
      <trkpt lat="47.530372" lon="7.727161">
        <ele>296.986369</ele>
        <time>2021-11-15T21:14:17.846Z</time>
      </trkpt>
      <trkpt lat="47.529976" lon="7.727410">
        <ele>297.362208</ele>
        <time>2021-11-15T21:14:25.734Z</time>
      </trkpt>
      <trkpt lat="47.529269" lon="7.727844">
        <ele>297.873983</ele>
        <time>2021-11-15T21:14:40.316Z</time>
      </trkpt>
      <trkpt lat="47.528941" lon="7.728048">
        <ele>298.006913</ele>
        <time>2021-11-15T21:14:46.779Z</time>
      </trkpt>
      <trkpt lat="47.528848" lon="7.728118">
        <ele>298.045894</ele>
        <time>2021-11-15T21:14:48.605Z</time>
      </trkpt>
      <trkpt lat="47.528803" lon="7.728159">
        <ele>298.065636</ele>
        <time>2021-11-15T21:14:49.452Z</time>
      </trkpt>
      <trkpt lat="47.528746" lon="7.728265">
        <ele>298.099825</ele>
        <time>2021-11-15T21:14:50.980Z</time>
      </trkpt>
      <trkpt lat="47.528715" lon="7.728334">
        <ele>298.120735</ele>
        <time>2021-11-15T21:14:51.883Z</time>
      </trkpt>
      <trkpt lat="47.528688" lon="7.728441">
        <ele>298.149555</ele>
        <time>2021-11-15T21:14:53.208Z</time>
      </trkpt>
      <trkpt lat="47.528614" lon="7.728431">
        <ele>298.177321</ele>
        <time>2021-11-15T21:14:54.432Z</time>
      </trkpt>
      <trkpt lat="47.528552" lon="7.728411">
        <ele>298.201032</ele>
        <time>2021-11-15T21:14:55.417Z</time>
      </trkpt>
      <trkpt lat="47.528408" lon="7.728307">
        <ele>298.260896</ele>
        <time>2021-11-15T21:14:57.917Z</time>
      </trkpt>
      <trkpt lat="47.528320" lon="7.728136">
        <ele>298.315142</ele>
        <time>2021-11-15T21:15:00.084Z</time>
      </trkpt>
      <trkpt lat="47.528164" lon="7.727824">
        <ele>298.413095</ele>
        <time>2021-11-15T21:15:03.729Z</time>
      </trkpt>
      <trkpt lat="47.528065" lon="7.727556">
        <ele>298.358753</ele>
        <time>2021-11-15T21:15:06.397Z</time>
      </trkpt>
      <trkpt lat="47.528009" lon="7.727429">
        <ele>298.314995</ele>
        <time>2021-11-15T21:15:07.720Z</time>
      </trkpt>
      <trkpt lat="47.527862" lon="7.727114">
        <ele>298.204529</ele>
        <time>2021-11-15T21:15:10.891Z</time>
      </trkpt>
      <trkpt lat="47.526894" lon="7.725042">
        <ele>298.044745</ele>
        <time>2021-11-15T21:15:33.682Z</time>
      </trkpt>
      <trkpt lat="47.526744" lon="7.724750">
        <ele>298.267363</ele>
        <time>2021-11-15T21:15:38.334Z</time>
      </trkpt>
      <trkpt lat="47.526099" lon="7.723563">
        <ele>299.191840</ele>
        <time>2021-11-15T21:15:59.471Z</time>
      </trkpt>
      <trkpt lat="47.525373" lon="7.722545">
        <ele>299.726308</ele>
        <time>2021-11-15T21:16:20.701Z</time>
      </trkpt>
      <trkpt lat="47.525258" lon="7.722384">
        <ele>299.804903</ele>
        <time>2021-11-15T21:16:23.489Z</time>
      </trkpt>
      <trkpt lat="47.524884" lon="7.722022">
        <ele>300.026802</ele>
        <time>2021-11-15T21:16:30.693Z</time>
      </trkpt>
      <trkpt lat="47.524632" lon="7.721805">
        <ele>300.154325</ele>
        <time>2021-11-15T21:16:34.372Z</time>
      </trkpt>
      <trkpt lat="47.524263" lon="7.721598">
        <ele>298.332009</ele>
        <time>2021-11-15T21:16:38.628Z</time>
      </trkpt>
      <trkpt lat="47.523902" lon="7.721670">
        <ele>296.649760</ele>
        <time>2021-11-15T21:16:42.176Z</time>
      </trkpt>
      <trkpt lat="47.523671" lon="7.721634">
        <ele>295.577048</ele>
        <time>2021-11-15T21:16:44.320Z</time>
      </trkpt>
      <trkpt lat="47.523300" lon="7.721328">
        <ele>293.615830</ele>
        <time>2021-11-15T21:16:48.250Z</time>
      </trkpt>
      <trkpt lat="47.523111" lon="7.721224">
        <ele>292.684663</ele>
        <time>2021-11-15T21:16:50.029Z</time>
      </trkpt>
      <trkpt lat="47.522888" lon="7.721170">
        <ele>291.584506</ele>
        <time>2021-11-15T21:16:52.127Z</time>
      </trkpt>
      <trkpt lat="47.522682" lon="7.721170">
        <ele>290.390751</ele>
        <time>2021-11-15T21:16:53.948Z</time>
      </trkpt>
      <trkpt lat="47.522498" lon="7.721207">
        <ele>289.314699</ele>
        <time>2021-11-15T21:16:55.642Z</time>
      </trkpt>
      <trkpt lat="47.522249" lon="7.721165">
        <ele>287.862432</ele>
        <time>2021-11-15T21:16:57.895Z</time>
      </trkpt>
      <trkpt lat="47.521984" lon="7.721168">
        <ele>286.326731</ele>
        <time>2021-11-15T21:17:00.251Z</time>
      </trkpt>
      <trkpt lat="47.521846" lon="7.721211">
        <ele>285.509519</ele>
        <time>2021-11-15T21:17:01.589Z</time>
      </trkpt>
      <trkpt lat="47.521722" lon="7.721283">
        <ele>284.737681</ele>
        <time>2021-11-15T21:17:02.760Z</time>
      </trkpt>
      <trkpt lat="47.521455" lon="7.721426">
        <ele>283.092344</ele>
        <time>2021-11-15T21:17:05.465Z</time>
      </trkpt>
      <trkpt lat="47.521121" lon="7.721544">
        <ele>281.372996</ele>
        <time>2021-11-15T21:17:08.767Z</time>
      </trkpt>
      <trkpt lat="47.520760" lon="7.721667">
        <ele>280.945409</ele>
        <time>2021-11-15T21:17:12.633Z</time>
      </trkpt>
      <trkpt lat="47.519305" lon="7.722165">
        <ele>279.479063</ele>
        <time>2021-11-15T21:17:33.181Z</time>
      </trkpt>
      <trkpt lat="47.518237" lon="7.722578">
        <ele>280.506904</ele>
        <time>2021-11-15T21:17:53.763Z</time>
      </trkpt>
      <trkpt lat="47.518038" lon="7.722700">
        <ele>280.707461</ele>
        <time>2021-11-15T21:17:57.855Z</time>
      </trkpt>
      <trkpt lat="47.517885" lon="7.722793">
        <ele>280.861467</ele>
        <time>2021-11-15T21:18:01.335Z</time>
      </trkpt>
      <trkpt lat="47.517269" lon="7.723372">
        <ele>282.099027</ele>
        <time>2021-11-15T21:18:16.754Z</time>
      </trkpt>
      <trkpt lat="47.516416" lon="7.724623">
        <ele>284.460201</ele>
        <time>2021-11-15T21:18:44.715Z</time>
      </trkpt>
      <trkpt lat="47.515959" lon="7.725102">
        <ele>285.643152</ele>
        <time>2021-11-15T21:18:58.411Z</time>
      </trkpt>
      <trkpt lat="47.515697" lon="7.725255">
        <ele>286.243031</ele>
        <time>2021-11-15T21:19:05.400Z</time>
      </trkpt>
      <trkpt lat="47.515140" lon="7.725368">
        <ele>287.440491</ele>
        <time>2021-11-15T21:19:20.151Z</time>
      </trkpt>
      <trkpt lat="47.514143" lon="7.725538">
        <ele>288.221916</ele>
        <time>2021-11-15T21:19:39.963Z</time>
      </trkpt>
      <trkpt lat="47.513681" lon="7.725617">
        <ele>288.065101</ele>
        <time>2021-11-15T21:19:45.337Z</time>
      </trkpt>
      <trkpt lat="47.513538" lon="7.725582">
        <ele>288.016229</ele>
        <time>2021-11-15T21:19:47.342Z</time>
      </trkpt>
      <trkpt lat="47.513232" lon="7.725318">
        <ele>287.896811</ele>
        <time>2021-11-15T21:19:51.504Z</time>
      </trkpt>
      <trkpt lat="47.513193" lon="7.725244">
        <ele>287.875435</ele>
        <time>2021-11-15T21:19:52.301Z</time>
      </trkpt>
      <trkpt lat="47.513150" lon="7.725105">
        <ele>287.840616</ele>
        <time>2021-11-15T21:19:53.328Z</time>
      </trkpt>
      <trkpt lat="47.513078" lon="7.724821">
        <ele>287.689954</ele>
        <time>2021-11-15T21:19:57.570Z</time>
      </trkpt>
      <trkpt lat="47.512976" lon="7.724418">
        <ele>287.318656</ele>
        <time>2021-11-15T21:20:00.948Z</time>
      </trkpt>
      <trkpt lat="47.512910" lon="7.724174">
        <ele>287.091891</ele>
        <time>2021-11-15T21:20:03.097Z</time>
      </trkpt>
      <trkpt lat="47.512888" lon="7.724074">
        <ele>287.001154</ele>
        <time>2021-11-15T21:20:03.835Z</time>
      </trkpt>
      <trkpt lat="47.512857" lon="7.723931">
        <ele>286.871582</ele>
        <time>2021-11-15T21:20:05.016Z</time>
      </trkpt>
      <trkpt lat="47.512277" lon="7.724501">
        <ele>285.982360</ele>
        <time>2021-11-15T21:20:15.670Z</time>
      </trkpt>
      <trkpt lat="47.512214" lon="7.724543">
        <ele>285.894105</ele>
        <time>2021-11-15T21:20:17.577Z</time>
      </trkpt>
      <trkpt lat="47.511979" lon="7.724618">
        <ele>285.587033</ele>
        <time>2021-11-15T21:20:21.616Z</time>
      </trkpt>
      <trkpt lat="47.511791" lon="7.724622">
        <ele>285.491498</ele>
        <time>2021-11-15T21:20:25.382Z</time>
      </trkpt>
      <trkpt lat="47.511606" lon="7.724590">
        <ele>285.473556</ele>
        <time>2021-11-15T21:20:29.358Z</time>
      </trkpt>
      <trkpt lat="47.510952" lon="7.724263">
        <ele>285.407061</ele>
        <time>2021-11-15T21:20:45.215Z</time>
      </trkpt>
      <trkpt lat="47.510349" lon="7.724011">
        <ele>285.346705</ele>
        <time>2021-11-15T21:20:56.747Z</time>
      </trkpt>
      <trkpt lat="47.509849" lon="7.723882">
        <ele>285.522259</ele>
        <time>2021-11-15T21:21:06.385Z</time>
      </trkpt>
      <trkpt lat="47.509672" lon="7.723906">
        <ele>285.624411</ele>
        <time>2021-11-15T21:21:09.966Z</time>
      </trkpt>
      <trkpt lat="47.509150" lon="7.724070">
        <ele>285.931097</ele>
        <time>2021-11-15T21:21:19.206Z</time>
      </trkpt>
      <trkpt lat="47.508823" lon="7.724215">
        <ele>286.127281</ele>
        <time>2021-11-15T21:21:25.629Z</time>
      </trkpt>
      <trkpt lat="47.508629" lon="7.724301">
        <ele>286.243668</ele>
        <time>2021-11-15T21:21:29.416Z</time>
      </trkpt>
      <trkpt lat="47.508425" lon="7.724317">
        <ele>286.361076</ele>
        <time>2021-11-15T21:21:34.760Z</time>
      </trkpt>
      <trkpt lat="47.508175" lon="7.724311">
        <ele>286.777569</ele>
        <time>2021-11-15T21:21:41.050Z</time>
      </trkpt>
      <trkpt lat="47.507810" lon="7.724326">
        <ele>287.393369</ele>
        <time>2021-11-15T21:21:50.574Z</time>
      </trkpt>
      <trkpt lat="47.507444" lon="7.724343">
        <ele>288.010922</ele>
        <time>2021-11-15T21:22:00.234Z</time>
      </trkpt>
      <trkpt lat="47.507064" lon="7.724278">
        <ele>288.656046</ele>
        <time>2021-11-15T21:22:10.742Z</time>
      </trkpt>
      <trkpt lat="47.506945" lon="7.724261">
        <ele>288.857669</ele>
        <time>2021-11-15T21:22:14.130Z</time>
      </trkpt>
      <trkpt lat="47.506921" lon="7.724257">
        <ele>288.898400</ele>
        <time>2021-11-15T21:22:14.800Z</time>
      </trkpt>
      <trkpt lat="47.506607" lon="7.724268">
        <ele>289.436396</ele>
        <time>2021-11-15T21:22:23.585Z</time>
      </trkpt>
      <trkpt lat="47.506453" lon="7.724284">
        <ele>289.766460</ele>
        <time>2021-11-15T21:22:28.285Z</time>
      </trkpt>
      <trkpt lat="47.505930" lon="7.724337">
        <ele>290.887257</ele>
        <time>2021-11-15T21:22:44.120Z</time>
      </trkpt>
      <trkpt lat="47.505891" lon="7.724339">
        <ele>290.970689</ele>
        <time>2021-11-15T21:22:45.304Z</time>
      </trkpt>
      <trkpt lat="47.505851" lon="7.724341">
        <ele>291.056259</ele>
        <time>2021-11-15T21:22:46.517Z</time>
      </trkpt>
      <trkpt lat="47.505783" lon="7.724344">
        <ele>291.201708</ele>
        <time>2021-11-15T21:22:48.464Z</time>
      </trkpt>
      <trkpt lat="47.505646" lon="7.724350">
        <ele>291.494744</ele>
        <time>2021-11-15T21:22:52.784Z</time>
      </trkpt>
      <trkpt lat="47.505365" lon="7.724317">
        <ele>292.097413</ele>
        <time>2021-11-15T21:23:01.266Z</time>
      </trkpt>
      <trkpt lat="47.505161" lon="7.724267">
        <ele>292.539505</ele>
        <time>2021-11-15T21:23:06.812Z</time>
      </trkpt>
      <trkpt lat="47.505073" lon="7.724246">
        <ele>292.730079</ele>
        <time>2021-11-15T21:23:09.235Z</time>
      </trkpt>
      <trkpt lat="47.505012" lon="7.724231">
        <ele>292.862284</ele>
        <time>2021-11-15T21:23:11.424Z</time>
      </trkpt>
      <trkpt lat="47.504856" lon="7.724220">
        <ele>293.196192</ele>
        <time>2021-11-15T21:23:15.508Z</time>
      </trkpt>
      <trkpt lat="47.504610" lon="7.724250">
        <ele>293.328312</ele>
        <time>2021-11-15T21:23:22.204Z</time>
      </trkpt>
      <trkpt lat="47.504514" lon="7.724269">
        <ele>293.365173</ele>
        <time>2021-11-15T21:23:24.429Z</time>
      </trkpt>
      <trkpt lat="47.504396" lon="7.724291">
        <ele>293.410436</ele>
        <time>2021-11-15T21:23:27.052Z</time>
      </trkpt>
      <trkpt lat="47.504048" lon="7.724357">
        <ele>293.543961</ele>
        <time>2021-11-15T21:23:35.093Z</time>
      </trkpt>
      <trkpt lat="47.503945" lon="7.724377">
        <ele>293.583496</ele>
        <time>2021-11-15T21:23:37.670Z</time>
      </trkpt>
      <trkpt lat="47.503494" lon="7.724462">
        <ele>293.756523</ele>
        <time>2021-11-15T21:23:47.090Z</time>
      </trkpt>
      <trkpt lat="47.503457" lon="7.724469">
        <ele>293.770719</ele>
        <time>2021-11-15T21:23:47.742Z</time>
      </trkpt>
      <trkpt lat="47.503561" lon="7.725596">
        <ele>293.872158</ele>
        <time>2021-11-15T21:25:10.825Z</time>
      </trkpt>
      <trkpt lat="47.502619" lon="7.725752">
        <ele>293.726236</ele>
        <time>2021-11-15T21:26:52.859Z</time>
      </trkpt>
      <trkpt lat="47.502648" lon="7.726280">
        <ele>293.671143</ele>
        <time>2021-11-15T21:27:17.750Z</time>
      </trkpt>
      <trkpt lat="47.502625" lon="7.726282">
        <ele>293.667596</ele>
        <time>2021-11-15T21:27:19.322Z</time>
      </trkpt>
      <trkpt lat="47.502192" lon="7.726362">
        <ele>294.273161</ele>
        <time>2021-11-15T21:27:49.665Z</time>
      </trkpt>
      <trkpt lat="47.502073" lon="7.726377">
        <ele>294.502884</ele>
        <time>2021-11-15T21:27:57.960Z</time>
      </trkpt>
      <trkpt lat="47.502192" lon="7.726362">
        <ele>294.732607</ele>
        <time>2021-11-15T21:28:06.253Z</time>
      </trkpt>
      <trkpt lat="47.502625" lon="7.726282">
        <ele>295.571938</ele>
        <time>2021-11-15T21:28:36.597Z</time>
      </trkpt>
      <trkpt lat="47.502648" lon="7.726280">
        <ele>295.616254</ele>
        <time>2021-11-15T21:28:38.169Z</time>
      </trkpt>
      <trkpt lat="47.502679" lon="7.726592">
        <ele>296.026035</ele>
        <time>2021-11-15T21:28:52.984Z</time>
      </trkpt>
      <trkpt lat="47.502702" lon="7.726704">
        <ele>296.178146</ele>
        <time>2021-11-15T21:28:58.461Z</time>
      </trkpt>
      <trkpt lat="47.502799" lon="7.726911">
        <ele>296.505501</ele>
        <time>2021-11-15T21:29:10.317Z</time>
      </trkpt>
      <trkpt lat="47.502785" lon="7.727007">
        <ele>296.633118</ele>
        <time>2021-11-15T21:29:14.948Z</time>
      </trkpt>
      <trkpt lat="47.502557" lon="7.726941">
        <ele>297.079979</ele>
        <time>2021-11-15T21:29:19.219Z</time>
      </trkpt>
      <trkpt lat="47.502370" lon="7.726942">
        <ele>297.346428</ele>
        <time>2021-11-15T21:29:24.696Z</time>
      </trkpt>
      <trkpt lat="47.502204" lon="7.726964">
        <ele>297.576351</ele>
        <time>2021-11-15T21:29:27.584Z</time>
      </trkpt>
      <trkpt lat="47.502089" lon="7.726997">
        <ele>297.737953</ele>
        <time>2021-11-15T21:29:31.141Z</time>
      </trkpt>
      <trkpt lat="47.502070" lon="7.727002">
        <ele>297.764575</ele>
        <time>2021-11-15T21:29:31.851Z</time>
      </trkpt>
      <trkpt lat="47.501683" lon="7.727114">
        <ele>298.308572</ele>
        <time>2021-11-15T21:29:41.235Z</time>
      </trkpt>
      <trkpt lat="47.500808" lon="7.727366">
        <ele>299.538318</ele>
        <time>2021-11-15T21:29:56.603Z</time>
      </trkpt>
      <trkpt lat="47.499222" lon="7.727694">
        <ele>300.279507</ele>
        <time>2021-11-15T21:30:22.980Z</time>
      </trkpt>
      <trkpt lat="47.498171" lon="7.727736">
        <ele>300.829734</ele>
        <time>2021-11-15T21:30:40.031Z</time>
      </trkpt>
      <trkpt lat="47.496689" lon="7.727441">
        <ele>301.691788</ele>
        <time>2021-11-15T21:31:06.382Z</time>
      </trkpt>
      <trkpt lat="47.496367" lon="7.727420">
        <ele>301.895638</ele>
        <time>2021-11-15T21:31:12.246Z</time>
      </trkpt>
      <trkpt lat="47.496162" lon="7.727414">
        <ele>302.025318</ele>
        <time>2021-11-15T21:31:15.946Z</time>
      </trkpt>
      <trkpt lat="47.496039" lon="7.727411">
        <ele>302.103121</ele>
        <time>2021-11-15T21:31:18.075Z</time>
      </trkpt>
      <trkpt lat="47.495921" lon="7.727411">
        <ele>302.177752</ele>
        <time>2021-11-15T21:31:20.043Z</time>
      </trkpt>
      <trkpt lat="47.495777" lon="7.727410">
        <ele>302.268827</ele>
        <time>2021-11-15T21:31:22.626Z</time>
      </trkpt>
      <trkpt lat="47.495736" lon="7.727409">
        <ele>302.294762</ele>
        <time>2021-11-15T21:31:23.316Z</time>
      </trkpt>
      <trkpt lat="47.495388" lon="7.727405">
        <ele>302.510895</ele>
        <time>2021-11-15T21:31:29.186Z</time>
      </trkpt>
      <trkpt lat="47.493928" lon="7.727382">
        <ele>303.053279</ele>
        <time>2021-11-15T21:31:52.047Z</time>
      </trkpt>
      <trkpt lat="47.493736" lon="7.727441">
        <ele>303.126123</ele>
        <time>2021-11-15T21:31:55.379Z</time>
      </trkpt>
      <trkpt lat="47.493304" lon="7.727627">
        <ele>303.489049</ele>
        <time>2021-11-15T21:32:03.219Z</time>
      </trkpt>
      <trkpt lat="47.493051" lon="7.727844">
        <ele>303.775120</ele>
        <time>2021-11-15T21:32:08.741Z</time>
      </trkpt>
      <trkpt lat="47.492640" lon="7.728394">
        <ele>304.317198</ele>
        <time>2021-11-15T21:32:19.233Z</time>
      </trkpt>
      <trkpt lat="47.492253" lon="7.728955">
        <ele>304.847160</ele>
        <time>2021-11-15T21:32:29.760Z</time>
      </trkpt>
      <trkpt lat="47.492160" lon="7.729079">
        <ele>304.978739</ele>
        <time>2021-11-15T21:32:32.083Z</time>
      </trkpt>
      <trkpt lat="47.492018" lon="7.729265">
        <ele>305.210468</ele>
        <time>2021-11-15T21:32:36.067Z</time>
      </trkpt>
      <trkpt lat="47.491764" lon="7.729620">
        <ele>305.637395</ele>
        <time>2021-11-15T21:32:42.825Z</time>
      </trkpt>
      <trkpt lat="47.491749" lon="7.729641">
        <ele>305.662627</ele>
        <time>2021-11-15T21:32:43.587Z</time>
      </trkpt>
      <trkpt lat="47.491352" lon="7.730195">
        <ele>306.329423</ele>
        <time>2021-11-15T21:32:54.157Z</time>
      </trkpt>
      <trkpt lat="47.491274" lon="7.730304">
        <ele>306.460518</ele>
        <time>2021-11-15T21:32:56.427Z</time>
      </trkpt>
      <trkpt lat="47.491229" lon="7.730369">
        <ele>306.537360</ele>
        <time>2021-11-15T21:32:57.553Z</time>
      </trkpt>
      <trkpt lat="47.491189" lon="7.730425">
        <ele>306.604646</ele>
        <time>2021-11-15T21:32:58.584Z</time>
      </trkpt>
      <trkpt lat="47.491123" lon="7.730521">
        <ele>306.717732</ele>
        <time>2021-11-15T21:33:00.251Z</time>
      </trkpt>
      <trkpt lat="47.489972" lon="7.732312">
        <ele>309.094068</ele>
        <time>2021-11-15T21:33:33.616Z</time>
      </trkpt>
      <trkpt lat="47.489918" lon="7.732395">
        <ele>309.208813</ele>
        <time>2021-11-15T21:33:35.617Z</time>
      </trkpt>
      <trkpt lat="47.489032" lon="7.734791">
        <ele>312.407773</ele>
        <time>2021-11-15T21:34:17.168Z</time>
      </trkpt>
      <trkpt lat="47.488949" lon="7.734979">
        <ele>312.681304</ele>
        <time>2021-11-15T21:34:20.596Z</time>
      </trkpt>
      <trkpt lat="47.488804" lon="7.735382">
        <ele>313.071542</ele>
        <time>2021-11-15T21:34:26.953Z</time>
      </trkpt>
      <trkpt lat="47.488606" lon="7.735964">
        <ele>313.248467</ele>
        <time>2021-11-15T21:34:35.852Z</time>
      </trkpt>
      <trkpt lat="47.488046" lon="7.737266">
        <ele>313.667532</ele>
        <time>2021-11-15T21:34:51.809Z</time>
      </trkpt>
      <trkpt lat="47.487864" lon="7.737500">
        <ele>313.755365</ele>
        <time>2021-11-15T21:34:54.757Z</time>
      </trkpt>
      <trkpt lat="47.487621" lon="7.737779">
        <ele>313.815872</ele>
        <time>2021-11-15T21:34:58.751Z</time>
      </trkpt>
      <trkpt lat="47.487552" lon="7.737858">
        <ele>313.833036</ele>
        <time>2021-11-15T21:34:59.706Z</time>
      </trkpt>
      <trkpt lat="47.487288" lon="7.738117">
        <ele>313.895350</ele>
        <time>2021-11-15T21:35:04.183Z</time>
      </trkpt>
      <trkpt lat="47.486827" lon="7.738319">
        <ele>313.989937</ele>
        <time>2021-11-15T21:35:12.089Z</time>
      </trkpt>
      <trkpt lat="47.486689" lon="7.738358">
        <ele>314.017577</ele>
        <time>2021-11-15T21:35:14.988Z</time>
      </trkpt>
      <trkpt lat="47.486676" lon="7.738293">
        <ele>314.026589</ele>
        <time>2021-11-15T21:35:15.993Z</time>
      </trkpt>
      <trkpt lat="47.486621" lon="7.738169">
        <ele>314.046308</ele>
        <time>2021-11-15T21:35:17.191Z</time>
      </trkpt>
      <trkpt lat="47.486495" lon="7.737981">
        <ele>314.081509</ele>
        <time>2021-11-15T21:35:21.068Z</time>
      </trkpt>
      <trkpt lat="47.486384" lon="7.737805">
        <ele>314.156683</ele>
        <time>2021-11-15T21:35:23.436Z</time>
      </trkpt>
      <trkpt lat="47.486354" lon="7.737753">
        <ele>314.196021</ele>
        <time>2021-11-15T21:35:24.100Z</time>
      </trkpt>
      <trkpt lat="47.486314" lon="7.737686">
        <ele>314.247459</ele>
        <time>2021-11-15T21:35:25.544Z</time>
      </trkpt>
      <trkpt lat="47.486287" lon="7.737642">
        <ele>314.281655</ele>
        <time>2021-11-15T21:35:26.705Z</time>
      </trkpt>
      <trkpt lat="47.486087" lon="7.737329">
        <ele>314.529499</ele>
        <time>2021-11-15T21:35:32.066Z</time>
      </trkpt>
      <trkpt lat="47.485976" lon="7.737217">
        <ele>314.643885</ele>
        <time>2021-11-15T21:35:34.641Z</time>
      </trkpt>
      <trkpt lat="47.485875" lon="7.737156">
        <ele>314.736764</ele>
        <time>2021-11-15T21:35:36.717Z</time>
      </trkpt>
      <trkpt lat="47.485806" lon="7.737111">
        <ele>314.800963</ele>
        <time>2021-11-15T21:35:37.715Z</time>
      </trkpt>
      <trkpt lat="47.485750" lon="7.737070">
        <ele>314.854159</ele>
        <time>2021-11-15T21:35:39.070Z</time>
      </trkpt>
      <trkpt lat="47.485696" lon="7.737158">
        <ele>314.922550</ele>
        <time>2021-11-15T21:35:40.548Z</time>
      </trkpt>
      <trkpt lat="47.485631" lon="7.737265">
        <ele>315.005332</ele>
        <time>2021-11-15T21:35:42.354Z</time>
      </trkpt>
      <trkpt lat="47.485420" lon="7.737618">
        <ele>315.276485</ele>
        <time>2021-11-15T21:35:48.515Z</time>
      </trkpt>
      <trkpt lat="47.485384" lon="7.737678">
        <ele>315.322650</ele>
        <time>2021-11-15T21:35:49.589Z</time>
      </trkpt>
      <trkpt lat="47.485202" lon="7.737978">
        <ele>315.554610</ele>
        <time>2021-11-15T21:35:54.581Z</time>
      </trkpt>
      <trkpt lat="47.485121" lon="7.738124">
        <ele>315.635915</ele>
        <time>2021-11-15T21:35:56.929Z</time>
      </trkpt>
      <trkpt lat="47.485088" lon="7.738190">
        <ele>315.641922</ele>
        <time>2021-11-15T21:35:57.630Z</time>
      </trkpt>
      <trkpt lat="47.485067" lon="7.738278">
        <ele>315.648750</ele>
        <time>2021-11-15T21:35:58.881Z</time>
      </trkpt>
      <trkpt lat="47.485045" lon="7.738427">
        <ele>315.659908</ele>
        <time>2021-11-15T21:36:00.488Z</time>
      </trkpt>
      <trkpt lat="47.485032" lon="7.738535">
        <ele>315.667935</ele>
        <time>2021-11-15T21:36:01.976Z</time>
      </trkpt>
      <trkpt lat="47.485014" lon="7.738715">
        <ele>315.681248</ele>
        <time>2021-11-15T21:36:03.683Z</time>
      </trkpt>
      <trkpt lat="47.484997" lon="7.738871">
        <ele>315.692809</ele>
        <time>2021-11-15T21:36:05.316Z</time>
      </trkpt>
      <trkpt lat="47.484807" lon="7.739866">
        <ele>315.768459</ele>
        <time>2021-11-15T21:36:14.687Z</time>
      </trkpt>
      <trkpt lat="47.484365" lon="7.740878">
        <ele>315.990488</ele>
        <time>2021-11-15T21:36:27.026Z</time>
      </trkpt>
      <trkpt lat="47.484268" lon="7.741010">
        <ele>316.068504</ele>
        <time>2021-11-15T21:36:29.577Z</time>
      </trkpt>
      <trkpt lat="47.484154" lon="7.741142">
        <ele>316.154199</ele>
        <time>2021-11-15T21:36:32.326Z</time>
      </trkpt>
      <trkpt lat="47.483946" lon="7.741362">
        <ele>316.305558</ele>
        <time>2021-11-15T21:36:36.910Z</time>
      </trkpt>
      <trkpt lat="47.483828" lon="7.741475">
        <ele>316.388768</ele>
        <time>2021-11-15T21:36:39.484Z</time>
      </trkpt>
      <trkpt lat="47.483275" lon="7.742050">
        <ele>316.788891</ele>
        <time>2021-11-15T21:36:50.979Z</time>
      </trkpt>
      <trkpt lat="47.482927" lon="7.742421">
        <ele>317.174483</ele>
        <time>2021-11-15T21:36:58.936Z</time>
      </trkpt>
      <trkpt lat="47.482889" lon="7.742461">
        <ele>317.226111</ele>
        <time>2021-11-15T21:36:59.635Z</time>
      </trkpt>
      <trkpt lat="47.482599" lon="7.742771">
        <ele>317.622175</ele>
        <time>2021-11-15T21:37:06.247Z</time>
      </trkpt>
      <trkpt lat="47.482456" lon="7.742926">
        <ele>317.818416</ele>
        <time>2021-11-15T21:37:09.466Z</time>
      </trkpt>
      <trkpt lat="47.482182" lon="7.743222">
        <ele>318.193994</ele>
        <time>2021-11-15T21:37:15.951Z</time>
      </trkpt>
      <trkpt lat="47.481963" lon="7.742814">
        <ele>318.583819</ele>
        <time>2021-11-15T21:37:22.938Z</time>
      </trkpt>
      <trkpt lat="47.481898" lon="7.742719">
        <ele>318.684964</ele>
        <time>2021-11-15T21:37:25.027Z</time>
      </trkpt>
      <trkpt lat="47.481698" lon="7.742446">
        <ele>319.042801</ele>
        <time>2021-11-15T21:37:30.522Z</time>
      </trkpt>
      <trkpt lat="47.481605" lon="7.742324">
        <ele>319.255635</ele>
        <time>2021-11-15T21:37:33.627Z</time>
      </trkpt>
      <trkpt lat="47.481177" lon="7.741735">
        <ele>320.256556</ele>
        <time>2021-11-15T21:37:46.244Z</time>
      </trkpt>
      <trkpt lat="47.480648" lon="7.741012">
        <ele>321.489753</ele>
        <time>2021-11-15T21:38:02.547Z</time>
      </trkpt>
      <trkpt lat="47.480591" lon="7.740959">
        <ele>321.605036</ele>
        <time>2021-11-15T21:38:04.500Z</time>
      </trkpt>
      <trkpt lat="47.480539" lon="7.740961">
        <ele>321.694113</ele>
        <time>2021-11-15T21:38:05.270Z</time>
      </trkpt>
      <trkpt lat="47.480294" lon="7.741119">
        <ele>322.073681</ele>
        <time>2021-11-15T21:38:10.794Z</time>
      </trkpt>
      <trkpt lat="47.480104" lon="7.741241">
        <ele>322.281809</ele>
        <time>2021-11-15T21:38:14.776Z</time>
      </trkpt>
      <trkpt lat="47.479963" lon="7.741350">
        <ele>322.441667</ele>
        <time>2021-11-15T21:38:18.035Z</time>
      </trkpt>
      <trkpt lat="47.479843" lon="7.741440">
        <ele>322.576857</ele>
        <time>2021-11-15T21:38:20.477Z</time>
      </trkpt>
      <trkpt lat="47.479629" lon="7.741696">
        <ele>322.853389</ele>
        <time>2021-11-15T21:38:25.744Z</time>
      </trkpt>
      <trkpt lat="47.479130" lon="7.742380">
        <ele>323.536925</ele>
        <time>2021-11-15T21:38:36.986Z</time>
      </trkpt>
      <trkpt lat="47.479105" lon="7.742414">
        <ele>323.571047</ele>
        <time>2021-11-15T21:38:37.664Z</time>
      </trkpt>
      <trkpt lat="47.478949" lon="7.742644">
        <ele>323.795904</ele>
        <time>2021-11-15T21:38:41.702Z</time>
      </trkpt>
      <trkpt lat="47.478895" lon="7.742714">
        <ele>323.879619</ele>
        <time>2021-11-15T21:38:42.994Z</time>
      </trkpt>
      <trkpt lat="47.478848" lon="7.742778">
        <ele>323.954102</ele>
        <time>2021-11-15T21:38:44.209Z</time>
      </trkpt>
      <trkpt lat="47.478747" lon="7.742916">
        <ele>324.114410</ele>
        <time>2021-11-15T21:38:46.906Z</time>
      </trkpt>
      <trkpt lat="47.478673" lon="7.743018">
        <ele>324.232342</ele>
        <time>2021-11-15T21:38:49.068Z</time>
      </trkpt>
      <trkpt lat="47.478481" lon="7.743277">
        <ele>324.535309</ele>
        <time>2021-11-15T21:38:54.330Z</time>
      </trkpt>
      <trkpt lat="47.478402" lon="7.743393">
        <ele>324.665092</ele>
        <time>2021-11-15T21:38:56.777Z</time>
      </trkpt>
      <trkpt lat="47.478238" lon="7.743706">
        <ele>324.977216</ele>
        <time>2021-11-15T21:39:02.354Z</time>
      </trkpt>
      <trkpt lat="47.478130" lon="7.743970">
        <ele>325.220422</ele>
        <time>2021-11-15T21:39:06.504Z</time>
      </trkpt>
      <trkpt lat="47.478089" lon="7.744093">
        <ele>325.328508</ele>
        <time>2021-11-15T21:39:08.433Z</time>
      </trkpt>
      <trkpt lat="47.478062" lon="7.744180">
        <ele>325.403957</ele>
        <time>2021-11-15T21:39:09.566Z</time>
      </trkpt>
      <trkpt lat="47.478021" lon="7.744260">
        <ele>325.483082</ele>
        <time>2021-11-15T21:39:10.912Z</time>
      </trkpt>
      <trkpt lat="47.477976" lon="7.744460">
        <ele>325.649210</ele>
        <time>2021-11-15T21:39:13.394Z</time>
      </trkpt>
      <trkpt lat="47.477881" lon="7.744927">
        <ele>326.050296</ele>
        <time>2021-11-15T21:39:19.501Z</time>
      </trkpt>
      <trkpt lat="47.477870" lon="7.744978">
        <ele>326.096736</ele>
        <time>2021-11-15T21:39:20.133Z</time>
      </trkpt>
      <trkpt lat="47.477849" lon="7.745070">
        <ele>326.180975</ele>
        <time>2021-11-15T21:39:21.230Z</time>
      </trkpt>
      <trkpt lat="47.477828" lon="7.745168">
        <ele>326.270160</ele>
        <time>2021-11-15T21:39:22.732Z</time>
      </trkpt>
      <trkpt lat="47.477754" lon="7.745547">
        <ele>326.612386</ele>
        <time>2021-11-15T21:39:27.659Z</time>
      </trkpt>
      <trkpt lat="47.477739" lon="7.745618">
        <ele>326.676918</ele>
        <time>2021-11-15T21:39:28.729Z</time>
      </trkpt>
      <trkpt lat="47.477786" lon="7.745592">
        <ele>326.741322</ele>
        <time>2021-11-15T21:39:29.791Z</time>
      </trkpt>
      <trkpt lat="47.477825" lon="7.745563">
        <ele>326.797345</ele>
        <time>2021-11-15T21:39:30.645Z</time>
      </trkpt>
      <trkpt lat="47.477880" lon="7.745253">
        <ele>327.075380</ele>
        <time>2021-11-15T21:39:34.559Z</time>
      </trkpt>
      <trkpt lat="47.477896" lon="7.745170">
        <ele>327.150254</ele>
        <time>2021-11-15T21:39:36.404Z</time>
      </trkpt>
      <trkpt lat="47.477909" lon="7.745102">
        <ele>327.211558</ele>
        <time>2021-11-15T21:39:37.482Z</time>
      </trkpt>
      <trkpt lat="47.477938" lon="7.744932">
        <ele>327.363657</ele>
        <time>2021-11-15T21:39:39.641Z</time>
      </trkpt>
      <trkpt lat="47.478002" lon="7.744565">
        <ele>327.692455</ele>
        <time>2021-11-15T21:39:44.941Z</time>
      </trkpt>
      <trkpt lat="47.478055" lon="7.744302">
        <ele>327.930531</ele>
        <time>2021-11-15T21:39:48.090Z</time>
      </trkpt>
      <trkpt lat="47.478062" lon="7.744180">
        <ele>328.036746</ele>
        <time>2021-11-15T21:39:49.626Z</time>
      </trkpt>
      <trkpt lat="47.478021" lon="7.744260">
        <ele>328.123842</ele>
        <time>2021-11-15T21:39:51.554Z</time>
      </trkpt>
      <trkpt lat="47.477976" lon="7.744460">
        <ele>328.432232</ele>
        <time>2021-11-15T21:39:54.547Z</time>
      </trkpt>
      <trkpt lat="47.477881" lon="7.744927">
        <ele>329.261928</ele>
        <time>2021-11-15T21:40:01.905Z</time>
      </trkpt>
      <trkpt lat="47.477870" lon="7.744978">
        <ele>329.353003</ele>
        <time>2021-11-15T21:40:02.568Z</time>
      </trkpt>
      <trkpt lat="47.477849" lon="7.745070">
        <ele>329.518204</ele>
        <time>2021-11-15T21:40:03.785Z</time>
      </trkpt>
      <trkpt lat="47.477786" lon="7.745056">
        <ele>329.678562</ele>
        <time>2021-11-15T21:40:04.919Z</time>
      </trkpt>
      <trkpt lat="47.477736" lon="7.745053">
        <ele>329.804522</ele>
        <time>2021-11-15T21:40:06.715Z</time>
      </trkpt>
      <trkpt lat="47.476942" lon="7.745085">
        <ele>331.803862</ele>
        <time>2021-11-15T21:40:27.014Z</time>
      </trkpt>
      <trkpt lat="47.476878" lon="7.745112">
        <ele>331.971380</ele>
        <time>2021-11-15T21:40:29.172Z</time>
      </trkpt>
      <trkpt lat="47.476266" lon="7.745001">
        <ele>333.626198</ele>
        <time>2021-11-15T21:40:46.598Z</time>
      </trkpt>
      <trkpt lat="47.476020" lon="7.744951">
        <ele>334.329599</ele>
        <time>2021-11-15T21:40:53.463Z</time>
      </trkpt>
      <trkpt lat="47.475441" lon="7.744847">
        <ele>335.981804</ele>
        <time>2021-11-15T21:41:09.281Z</time>
      </trkpt>
      <trkpt lat="47.475301" lon="7.744824">
        <ele>336.380826</ele>
        <time>2021-11-15T21:41:13.172Z</time>
      </trkpt>
      <trkpt lat="47.475240" lon="7.744800">
        <ele>336.559629</ele>
        <time>2021-11-15T21:41:14.825Z</time>
      </trkpt>
      <trkpt lat="47.475040" lon="7.744695">
        <ele>337.160792</ele>
        <time>2021-11-15T21:41:19.846Z</time>
      </trkpt>
      <trkpt lat="47.474911" lon="7.744614">
        <ele>337.557765</ele>
        <time>2021-11-15T21:41:23.505Z</time>
      </trkpt>
      <trkpt lat="47.474825" lon="7.744552">
        <ele>337.812926</ele>
        <time>2021-11-15T21:41:25.563Z</time>
      </trkpt>
      <trkpt lat="47.474802" lon="7.744534">
        <ele>337.847915</ele>
        <time>2021-11-15T21:41:26.128Z</time>
      </trkpt>
      <trkpt lat="47.474415" lon="7.744233">
        <ele>338.435849</ele>
        <time>2021-11-15T21:41:36.248Z</time>
      </trkpt>
      <trkpt lat="47.473167" lon="7.743264">
        <ele>340.248019</ele>
        <time>2021-11-15T21:42:03.273Z</time>
      </trkpt>
      <trkpt lat="47.473017" lon="7.743146">
        <ele>340.309725</ele>
        <time>2021-11-15T21:42:05.884Z</time>
      </trkpt>
      <trkpt lat="47.472975" lon="7.743113">
        <ele>340.326998</ele>
        <time>2021-11-15T21:42:06.605Z</time>
      </trkpt>
      <trkpt lat="47.472647" lon="7.742849">
        <ele>340.462624</ele>
        <time>2021-11-15T21:42:12.369Z</time>
      </trkpt>
      <trkpt lat="47.472097" lon="7.742408">
        <ele>340.689849</ele>
        <time>2021-11-15T21:42:21.792Z</time>
      </trkpt>
      <trkpt lat="47.470851" lon="7.741453">
        <ele>341.882603</ele>
        <time>2021-11-15T21:42:45.461Z</time>
      </trkpt>
      <trkpt lat="47.470256" lon="7.740990">
        <ele>342.633785</ele>
        <time>2021-11-15T21:42:59.436Z</time>
      </trkpt>
      <trkpt lat="47.467978" lon="7.739203">
        <ele>347.983874</ele>
        <time>2021-11-15T21:44:00.273Z</time>
      </trkpt>
      <trkpt lat="47.467405" lon="7.738857">
        <ele>349.332351</ele>
        <time>2021-11-15T21:44:15.097Z</time>
      </trkpt>
      <trkpt lat="47.467174" lon="7.738757">
        <ele>349.856770</ele>
        <time>2021-11-15T21:44:20.858Z</time>
      </trkpt>
      <trkpt lat="47.467080" lon="7.738726">
        <ele>350.066607</ele>
        <time>2021-11-15T21:44:23.135Z</time>
      </trkpt>
      <trkpt lat="47.466320" lon="7.738600">
        <ele>351.529721</ele>
        <time>2021-11-15T21:44:40.677Z</time>
      </trkpt>
      <trkpt lat="47.466070" lon="7.738615">
        <ele>351.969249</ele>
        <time>2021-11-15T21:44:46.389Z</time>
      </trkpt>
      <trkpt lat="47.466017" lon="7.738617">
        <ele>352.062383</ele>
        <time>2021-11-15T21:44:47.562Z</time>
      </trkpt>
      <trkpt lat="47.465278" lon="7.738667">
        <ele>353.361916</ele>
        <time>2021-11-15T21:45:03.269Z</time>
      </trkpt>
      <trkpt lat="47.465111" lon="7.738724">
        <ele>353.662988</ele>
        <time>2021-11-15T21:45:06.823Z</time>
      </trkpt>
      <trkpt lat="47.464818" lon="7.738771">
        <ele>354.108505</ele>
        <time>2021-11-15T21:45:12.802Z</time>
      </trkpt>
      <trkpt lat="47.464525" lon="7.738789">
        <ele>354.513199</ele>
        <time>2021-11-15T21:45:18.844Z</time>
      </trkpt>
      <trkpt lat="47.464246" lon="7.738800">
        <ele>354.898362</ele>
        <time>2021-11-15T21:45:24.474Z</time>
      </trkpt>
      <trkpt lat="47.462754" lon="7.738927">
        <ele>356.891856</ele>
        <time>2021-11-15T21:45:54.925Z</time>
      </trkpt>
      <trkpt lat="47.462428" lon="7.738996">
        <ele>357.296985</ele>
        <time>2021-11-15T21:46:00.953Z</time>
      </trkpt>
      <trkpt lat="47.462257" lon="7.739044">
        <ele>357.511103</ele>
        <time>2021-11-15T21:46:03.976Z</time>
      </trkpt>
      <trkpt lat="47.462058" lon="7.739121">
        <ele>357.764149</ele>
        <time>2021-11-15T21:46:08.279Z</time>
      </trkpt>
      <trkpt lat="47.461764" lon="7.739271">
        <ele>358.146738</ele>
        <time>2021-11-15T21:46:14.461Z</time>
      </trkpt>
      <trkpt lat="47.461511" lon="7.739436">
        <ele>358.486890</ele>
        <time>2021-11-15T21:46:19.694Z</time>
      </trkpt>
      <trkpt lat="47.461070" lon="7.739839">
        <ele>359.200365</ele>
        <time>2021-11-15T21:46:30.661Z</time>
      </trkpt>
      <trkpt lat="47.460986" lon="7.739937">
        <ele>359.349001</ele>
        <time>2021-11-15T21:46:32.520Z</time>
      </trkpt>
      <trkpt lat="47.460849" lon="7.740105">
        <ele>359.596245</ele>
        <time>2021-11-15T21:46:36.664Z</time>
      </trkpt>
      <trkpt lat="47.460198" lon="7.741001">
        <ele>360.831695</ele>
        <time>2021-11-15T21:46:54.775Z</time>
      </trkpt>
      <trkpt lat="47.459971" lon="7.741305">
        <ele>361.081482</ele>
        <time>2021-11-15T21:47:00.945Z</time>
      </trkpt>
      <trkpt lat="47.459913" lon="7.741325">
        <ele>361.098001</ele>
        <time>2021-11-15T21:47:01.948Z</time>
      </trkpt>
      <trkpt lat="47.459783" lon="7.741480">
        <ele>361.144316</ele>
        <time>2021-11-15T21:47:05.508Z</time>
      </trkpt>
      <trkpt lat="47.459608" lon="7.741712">
        <ele>361.209500</ele>
        <time>2021-11-15T21:47:09.681Z</time>
      </trkpt>
      <trkpt lat="47.459358" lon="7.742054">
        <ele>361.303955</ele>
        <time>2021-11-15T21:47:15.188Z</time>
      </trkpt>
      <trkpt lat="47.459335" lon="7.742086">
        <ele>361.312713</ele>
        <time>2021-11-15T21:47:15.733Z</time>
      </trkpt>
      <trkpt lat="47.459262" lon="7.742192">
        <ele>361.341088</ele>
        <time>2021-11-15T21:47:17.236Z</time>
      </trkpt>
      <trkpt lat="47.459161" lon="7.742348">
        <ele>361.381593</ele>
        <time>2021-11-15T21:47:19.177Z</time>
      </trkpt>
      <trkpt lat="47.459104" lon="7.742436">
        <ele>361.404447</ele>
        <time>2021-11-15T21:47:20.270Z</time>
      </trkpt>
      <trkpt lat="47.458942" lon="7.742676">
        <ele>361.468045</ele>
        <time>2021-11-15T21:47:23.380Z</time>
      </trkpt>
      <trkpt lat="47.458180" lon="7.743736">
        <ele>361.618368</ele>
        <time>2021-11-15T21:47:37.158Z</time>
      </trkpt>
      <trkpt lat="47.458097" lon="7.743895">
        <ele>361.632273</ele>
        <time>2021-11-15T21:47:38.968Z</time>
      </trkpt>
      <trkpt lat="47.457850" lon="7.744234">
        <ele>361.666774</ele>
        <time>2021-11-15T21:47:43.877Z</time>
      </trkpt>
      <trkpt lat="47.457302" lon="7.744993">
        <ele>362.101207</ele>
        <time>2021-11-15T21:47:57.783Z</time>
      </trkpt>
      <trkpt lat="47.457103" lon="7.745266">
        <ele>362.562254</ele>
        <time>2021-11-15T21:48:03.920Z</time>
      </trkpt>
      <trkpt lat="47.456072" lon="7.746683">
        <ele>364.916901</ele>
        <time>2021-11-15T21:48:36.143Z</time>
      </trkpt>
      <trkpt lat="47.456065" lon="7.746691">
        <ele>364.928868</ele>
        <time>2021-11-15T21:48:36.495Z</time>
      </trkpt>
      <trkpt lat="47.455618" lon="7.747172">
        <ele>365.676663</ele>
        <time>2021-11-15T21:48:47.419Z</time>
      </trkpt>
      <trkpt lat="47.453184" lon="7.748733">
        <ele>369.787950</ele>
        <time>2021-11-15T21:49:39.613Z</time>
      </trkpt>
      <trkpt lat="47.452785" lon="7.748985">
        <ele>370.987943</ele>
        <time>2021-11-15T21:49:50.905Z</time>
      </trkpt>
      <trkpt lat="47.452651" lon="7.749069">
        <ele>371.669181</ele>
        <time>2021-11-15T21:49:55.543Z</time>
      </trkpt>
      <trkpt lat="47.452067" lon="7.749491">
        <ele>374.711592</ele>
        <time>2021-11-15T21:50:16.499Z</time>
      </trkpt>
      <trkpt lat="47.451732" lon="7.749739">
        <ele>376.465132</ele>
        <time>2021-11-15T21:50:30.162Z</time>
      </trkpt>
      <trkpt lat="47.451310" lon="7.750030">
        <ele>378.644585</ele>
        <time>2021-11-15T21:50:49.010Z</time>
      </trkpt>
      <trkpt lat="47.451102" lon="7.750197">
        <ele>379.757031</ele>
        <time>2021-11-15T21:50:58.114Z</time>
      </trkpt>
      <trkpt lat="47.450829" lon="7.750425">
        <ele>381.230886</ele>
        <time>2021-11-15T21:51:09.833Z</time>
      </trkpt>
      <trkpt lat="47.450534" lon="7.750678">
        <ele>382.833978</ele>
        <time>2021-11-15T21:51:22.655Z</time>
      </trkpt>
      <trkpt lat="47.450300" lon="7.750889">
        <ele>384.122348</ele>
        <time>2021-11-15T21:51:32.504Z</time>
      </trkpt>
      <trkpt lat="47.450098" lon="7.751078">
        <ele>385.246030</ele>
        <time>2021-11-15T21:51:40.718Z</time>
      </trkpt>
      <trkpt lat="47.448903" lon="7.752305">
        <ele>388.021494</ele>
        <time>2021-11-15T21:52:15.137Z</time>
      </trkpt>
      <trkpt lat="47.448053" lon="7.753318">
        <ele>387.964560</ele>
        <time>2021-11-15T21:52:28.021Z</time>
      </trkpt>
      <trkpt lat="47.447682" lon="7.753856">
        <ele>386.936397</ele>
        <time>2021-11-15T21:52:33.655Z</time>
      </trkpt>
      <trkpt lat="47.446908" lon="7.755161">
        <ele>384.891025</ele>
        <time>2021-11-15T21:52:46.248Z</time>
      </trkpt>
      <trkpt lat="47.446380" lon="7.755845">
        <ele>384.309673</ele>
        <time>2021-11-15T21:52:54.349Z</time>
      </trkpt>
      <trkpt lat="47.446148" lon="7.756104">
        <ele>384.068926</ele>
        <time>2021-11-15T21:52:58.001Z</time>
      </trkpt>
      <trkpt lat="47.445858" lon="7.756435">
        <ele>383.765528</ele>
        <time>2021-11-15T21:53:03.211Z</time>
      </trkpt>
      <trkpt lat="47.445278" lon="7.757084">
        <ele>384.688677</ele>
        <time>2021-11-15T21:53:17.400Z</time>
      </trkpt>
      <trkpt lat="47.444843" lon="7.757585">
        <ele>385.822917</ele>
        <time>2021-11-15T21:53:30.497Z</time>
      </trkpt>
      <trkpt lat="47.444749" lon="7.757695">
        <ele>386.069511</ele>
        <time>2021-11-15T21:53:33.519Z</time>
      </trkpt>
      <trkpt lat="47.444198" lon="7.758252">
        <ele>387.559848</ele>
        <time>2021-11-15T21:53:50.742Z</time>
      </trkpt>
      <trkpt lat="47.443856" lon="7.758691">
        <ele>389.263628</ele>
        <time>2021-11-15T21:54:03.840Z</time>
      </trkpt>
      <trkpt lat="47.443560" lon="7.758889">
        <ele>390.485825</ele>
        <time>2021-11-15T21:54:13.609Z</time>
      </trkpt>
      <trkpt lat="47.443134" lon="7.759475">
        <ele>392.674727</ele>
        <time>2021-11-15T21:54:31.167Z</time>
      </trkpt>
      <trkpt lat="47.442943" lon="7.759844">
        <ele>393.856986</ele>
        <time>2021-11-15T21:54:41.172Z</time>
      </trkpt>
      <trkpt lat="47.443002" lon="7.759874">
        <ele>394.097427</ele>
        <time>2021-11-15T21:54:42.833Z</time>
      </trkpt>
      <trkpt lat="47.443041" lon="7.759900">
        <ele>394.296331</ele>
        <time>2021-11-15T21:54:44.025Z</time>
      </trkpt>
      <trkpt lat="47.443200" lon="7.760059">
        <ele>395.188775</ele>
        <time>2021-11-15T21:54:50.479Z</time>
      </trkpt>
      <trkpt lat="47.443255" lon="7.760116">
        <ele>395.501048</ele>
        <time>2021-11-15T21:54:52.595Z</time>
      </trkpt>
      <trkpt lat="47.443178" lon="7.760281">
        <ele>396.131409</ele>
        <time>2021-11-15T21:54:57.041Z</time>
      </trkpt>
      <trkpt lat="47.443112" lon="7.760477">
        <ele>396.819888</ele>
        <time>2021-11-15T21:55:02.885Z</time>
      </trkpt>
      <trkpt lat="47.443049" lon="7.760704">
        <ele>397.591443</ele>
        <time>2021-11-15T21:55:08.216Z</time>
      </trkpt>
      <trkpt lat="47.442878" lon="7.761382">
        <ele>399.866812</ele>
        <time>2021-11-15T21:55:25.966Z</time>
      </trkpt>
      <trkpt lat="47.442562" lon="7.762024">
        <ele>402.363595</ele>
        <time>2021-11-15T21:55:43.874Z</time>
      </trkpt>
      <trkpt lat="47.442389" lon="7.762334">
        <ele>403.295018</ele>
        <time>2021-11-15T21:55:52.226Z</time>
      </trkpt>
      <trkpt lat="47.442382" lon="7.762437">
        <ele>403.530180</ele>
        <time>2021-11-15T21:55:54.069Z</time>
      </trkpt>
      <trkpt lat="47.441500" lon="7.763896">
        <ele>407.975585</ele>
        <time>2021-11-15T21:56:32.775Z</time>
      </trkpt>
      <trkpt lat="47.441114" lon="7.764541">
        <ele>409.008626</ele>
        <time>2021-11-15T21:56:45.009Z</time>
      </trkpt>
      <trkpt lat="47.440724" lon="7.765190">
        <ele>409.734084</ele>
        <time>2021-11-15T21:56:55.706Z</time>
      </trkpt>
      <trkpt lat="47.440245" lon="7.765985">
        <ele>410.623784</ele>
        <time>2021-11-15T21:57:09.154Z</time>
      </trkpt>
      <trkpt lat="47.439603" lon="7.767042">
        <ele>411.896780</ele>
        <time>2021-11-15T21:57:26.118Z</time>
      </trkpt>
      <trkpt lat="47.439506" lon="7.767200">
        <ele>412.088790</ele>
        <time>2021-11-15T21:57:29.265Z</time>
      </trkpt>
      <trkpt lat="47.438768" lon="7.768399">
        <ele>414.158236</ele>
        <time>2021-11-15T21:57:52.720Z</time>
      </trkpt>
      <trkpt lat="47.437853" lon="7.769608">
        <ele>417.952808</ele>
        <time>2021-11-15T21:58:28.382Z</time>
      </trkpt>
      <trkpt lat="47.437408" lon="7.770018">
        <ele>419.537518</ele>
        <time>2021-11-15T21:58:43.855Z</time>
      </trkpt>
      <trkpt lat="47.437200" lon="7.770210">
        <ele>420.265768</ele>
        <time>2021-11-15T21:58:51.125Z</time>
      </trkpt>
      <trkpt lat="47.436488" lon="7.771047">
        <ele>422.967307</ele>
        <time>2021-11-15T21:59:16.609Z</time>
      </trkpt>
      <trkpt lat="47.436433" lon="7.771112">
        <ele>423.176425</ele>
        <time>2021-11-15T21:59:18.401Z</time>
      </trkpt>
      <trkpt lat="47.435758" lon="7.771905">
        <ele>423.727781</ele>
        <time>2021-11-15T21:59:36.103Z</time>
      </trkpt>
      <trkpt lat="47.434841" lon="7.772600">
        <ele>423.268778</ele>
        <time>2021-11-15T21:59:48.510Z</time>
      </trkpt>
      <trkpt lat="47.434141" lon="7.773072">
        <ele>421.402876</ele>
        <time>2021-11-15T21:59:56.586Z</time>
      </trkpt>
      <trkpt lat="47.434119" lon="7.772984">
        <ele>421.210632</ele>
        <time>2021-11-15T21:59:57.422Z</time>
      </trkpt>
      <trkpt lat="47.433941" lon="7.773088">
        <ele>420.630833</ele>
        <time>2021-11-15T21:59:59.427Z</time>
      </trkpt>
      <trkpt lat="47.433246" lon="7.773363">
        <ele>418.451365</ele>
        <time>2021-11-15T22:00:06.594Z</time>
      </trkpt>
      <trkpt lat="47.432741" lon="7.773429">
        <ele>417.287192</ele>
        <time>2021-11-15T22:00:11.621Z</time>
      </trkpt>
      <trkpt lat="47.432060" lon="7.773355">
        <ele>416.150986</ele>
        <time>2021-11-15T22:00:18.888Z</time>
      </trkpt>
      <trkpt lat="47.431423" lon="7.773118">
        <ele>415.057996</ele>
        <time>2021-11-15T22:00:27.056Z</time>
      </trkpt>
      <trkpt lat="47.431011" lon="7.772908">
        <ele>415.147548</ele>
        <time>2021-11-15T22:00:33.871Z</time>
      </trkpt>
      <trkpt lat="47.430283" lon="7.772555">
        <ele>416.379325</ele>
        <time>2021-11-15T22:00:49.842Z</time>
      </trkpt>
      <trkpt lat="47.429020" lon="7.771862">
        <ele>418.874424</ele>
        <time>2021-11-15T22:01:23.822Z</time>
      </trkpt>
      <trkpt lat="47.428770" lon="7.771707">
        <ele>419.468576</ele>
        <time>2021-11-15T22:01:30.325Z</time>
      </trkpt>
      <trkpt lat="47.428601" lon="7.771642">
        <ele>419.851295</ele>
        <time>2021-11-15T22:01:34.774Z</time>
      </trkpt>
      <trkpt lat="47.427870" lon="7.771359">
        <ele>421.507416</ele>
        <time>2021-11-15T22:01:51.770Z</time>
      </trkpt>
      <trkpt lat="47.427740" lon="7.771340">
        <ele>421.725620</ele>
        <time>2021-11-15T22:01:54.330Z</time>
      </trkpt>
      <trkpt lat="47.427702" lon="7.771335">
        <ele>421.782481</ele>
        <time>2021-11-15T22:01:55.071Z</time>
      </trkpt>
      <trkpt lat="47.427593" lon="7.771328">
        <ele>421.945093</ele>
        <time>2021-11-15T22:01:57.545Z</time>
      </trkpt>
      <trkpt lat="47.427296" lon="7.771252">
        <ele>422.394338</ele>
        <time>2021-11-15T22:02:03.229Z</time>
      </trkpt>
      <trkpt lat="47.427175" lon="7.771179">
        <ele>422.589125</ele>
        <time>2021-11-15T22:02:05.937Z</time>
      </trkpt>
      <trkpt lat="47.427112" lon="7.771125">
        <ele>422.697668</ele>
        <time>2021-11-15T22:02:07.260Z</time>
      </trkpt>
      <trkpt lat="47.426997" lon="7.771000">
        <ele>422.910423</ele>
        <time>2021-11-15T22:02:09.918Z</time>
      </trkpt>
      <trkpt lat="47.426977" lon="7.770973">
        <ele>422.950793</ele>
        <time>2021-11-15T22:02:10.583Z</time>
      </trkpt>
      <trkpt lat="47.426821" lon="7.770734">
        <ele>423.285662</ele>
        <time>2021-11-15T22:02:14.927Z</time>
      </trkpt>
      <trkpt lat="47.426586" lon="7.770441">
        <ele>423.743880</ele>
        <time>2021-11-15T22:02:21.411Z</time>
      </trkpt>
      <trkpt lat="47.426561" lon="7.770421">
        <ele>423.786248</ele>
        <time>2021-11-15T22:02:21.970Z</time>
      </trkpt>
      <trkpt lat="47.426442" lon="7.770325">
        <ele>423.988307</ele>
        <time>2021-11-15T22:02:24.881Z</time>
      </trkpt>
      <trkpt lat="47.426137" lon="7.770135">
        <ele>424.694240</ele>
        <time>2021-11-15T22:02:32.487Z</time>
      </trkpt>
      <trkpt lat="47.425937" lon="7.770017">
        <ele>425.325447</ele>
        <time>2021-11-15T22:02:37.167Z</time>
      </trkpt>
      <trkpt lat="47.425665" lon="7.769858">
        <ele>426.182805</ele>
        <time>2021-11-15T22:02:43.979Z</time>
      </trkpt>
      <trkpt lat="47.425372" lon="7.769666">
        <ele>427.122249</ele>
        <time>2021-11-15T22:02:51.338Z</time>
      </trkpt>
      <trkpt lat="47.425140" lon="7.769501">
        <ele>427.876903</ele>
        <time>2021-11-15T22:02:58.200Z</time>
      </trkpt>
      <trkpt lat="47.424876" lon="7.769315">
        <ele>428.734141</ele>
        <time>2021-11-15T22:03:06.010Z</time>
      </trkpt>
      <trkpt lat="47.424861" lon="7.769306">
        <ele>428.781593</ele>
        <time>2021-11-15T22:03:06.864Z</time>
      </trkpt>
      <trkpt lat="47.424704" lon="7.769209">
        <ele>429.280370</ele>
        <time>2021-11-15T22:03:14.059Z</time>
      </trkpt>
      <trkpt lat="47.424599" lon="7.769145">
        <ele>429.661666</ele>
        <time>2021-11-15T22:03:16.700Z</time>
      </trkpt>
      <trkpt lat="47.424523" lon="7.769284">
        <ele>430.231678</ele>
        <time>2021-11-15T22:03:21.381Z</time>
      </trkpt>
      <trkpt lat="47.424207" lon="7.769688">
        <ele>432.201341</ele>
        <time>2021-11-15T22:03:37.423Z</time>
      </trkpt>
      <trkpt lat="47.424021" lon="7.769926">
        <ele>433.361124</ele>
        <time>2021-11-15T22:03:43.443Z</time>
      </trkpt>
      <trkpt lat="47.423938" lon="7.769994">
        <ele>433.808496</ele>
        <time>2021-11-15T22:03:48.331Z</time>
      </trkpt>
      <trkpt lat="47.423921" lon="7.770007">
        <ele>433.898729</ele>
        <time>2021-11-15T22:03:49.408Z</time>
      </trkpt>
      <trkpt lat="47.423658" lon="7.770256">
        <ele>435.371127</ele>
        <time>2021-11-15T22:03:58.404Z</time>
      </trkpt>
      <trkpt lat="47.423641" lon="7.770276">
        <ele>435.473557</ele>
        <time>2021-11-15T22:03:59.948Z</time>
      </trkpt>
      <trkpt lat="47.423589" lon="7.770342">
        <ele>435.796679</ele>
        <time>2021-11-15T22:04:02.430Z</time>
      </trkpt>
      <trkpt lat="47.423377" lon="7.770427">
        <ele>436.832218</ele>
        <time>2021-11-15T22:04:08.172Z</time>
      </trkpt>
      <trkpt lat="47.423330" lon="7.770415">
        <ele>437.057069</ele>
        <time>2021-11-15T22:04:10.499Z</time>
      </trkpt>
      <trkpt lat="47.423115" lon="7.770334">
        <ele>438.073580</ele>
        <time>2021-11-15T22:04:18.136Z</time>
      </trkpt>
      <trkpt lat="47.422737" lon="7.770283">
        <ele>439.277584</ele>
        <time>2021-11-15T22:04:30.536Z</time>
      </trkpt>
      <trkpt lat="47.422620" lon="7.770267">
        <ele>439.650294</ele>
        <time>2021-11-15T22:04:34.454Z</time>
      </trkpt>
      <trkpt lat="47.422547" lon="7.770298">
        <ele>439.891219</ele>
        <time>2021-11-15T22:04:38.178Z</time>
      </trkpt>
      <trkpt lat="47.422480" lon="7.770363">
        <ele>440.145436</ele>
        <time>2021-11-15T22:04:40.714Z</time>
      </trkpt>
      <trkpt lat="47.422227" lon="7.770645">
        <ele>441.150582</ele>
        <time>2021-11-15T22:04:50.278Z</time>
      </trkpt>
      <trkpt lat="47.422134" lon="7.770697">
        <ele>441.465982</ele>
        <time>2021-11-15T22:04:52.967Z</time>
      </trkpt>
      <trkpt lat="47.421917" lon="7.770778">
        <ele>442.175920</ele>
        <time>2021-11-15T22:04:57.665Z</time>
      </trkpt>
      <trkpt lat="47.421479" lon="7.770970">
        <ele>443.625079</ele>
        <time>2021-11-15T22:05:07.140Z</time>
      </trkpt>
      <trkpt lat="47.420948" lon="7.771461">
        <ele>444.053798</ele>
        <time>2021-11-15T22:05:19.134Z</time>
      </trkpt>
      <trkpt lat="47.420752" lon="7.771639">
        <ele>444.183085</ele>
        <time>2021-11-15T22:05:23.149Z</time>
      </trkpt>
      <trkpt lat="47.420502" lon="7.771823">
        <ele>444.340044</ele>
        <time>2021-11-15T22:05:27.142Z</time>
      </trkpt>
      <trkpt lat="47.420038" lon="7.772054">
        <ele>444.615211</ele>
        <time>2021-11-15T22:05:34.227Z</time>
      </trkpt>
      <trkpt lat="47.419668" lon="7.772445">
        <ele>445.127213</ele>
        <time>2021-11-15T22:05:41.705Z</time>
      </trkpt>
      <trkpt lat="47.419457" lon="7.772722">
        <ele>445.572796</ele>
        <time>2021-11-15T22:05:46.421Z</time>
      </trkpt>
      <trkpt lat="47.419231" lon="7.773074">
        <ele>446.091182</ele>
        <time>2021-11-15T22:05:52.331Z</time>
      </trkpt>
      <trkpt lat="47.419197" lon="7.773144">
        <ele>446.183234</ele>
        <time>2021-11-15T22:05:54.065Z</time>
      </trkpt>
      <trkpt lat="47.419187" lon="7.773164">
        <ele>446.209801</ele>
        <time>2021-11-15T22:05:54.517Z</time>
      </trkpt>
      <trkpt lat="47.419119" lon="7.773306">
        <ele>446.395646</ele>
        <time>2021-11-15T22:05:56.447Z</time>
      </trkpt>
      <trkpt lat="47.419091" lon="7.773374">
        <ele>446.480684</ele>
        <time>2021-11-15T22:05:57.594Z</time>
      </trkpt>
      <trkpt lat="47.419001" lon="7.773564">
        <ele>446.728455</ele>
        <time>2021-11-15T22:06:01.748Z</time>
      </trkpt>
      <trkpt lat="47.418918" lon="7.773736">
        <ele>446.954144</ele>
        <time>2021-11-15T22:06:04.503Z</time>
      </trkpt>
      <trkpt lat="47.418795" lon="7.773989">
        <ele>447.286955</ele>
        <time>2021-11-15T22:06:09.909Z</time>
      </trkpt>
      <trkpt lat="47.418362" lon="7.774660">
        <ele>449.698669</ele>
        <time>2021-11-15T22:06:27.448Z</time>
      </trkpt>
      <trkpt lat="47.418266" lon="7.774789">
        <ele>450.314375</ele>
        <time>2021-11-15T22:06:32.028Z</time>
      </trkpt>
      <trkpt lat="47.418115" lon="7.774939">
        <ele>451.177747</ele>
        <time>2021-11-15T22:06:39.500Z</time>
      </trkpt>
      <trkpt lat="47.417859" lon="7.775235">
        <ele>452.720172</ele>
        <time>2021-11-15T22:06:52.479Z</time>
      </trkpt>
      <trkpt lat="47.417414" lon="7.775292">
        <ele>454.839765</ele>
        <time>2021-11-15T22:07:12.894Z</time>
      </trkpt>
      <trkpt lat="47.417170" lon="7.775339">
        <ele>456.007422</ele>
        <time>2021-11-15T22:07:21.982Z</time>
      </trkpt>
      <trkpt lat="47.417095" lon="7.775341">
        <ele>456.340242</ele>
        <time>2021-11-15T22:07:26.550Z</time>
      </trkpt>
      <trkpt lat="47.416531" lon="7.775374">
        <ele>458.779687</ele>
        <time>2021-11-15T22:07:45.744Z</time>
      </trkpt>
      <trkpt lat="47.415950" lon="7.775644">
        <ele>461.411916</ele>
        <time>2021-11-15T22:08:07.615Z</time>
      </trkpt>
      <trkpt lat="47.415830" lon="7.775752">
        <ele>462.019147</ele>
        <time>2021-11-15T22:08:11.296Z</time>
      </trkpt>
      <trkpt lat="47.415206" lon="7.776746">
        <ele>464.262449</ele>
        <time>2021-11-15T22:08:33.849Z</time>
      </trkpt>
      <trkpt lat="47.414806" lon="7.777866">
        <ele>464.939002</ele>
        <time>2021-11-15T22:08:47.489Z</time>
      </trkpt>
      <trkpt lat="47.414733" lon="7.778030">
        <ele>465.043871</ele>
        <time>2021-11-15T22:08:48.936Z</time>
      </trkpt>
      <trkpt lat="47.414539" lon="7.778426">
        <ele>465.307654</ele>
        <time>2021-11-15T22:08:53.344Z</time>
      </trkpt>
      <trkpt lat="47.414194" lon="7.779208">
        <ele>465.980516</ele>
        <time>2021-11-15T22:09:03.711Z</time>
      </trkpt>
      <trkpt lat="47.413847" lon="7.780178">
        <ele>466.771362</ele>
        <time>2021-11-15T22:09:17.966Z</time>
      </trkpt>
      <trkpt lat="47.413801" lon="7.780338">
        <ele>466.896665</ele>
        <time>2021-11-15T22:09:20.477Z</time>
      </trkpt>
      <trkpt lat="47.413793" lon="7.780381">
        <ele>466.928809</ele>
        <time>2021-11-15T22:09:21.082Z</time>
      </trkpt>
      <trkpt lat="47.413769" lon="7.780518">
        <ele>467.030812</ele>
        <time>2021-11-15T22:09:23.076Z</time>
      </trkpt>
      <trkpt lat="47.413743" lon="7.780665">
        <ele>467.140328</ele>
        <time>2021-11-15T22:09:26.428Z</time>
      </trkpt>
      <trkpt lat="47.413631" lon="7.781411">
        <ele>468.430962</ele>
        <time>2021-11-15T22:09:39.042Z</time>
      </trkpt>
      <trkpt lat="47.413278" lon="7.782611">
        <ele>470.834823</ele>
        <time>2021-11-15T22:10:01.943Z</time>
      </trkpt>
      <trkpt lat="47.413097" lon="7.783444">
        <ele>472.482835</ele>
        <time>2021-11-15T22:10:17.915Z</time>
      </trkpt>
      <trkpt lat="47.412810" lon="7.784555">
        <ele>474.924861</ele>
        <time>2021-11-15T22:10:39.876Z</time>
      </trkpt>
      <trkpt lat="47.412650" lon="7.785562">
        <ele>477.048986</ele>
        <time>2021-11-15T22:10:58.663Z</time>
      </trkpt>
      <trkpt lat="47.412584" lon="7.785944">
        <ele>477.877634</ele>
        <time>2021-11-15T22:11:05.614Z</time>
      </trkpt>
      <trkpt lat="47.412318" lon="7.786627">
        <ele>479.597203</ele>
        <time>2021-11-15T22:11:19.723Z</time>
      </trkpt>
      <trkpt lat="47.411228" lon="7.788785">
        <ele>486.885098</ele>
        <time>2021-11-15T22:12:11.415Z</time>
      </trkpt>
      <trkpt lat="47.411048" lon="7.789140">
        <ele>488.498013</ele>
        <time>2021-11-15T22:12:23.806Z</time>
      </trkpt>
      <trkpt lat="47.411032" lon="7.789237">
        <ele>488.861036</ele>
        <time>2021-11-15T22:12:25.459Z</time>
      </trkpt>
      <trkpt lat="47.411026" lon="7.789475">
        <ele>489.727016</ele>
        <time>2021-11-15T22:12:33.750Z</time>
      </trkpt>
      <trkpt lat="47.411138" lon="7.790215">
        <ele>492.484165</ele>
        <time>2021-11-15T22:12:53.105Z</time>
      </trkpt>
      <trkpt lat="47.411256" lon="7.790603">
        <ele>494.304763</ele>
        <time>2021-11-15T22:13:05.877Z</time>
      </trkpt>
      <trkpt lat="47.411382" lon="7.790776">
        <ele>495.478867</ele>
        <time>2021-11-15T22:13:11.590Z</time>
      </trkpt>
      <trkpt lat="47.411437" lon="7.790833">
        <ele>495.937451</ele>
        <time>2021-11-15T22:13:16.236Z</time>
      </trkpt>
      <trkpt lat="47.411537" lon="7.790899">
        <ele>496.685082</ele>
        <time>2021-11-15T22:13:20.779Z</time>
      </trkpt>
      <trkpt lat="47.411889" lon="7.790879">
        <ele>499.089739</ele>
        <time>2021-11-15T22:13:37.808Z</time>
      </trkpt>
      <trkpt lat="47.411990" lon="7.790873">
        <ele>499.779759</ele>
        <time>2021-11-15T22:13:40.888Z</time>
      </trkpt>
      <trkpt lat="47.412811" lon="7.790495">
        <ele>505.541703</ele>
        <time>2021-11-15T22:14:17.982Z</time>
      </trkpt>
      <trkpt lat="47.413058" lon="7.790541">
        <ele>506.720687</ele>
        <time>2021-11-15T22:14:26.566Z</time>
      </trkpt>
      <trkpt lat="47.413105" lon="7.790579">
        <ele>506.974404</ele>
        <time>2021-11-15T22:14:29.306Z</time>
      </trkpt>
      <trkpt lat="47.413181" lon="7.790657">
        <ele>507.412610</ele>
        <time>2021-11-15T22:14:32.399Z</time>
      </trkpt>
      <trkpt lat="47.413286" lon="7.790823">
        <ele>508.140805</ele>
        <time>2021-11-15T22:14:36.852Z</time>
      </trkpt>
      <trkpt lat="47.413437" lon="7.791275">
        <ele>509.756231</ele>
        <time>2021-11-15T22:14:48.273Z</time>
      </trkpt>
      <trkpt lat="47.413547" lon="7.791735">
        <ele>511.319728</ele>
        <time>2021-11-15T22:14:59.268Z</time>
      </trkpt>
      <trkpt lat="47.413568" lon="7.792136">
        <ele>512.608653</ele>
        <time>2021-11-15T22:15:08.063Z</time>
      </trkpt>
      <trkpt lat="47.413564" lon="7.792225">
        <ele>512.894499</ele>
        <time>2021-11-15T22:15:10.086Z</time>
      </trkpt>
      <trkpt lat="47.413540" lon="7.792402">
        <ele>513.473005</ele>
        <time>2021-11-15T22:15:12.921Z</time>
      </trkpt>
      <trkpt lat="47.413515" lon="7.792523">
        <ele>513.860299</ele>
        <time>2021-11-15T22:15:16.530Z</time>
      </trkpt>
      <trkpt lat="47.413485" lon="7.792636">
        <ele>514.138979</ele>
        <time>2021-11-15T22:15:19.074Z</time>
      </trkpt>
      <trkpt lat="47.413420" lon="7.792802">
        <ele>514.579289</ele>
        <time>2021-11-15T22:15:22.526Z</time>
      </trkpt>
      <trkpt lat="47.413365" lon="7.792918">
        <ele>514.904470</ele>
        <time>2021-11-15T22:15:25.026Z</time>
      </trkpt>
      <trkpt lat="47.412701" lon="7.794289">
        <ele>518.775155</ele>
        <time>2021-11-15T22:15:55.847Z</time>
      </trkpt>
      <trkpt lat="47.412260" lon="7.795076">
        <ele>521.359711</ele>
        <time>2021-11-15T22:16:16.060Z</time>
      </trkpt>
      <trkpt lat="47.412007" lon="7.795487">
        <ele>522.888083</ele>
        <time>2021-11-15T22:16:27.843Z</time>
      </trkpt>
      <trkpt lat="47.411537" lon="7.796200">
        <ele>525.626159</ele>
        <time>2021-11-15T22:16:49.244Z</time>
      </trkpt>
      <trkpt lat="47.411410" lon="7.796392">
        <ele>526.364722</ele>
        <time>2021-11-15T22:16:55.571Z</time>
      </trkpt>
      <trkpt lat="47.410916" lon="7.797164">
        <ele>529.135771</ele>
        <time>2021-11-15T22:17:18.334Z</time>
      </trkpt>
      <trkpt lat="47.410385" lon="7.797825">
        <ele>531.750194</ele>
        <time>2021-11-15T22:17:39.211Z</time>
      </trkpt>
      <trkpt lat="47.408728" lon="7.799465">
        <ele>538.193301</ele>
        <time>2021-11-15T22:18:34.597Z</time>
      </trkpt>
      <trkpt lat="47.408463" lon="7.799926">
        <ele>539.401808</ele>
        <time>2021-11-15T22:18:45.208Z</time>
      </trkpt>
      <trkpt lat="47.408317" lon="7.800385">
        <ele>539.486267</ele>
        <time>2021-11-15T22:18:53.175Z</time>
      </trkpt>
      <trkpt lat="47.408280" lon="7.800616">
        <ele>539.525798</ele>
        <time>2021-11-15T22:18:56.715Z</time>
      </trkpt>
      <trkpt lat="47.408172" lon="7.801411">
        <ele>539.660831</ele>
        <time>2021-11-15T22:19:06.649Z</time>
      </trkpt>
      <trkpt lat="47.408146" lon="7.801623">
        <ele>539.696711</ele>
        <time>2021-11-15T22:19:08.994Z</time>
      </trkpt>
      <trkpt lat="47.408103" lon="7.801947">
        <ele>539.751694</ele>
        <time>2021-11-15T22:19:12.089Z</time>
      </trkpt>
      <trkpt lat="47.408028" lon="7.802281">
        <ele>539.810298</ele>
        <time>2021-11-15T22:19:15.223Z</time>
      </trkpt>
      <trkpt lat="47.407657" lon="7.803708">
        <ele>534.793797</ele>
        <time>2021-11-15T22:19:25.309Z</time>
      </trkpt>
      <trkpt lat="47.407446" lon="7.804146">
        <ele>532.760212</ele>
        <time>2021-11-15T22:19:28.548Z</time>
      </trkpt>
      <trkpt lat="47.407258" lon="7.804357">
        <ele>531.440738</ele>
        <time>2021-11-15T22:19:30.634Z</time>
      </trkpt>
      <trkpt lat="47.407183" lon="7.804416">
        <ele>530.965858</ele>
        <time>2021-11-15T22:19:31.379Z</time>
      </trkpt>
      <trkpt lat="47.407021" lon="7.804529">
        <ele>529.964624</ele>
        <time>2021-11-15T22:19:32.939Z</time>
      </trkpt>
      <trkpt lat="47.406477" lon="7.804891">
        <ele>526.109062</ele>
        <time>2021-11-15T22:19:38.272Z</time>
      </trkpt>
      <trkpt lat="47.406421" lon="7.804933">
        <ele>525.700191</ele>
        <time>2021-11-15T22:19:38.805Z</time>
      </trkpt>
      <trkpt lat="47.406299" lon="7.805005">
        <ele>524.844887</ele>
        <time>2021-11-15T22:19:39.989Z</time>
      </trkpt>
      <trkpt lat="47.405757" lon="7.805193">
        <ele>521.220232</ele>
        <time>2021-11-15T22:19:44.969Z</time>
      </trkpt>
      <trkpt lat="47.404869" lon="7.805211">
        <ele>517.377473</ele>
        <time>2021-11-15T22:19:53.493Z</time>
      </trkpt>
      <trkpt lat="47.404508" lon="7.805040">
        <ele>516.721218</ele>
        <time>2021-11-15T22:19:58.644Z</time>
      </trkpt>
      <trkpt lat="47.403887" lon="7.804603">
        <ele>515.530505</ele>
        <time>2021-11-15T22:20:08.260Z</time>
      </trkpt>
      <trkpt lat="47.403650" lon="7.804570">
        <ele>515.118418</ele>
        <time>2021-11-15T22:20:11.427Z</time>
      </trkpt>
      <trkpt lat="47.403496" lon="7.804641">
        <ele>514.707758</ele>
        <time>2021-11-15T22:20:13.222Z</time>
      </trkpt>
      <trkpt lat="47.403423" lon="7.804716">
        <ele>514.394661</ele>
        <time>2021-11-15T22:20:15.056Z</time>
      </trkpt>
      <trkpt lat="47.403357" lon="7.804808">
        <ele>514.075143</ele>
        <time>2021-11-15T22:20:15.909Z</time>
      </trkpt>
      <trkpt lat="47.403252" lon="7.805264">
        <ele>512.927165</ele>
        <time>2021-11-15T22:20:19.509Z</time>
      </trkpt>
      <trkpt lat="47.403286" lon="7.806095">
        <ele>510.942986</ele>
        <time>2021-11-15T22:20:25.112Z</time>
      </trkpt>
      <trkpt lat="47.403292" lon="7.806285">
        <ele>510.489658</ele>
        <time>2021-11-15T22:20:26.440Z</time>
      </trkpt>
      <trkpt lat="47.403306" lon="7.806777">
        <ele>509.316015</ele>
        <time>2021-11-15T22:20:29.604Z</time>
      </trkpt>
      <trkpt lat="47.403306" lon="7.806946">
        <ele>508.913229</ele>
        <time>2021-11-15T22:20:30.617Z</time>
      </trkpt>
      <trkpt lat="47.403303" lon="7.807058">
        <ele>508.646085</ele>
        <time>2021-11-15T22:20:31.317Z</time>
      </trkpt>
      <trkpt lat="47.403284" lon="7.807638">
        <ele>506.480329</ele>
        <time>2021-11-15T22:20:34.924Z</time>
      </trkpt>
      <trkpt lat="47.403257" lon="7.808104">
        <ele>504.729740</ele>
        <time>2021-11-15T22:20:37.800Z</time>
      </trkpt>
      <trkpt lat="47.403229" lon="7.808507">
        <ele>503.213408</ele>
        <time>2021-11-15T22:20:40.307Z</time>
      </trkpt>
      <trkpt lat="47.403221" lon="7.808684">
        <ele>502.549432</ele>
        <time>2021-11-15T22:20:41.409Z</time>
      </trkpt>
      <trkpt lat="47.403212" lon="7.808863">
        <ele>501.877599</ele>
        <time>2021-11-15T22:20:42.535Z</time>
      </trkpt>
      <trkpt lat="47.403208" lon="7.809047">
        <ele>501.188543</ele>
        <time>2021-11-15T22:20:43.671Z</time>
      </trkpt>
      <trkpt lat="47.403217" lon="7.809278">
        <ele>500.322492</ele>
        <time>2021-11-15T22:20:45.153Z</time>
      </trkpt>
      <trkpt lat="47.403210" lon="7.809408">
        <ele>499.834372</ele>
        <time>2021-11-15T22:20:45.992Z</time>
      </trkpt>
      <trkpt lat="47.403211" lon="7.809507">
        <ele>499.463779</ele>
        <time>2021-11-15T22:20:46.650Z</time>
      </trkpt>
      <trkpt lat="47.403201" lon="7.809610">
        <ele>499.074310</ele>
        <time>2021-11-15T22:20:47.343Z</time>
      </trkpt>
      <trkpt lat="47.403266" lon="7.809816">
        <ele>498.419363</ele>
        <time>2021-11-15T22:20:48.815Z</time>
      </trkpt>
      <trkpt lat="47.403310" lon="7.809800">
        <ele>498.274871</ele>
        <time>2021-11-15T22:20:49.437Z</time>
      </trkpt>
      <trkpt lat="47.403507" lon="7.809728">
        <ele>497.627757</ele>
        <time>2021-11-15T22:20:52.257Z</time>
      </trkpt>
      <trkpt lat="47.403732" lon="7.809654">
        <ele>496.892731</ele>
        <time>2021-11-15T22:20:55.536Z</time>
      </trkpt>
      <trkpt lat="47.403833" lon="7.809618">
        <ele>496.561430</ele>
        <time>2021-11-15T22:20:57.079Z</time>
      </trkpt>
      <trkpt lat="47.404082" lon="7.809543">
        <ele>495.751105</ele>
        <time>2021-11-15T22:21:00.746Z</time>
      </trkpt>
      <trkpt lat="47.404543" lon="7.809480">
        <ele>494.274825</ele>
        <time>2021-11-15T22:21:07.887Z</time>
      </trkpt>
      <trkpt lat="47.404882" lon="7.809460">
        <ele>493.192984</ele>
        <time>2021-11-15T22:21:12.995Z</time>
      </trkpt>
      <trkpt lat="47.405269" lon="7.809435">
        <ele>492.175462</ele>
        <time>2021-11-15T22:21:18.880Z</time>
      </trkpt>
      <trkpt lat="47.405362" lon="7.809433">
        <ele>491.943910</ele>
        <time>2021-11-15T22:21:20.472Z</time>
      </trkpt>
      <trkpt lat="47.405651" lon="7.809411">
        <ele>491.223479</ele>
        <time>2021-11-15T22:21:24.809Z</time>
      </trkpt>
      <trkpt lat="47.405740" lon="7.809402">
        <ele>491.001391</ele>
        <time>2021-11-15T22:21:26.603Z</time>
      </trkpt>
      <trkpt lat="47.405843" lon="7.809380">
        <ele>490.742303</ele>
        <time>2021-11-15T22:21:28.111Z</time>
      </trkpt>
      <trkpt lat="47.405944" lon="7.809350">
        <ele>490.485828</ele>
        <time>2021-11-15T22:21:29.660Z</time>
      </trkpt>
      <trkpt lat="47.406093" lon="7.809301">
        <ele>490.105810</ele>
        <time>2021-11-15T22:21:32.145Z</time>
      </trkpt>
      <trkpt lat="47.406259" lon="7.809218">
        <ele>489.669525</ele>
        <time>2021-11-15T22:21:34.643Z</time>
      </trkpt>
      <trkpt lat="47.406932" lon="7.808849">
        <ele>487.836584</ele>
        <time>2021-11-15T22:21:45.415Z</time>
      </trkpt>
      <trkpt lat="47.407303" lon="7.808718">
        <ele>486.813217</ele>
        <time>2021-11-15T22:21:51.302Z</time>
      </trkpt>
      <trkpt lat="47.407661" lon="7.808646">
        <ele>485.843897</ele>
        <time>2021-11-15T22:21:56.564Z</time>
      </trkpt>
      <trkpt lat="47.408203" lon="7.808546">
        <ele>484.378496</ele>
        <time>2021-11-15T22:22:04.767Z</time>
      </trkpt>
      <trkpt lat="47.408773" lon="7.808493">
        <ele>482.964303</ele>
        <time>2021-11-15T22:22:13.460Z</time>
      </trkpt>
      <trkpt lat="47.408899" lon="7.808522">
        <ele>482.672609</ele>
        <time>2021-11-15T22:22:15.350Z</time>
      </trkpt>
      <trkpt lat="47.408924" lon="7.808529">
        <ele>482.614405</ele>
        <time>2021-11-15T22:22:15.763Z</time>
      </trkpt>
      <trkpt lat="47.409009" lon="7.808554">
        <ele>482.416158</ele>
        <time>2021-11-15T22:22:17.028Z</time>
      </trkpt>
      <trkpt lat="47.409739" lon="7.809061">
        <ele>480.571067</ele>
        <time>2021-11-15T22:22:29.581Z</time>
      </trkpt>
      <trkpt lat="47.409973" lon="7.809245">
        <ele>479.964734</ele>
        <time>2021-11-15T22:22:33.667Z</time>
      </trkpt>
      <trkpt lat="47.410057" lon="7.809308">
        <ele>479.749255</ele>
        <time>2021-11-15T22:22:35.194Z</time>
      </trkpt>
      <trkpt lat="47.410267" lon="7.809486">
        <ele>479.247516</ele>
        <time>2021-11-15T22:22:38.900Z</time>
      </trkpt>
      <trkpt lat="47.410407" lon="7.809617">
        <ele>478.926915</ele>
        <time>2021-11-15T22:22:41.549Z</time>
      </trkpt>
      <trkpt lat="47.410574" lon="7.809784">
        <ele>478.536783</ele>
        <time>2021-11-15T22:22:44.776Z</time>
      </trkpt>
      <trkpt lat="47.410795" lon="7.810008">
        <ele>478.018290</ele>
        <time>2021-11-15T22:22:49.061Z</time>
      </trkpt>
      <trkpt lat="47.411038" lon="7.810167">
        <ele>477.504123</ele>
        <time>2021-11-15T22:22:53.328Z</time>
      </trkpt>
      <trkpt lat="47.411512" lon="7.810306">
        <ele>476.569180</ele>
        <time>2021-11-15T22:23:00.788Z</time>
      </trkpt>
      <trkpt lat="47.412719" lon="7.810865">
        <ele>476.066781</ele>
        <time>2021-11-15T22:23:21.515Z</time>
      </trkpt>
      <trkpt lat="47.412743" lon="7.810883">
        <ele>476.067149</ele>
        <time>2021-11-15T22:23:21.948Z</time>
      </trkpt>
      <trkpt lat="47.412829" lon="7.810950">
        <ele>476.068481</ele>
        <time>2021-11-15T22:23:23.951Z</time>
      </trkpt>
      <trkpt lat="47.413185" lon="7.811135">
        <ele>476.073650</ele>
        <time>2021-11-15T22:23:32.768Z</time>
      </trkpt>
      <trkpt lat="47.413209" lon="7.811148">
        <ele>476.074001</ele>
        <time>2021-11-15T22:23:33.275Z</time>
      </trkpt>
      <trkpt lat="47.413295" lon="7.811180">
        <ele>476.075215</ele>
        <time>2021-11-15T22:23:35.139Z</time>
      </trkpt>
      <trkpt lat="47.413351" lon="7.811196">
        <ele>476.075997</ele>
        <time>2021-11-15T22:23:37.090Z</time>
      </trkpt>
      <trkpt lat="47.413271" lon="7.811524">
        <ele>476.763298</ele>
        <time>2021-11-15T22:23:43.763Z</time>
      </trkpt>
      <trkpt lat="47.413252" lon="7.811647">
        <ele>477.304086</ele>
        <time>2021-11-15T22:23:45.865Z</time>
      </trkpt>
      <trkpt lat="47.413242" lon="7.811717">
        <ele>477.610747</ele>
        <time>2021-11-15T22:23:48.359Z</time>
      </trkpt>
      <trkpt lat="47.413209" lon="7.811838">
        <ele>478.169938</ele>
        <time>2021-11-15T22:23:51.432Z</time>
      </trkpt>
      <trkpt lat="47.413038" lon="7.812229">
        <ele>480.165467</ele>
        <time>2021-11-15T22:24:03.170Z</time>
      </trkpt>
      <trkpt lat="47.413015" lon="7.812281">
        <ele>480.431749</ele>
        <time>2021-11-15T22:24:05.155Z</time>
      </trkpt>
      <trkpt lat="47.412945" lon="7.812389">
        <ele>481.072768</ele>
        <time>2021-11-15T22:24:08.633Z</time>
      </trkpt>
      <trkpt lat="47.412863" lon="7.812536">
        <ele>481.889354</ele>
        <time>2021-11-15T22:24:12.926Z</time>
      </trkpt>
      <trkpt lat="47.412819" lon="7.812613">
        <ele>482.321341</ele>
        <time>2021-11-15T22:24:16.974Z</time>
      </trkpt>
      <trkpt lat="47.412767" lon="7.812703">
        <ele>482.828604</ele>
        <time>2021-11-15T22:24:21.373Z</time>
      </trkpt>
      <trkpt lat="47.412647" lon="7.812952">
        <ele>484.138923</ele>
        <time>2021-11-15T22:24:28.380Z</time>
      </trkpt>
      <trkpt lat="47.412590" lon="7.813097">
        <ele>484.857715</ele>
        <time>2021-11-15T22:24:35.210Z</time>
      </trkpt>
      <trkpt lat="47.412546" lon="7.813203">
        <ele>485.390747</ele>
        <time>2021-11-15T22:24:39.502Z</time>
      </trkpt>
      <trkpt lat="47.412475" lon="7.813375">
        <ele>486.254357</ele>
        <time>2021-11-15T22:24:45.530Z</time>
      </trkpt>
      <trkpt lat="47.412453" lon="7.813489">
        <ele>486.762495</ele>
        <time>2021-11-15T22:24:50.352Z</time>
      </trkpt>
      <trkpt lat="47.412458" lon="7.813812">
        <ele>488.392358</ele>
        <time>2021-11-15T22:25:00.995Z</time>
      </trkpt>
      <trkpt lat="47.412508" lon="7.814020">
        <ele>489.681066</ele>
        <time>2021-11-15T22:25:08.400Z</time>
      </trkpt>
      <trkpt lat="47.412535" lon="7.814165">
        <ele>490.559083</ele>
        <time>2021-11-15T22:25:13.569Z</time>
      </trkpt>
      <trkpt lat="47.412651" lon="7.814791">
        <ele>494.348397</ele>
        <time>2021-11-15T22:25:35.132Z</time>
      </trkpt>
      <trkpt lat="47.412673" lon="7.815211">
        <ele>496.807810</ele>
        <time>2021-11-15T22:25:50.708Z</time>
      </trkpt>
      <trkpt lat="47.412661" lon="7.815346">
        <ele>497.602749</ele>
        <time>2021-11-15T22:25:55.035Z</time>
      </trkpt>
      <trkpt lat="47.412644" lon="7.815454">
        <ele>498.250116</ele>
        <time>2021-11-15T22:25:58.674Z</time>
      </trkpt>
      <trkpt lat="47.412538" lon="7.816206">
        <ele>502.734744</ele>
        <time>2021-11-15T22:26:24.441Z</time>
      </trkpt>
      <trkpt lat="47.412411" lon="7.816715">
        <ele>506.071812</ele>
        <time>2021-11-15T22:26:40.400Z</time>
      </trkpt>
      <trkpt lat="47.412340" lon="7.816932">
        <ele>507.561055</ele>
        <time>2021-11-15T22:26:47.747Z</time>
      </trkpt>
      <trkpt lat="47.412252" lon="7.817169">
        <ele>509.231326</ele>
        <time>2021-11-15T22:26:56.029Z</time>
      </trkpt>
      <trkpt lat="47.411675" lon="7.818402">
        <ele>518.493681</ele>
        <time>2021-11-15T22:27:50.516Z</time>
      </trkpt>
      <trkpt lat="47.411053" lon="7.819169">
        <ele>526.060747</ele>
        <time>2021-11-15T22:28:37.517Z</time>
      </trkpt>
      <trkpt lat="47.410982" lon="7.819269">
        <ele>526.979845</ele>
        <time>2021-11-15T22:28:44.095Z</time>
      </trkpt>
      <trkpt lat="47.410940" lon="7.819362">
        <ele>527.688844</ele>
        <time>2021-11-15T22:28:47.844Z</time>
      </trkpt>
      <trkpt lat="47.410889" lon="7.819549">
        <ele>528.967340</ele>
        <time>2021-11-15T22:28:52.278Z</time>
      </trkpt>
      <trkpt lat="47.410875" lon="7.819644">
        <ele>529.583881</ele>
        <time>2021-11-15T22:28:57.240Z</time>
      </trkpt>
      <trkpt lat="47.410870" lon="7.819785">
        <ele>530.479230</ele>
        <time>2021-11-15T22:29:02.943Z</time>
      </trkpt>
      <trkpt lat="47.410932" lon="7.820627">
        <ele>535.850111</ele>
        <time>2021-11-15T22:29:28.080Z</time>
      </trkpt>
      <trkpt lat="47.410950" lon="7.820708">
        <ele>536.360507</ele>
        <time>2021-11-15T22:29:32.938Z</time>
      </trkpt>
      <trkpt lat="47.410977" lon="7.820783">
        <ele>536.770288</ele>
        <time>2021-11-15T22:29:35.581Z</time>
      </trkpt>
      <trkpt lat="47.411082" lon="7.820940">
        <ele>537.835028</ele>
        <time>2021-11-15T22:29:42.203Z</time>
      </trkpt>
      <trkpt lat="47.411231" lon="7.820989">
        <ele>538.923064</ele>
        <time>2021-11-15T22:29:50.033Z</time>
      </trkpt>
      <trkpt lat="47.411259" lon="7.820982">
        <ele>539.125481</ele>
        <time>2021-11-15T22:29:50.772Z</time>
      </trkpt>
      <trkpt lat="47.411325" lon="7.820962">
        <ele>539.605711</ele>
        <time>2021-11-15T22:29:55.190Z</time>
      </trkpt>
      <trkpt lat="47.411618" lon="7.820798">
        <ele>541.838981</ele>
        <time>2021-11-15T22:30:07.162Z</time>
      </trkpt>
      <trkpt lat="47.411732" lon="7.820798">
        <ele>542.651559</ele>
        <time>2021-11-15T22:30:11.549Z</time>
      </trkpt>
      <trkpt lat="47.411885" lon="7.820944">
        <ele>543.949748</ele>
        <time>2021-11-15T22:30:18.904Z</time>
      </trkpt>
      <trkpt lat="47.411943" lon="7.821161">
        <ele>545.075154</ele>
        <time>2021-11-15T22:30:25.138Z</time>
      </trkpt>
      <trkpt lat="47.411897" lon="7.821410">
        <ele>546.320179</ele>
        <time>2021-11-15T22:30:31.996Z</time>
      </trkpt>
      <trkpt lat="47.411443" lon="7.822215">
        <ele>551.465410</ele>
        <time>2021-11-15T22:31:02.401Z</time>
      </trkpt>
      <trkpt lat="47.411269" lon="7.822710">
        <ele>554.262404</ele>
        <time>2021-11-15T22:31:19.871Z</time>
      </trkpt>
      <trkpt lat="47.411202" lon="7.822904">
        <ele>555.354552</ele>
        <time>2021-11-15T22:31:28.105Z</time>
      </trkpt>
      <trkpt lat="47.411082" lon="7.823262">
        <ele>557.357849</ele>
        <time>2021-11-15T22:31:39.981Z</time>
      </trkpt>
      <trkpt lat="47.410428" lon="7.825280">
        <ele>566.859668</ele>
        <time>2021-11-15T22:32:45.367Z</time>
      </trkpt>
      <trkpt lat="47.410381" lon="7.825922">
        <ele>569.195504</ele>
        <time>2021-11-15T22:32:59.139Z</time>
      </trkpt>
      <trkpt lat="47.410466" lon="7.826671">
        <ele>571.942668</ele>
        <time>2021-11-15T22:33:14.162Z</time>
      </trkpt>
      <trkpt lat="47.410491" lon="7.826956">
        <ele>572.475820</ele>
        <time>2021-11-15T22:33:20.086Z</time>
      </trkpt>
      <trkpt lat="47.410510" lon="7.827179">
        <ele>572.858134</ele>
        <time>2021-11-15T22:33:24.485Z</time>
      </trkpt>
      <trkpt lat="47.410563" lon="7.827634">
        <ele>573.643462</ele>
        <time>2021-11-15T22:33:33.389Z</time>
      </trkpt>
      <trkpt lat="47.410765" lon="7.828443">
        <ele>575.110231</ele>
        <time>2021-11-15T22:33:48.636Z</time>
      </trkpt>
      <trkpt lat="47.410839" lon="7.828759">
        <ele>575.679010</ele>
        <time>2021-11-15T22:33:53.895Z</time>
      </trkpt>
      <trkpt lat="47.410917" lon="7.829172">
        <ele>576.408355</ele>
        <time>2021-11-15T22:33:59.814Z</time>
      </trkpt>
      <trkpt lat="47.411036" lon="7.829964">
        <ele>575.615665</ele>
        <time>2021-11-15T22:34:08.356Z</time>
      </trkpt>
      <trkpt lat="47.411073" lon="7.830276">
        <ele>575.211277</ele>
        <time>2021-11-15T22:34:11.343Z</time>
      </trkpt>
      <trkpt lat="47.411089" lon="7.830400">
        <ele>575.050120</ele>
        <time>2021-11-15T22:34:12.371Z</time>
      </trkpt>
      <trkpt lat="47.411123" lon="7.830625">
        <ele>574.755797</ele>
        <time>2021-11-15T22:34:14.045Z</time>
      </trkpt>
      <trkpt lat="47.411370" lon="7.831550">
        <ele>573.486283</ele>
        <time>2021-11-15T22:34:20.938Z</time>
      </trkpt>
      <trkpt lat="47.411449" lon="7.832252">
        <ele>571.292314</ele>
        <time>2021-11-15T22:34:25.485Z</time>
      </trkpt>
      <trkpt lat="47.411524" lon="7.832786">
        <ele>569.042990</ele>
        <time>2021-11-15T22:34:28.842Z</time>
      </trkpt>
      <trkpt lat="47.411539" lon="7.832881">
        <ele>568.640655</ele>
        <time>2021-11-15T22:34:29.456Z</time>
      </trkpt>
      <trkpt lat="47.411578" lon="7.833362">
        <ele>566.642667</ele>
        <time>2021-11-15T22:34:32.438Z</time>
      </trkpt>
      <trkpt lat="47.411613" lon="7.834140">
        <ele>563.426863</ele>
        <time>2021-11-15T22:34:37.239Z</time>
      </trkpt>
      <trkpt lat="47.411615" lon="7.834239">
        <ele>563.018373</ele>
        <time>2021-11-15T22:34:37.813Z</time>
      </trkpt>
      <trkpt lat="47.411631" lon="7.834857">
        <ele>560.696079</ele>
        <time>2021-11-15T22:34:41.541Z</time>
      </trkpt>
      <trkpt lat="47.411633" lon="7.835047">
        <ele>560.016161</ele>
        <time>2021-11-15T22:34:42.703Z</time>
      </trkpt>
      <trkpt lat="47.411641" lon="7.835498">
        <ele>558.401892</ele>
        <time>2021-11-15T22:34:45.444Z</time>
      </trkpt>
      <trkpt lat="47.411663" lon="7.835937">
        <ele>556.826813</ele>
        <time>2021-11-15T22:34:48.214Z</time>
      </trkpt>
      <trkpt lat="47.411687" lon="7.836224">
        <ele>555.792094</ele>
        <time>2021-11-15T22:34:50.055Z</time>
      </trkpt>
      <trkpt lat="47.411711" lon="7.836540">
        <ele>554.654323</ele>
        <time>2021-11-15T22:34:52.146Z</time>
      </trkpt>
      <trkpt lat="47.411736" lon="7.836725">
        <ele>553.979310</ele>
        <time>2021-11-15T22:34:53.344Z</time>
      </trkpt>
      <trkpt lat="47.411813" lon="7.836960">
        <ele>553.045086</ele>
        <time>2021-11-15T22:34:55.306Z</time>
      </trkpt>
      <trkpt lat="47.411900" lon="7.837054">
        <ele>552.680534</ele>
        <time>2021-11-15T22:34:56.478Z</time>
      </trkpt>
      <trkpt lat="47.411939" lon="7.837082">
        <ele>552.678732</ele>
        <time>2021-11-15T22:34:56.867Z</time>
      </trkpt>
      <trkpt lat="47.412034" lon="7.837127">
        <ele>552.674586</ele>
        <time>2021-11-15T22:34:57.964Z</time>
      </trkpt>
      <trkpt lat="47.412125" lon="7.837198">
        <ele>552.670309</ele>
        <time>2021-11-15T22:34:59.247Z</time>
      </trkpt>
      <trkpt lat="47.412168" lon="7.837270">
        <ele>552.667608</ele>
        <time>2021-11-15T22:35:00.003Z</time>
      </trkpt>
      <trkpt lat="47.412242" lon="7.837183">
        <ele>552.663678</ele>
        <time>2021-11-15T22:35:01.356Z</time>
      </trkpt>
      <trkpt lat="47.412490" lon="7.837253">
        <ele>552.653185</ele>
        <time>2021-11-15T22:35:05.963Z</time>
      </trkpt>
      <trkpt lat="47.412685" lon="7.837307">
        <ele>552.644940</ele>
        <time>2021-11-15T22:35:09.312Z</time>
      </trkpt>
      <trkpt lat="47.412832" lon="7.837351">
        <ele>552.638707</ele>
        <time>2021-11-15T22:35:12.778Z</time>
      </trkpt>
      <trkpt lat="47.412932" lon="7.837393">
        <ele>552.634386</ele>
        <time>2021-11-15T22:35:14.639Z</time>
      </trkpt>
      <trkpt lat="47.413021" lon="7.837464">
        <ele>552.630183</ele>
        <time>2021-11-15T22:35:16.732Z</time>
      </trkpt>
      <trkpt lat="47.413088" lon="7.837533">
        <ele>552.626789</ele>
        <time>2021-11-15T22:35:19.160Z</time>
      </trkpt>
      <trkpt lat="47.413153" lon="7.837613">
        <ele>552.623273</ele>
        <time>2021-11-15T22:35:21.616Z</time>
      </trkpt>
      <trkpt lat="47.413210" lon="7.837689">
        <ele>552.620082</ele>
        <time>2021-11-15T22:35:23.783Z</time>
      </trkpt>
      <trkpt lat="47.413547" lon="7.838099">
        <ele>553.245605</ele>
        <time>2021-11-15T22:35:37.239Z</time>
      </trkpt>
      <trkpt lat="47.413658" lon="7.838210">
        <ele>553.895684</ele>
        <time>2021-11-15T22:35:42.004Z</time>
      </trkpt>
      <trkpt lat="47.413792" lon="7.838339">
        <ele>554.671385</ele>
        <time>2021-11-15T22:35:47.642Z</time>
      </trkpt>
      <trkpt lat="47.413902" lon="7.838437">
        <ele>555.294387</ele>
        <time>2021-11-15T22:35:51.973Z</time>
      </trkpt>
      <trkpt lat="47.414232" lon="7.838677">
        <ele>557.078350</ele>
        <time>2021-11-15T22:36:06.814Z</time>
      </trkpt>
      <trkpt lat="47.414309" lon="7.838693">
        <ele>557.455503</ele>
        <time>2021-11-15T22:36:09.893Z</time>
      </trkpt>
      <trkpt lat="47.414473" lon="7.838697">
        <ele>558.251073</ele>
        <time>2021-11-15T22:36:16.811Z</time>
      </trkpt>
      <trkpt lat="47.414582" lon="7.838687">
        <ele>558.780782</ele>
        <time>2021-11-15T22:36:21.786Z</time>
      </trkpt>
      <trkpt lat="47.415490" lon="7.838557">
        <ele>563.969466</ele>
        <time>2021-11-15T22:37:02.610Z</time>
      </trkpt>
      <trkpt lat="47.415606" lon="7.838549">
        <ele>564.762324</ele>
        <time>2021-11-15T22:37:08.854Z</time>
      </trkpt>
      <trkpt lat="47.415722" lon="7.838549">
        <ele>565.554320</ele>
        <time>2021-11-15T22:37:14.347Z</time>
      </trkpt>
      <trkpt lat="47.415846" lon="7.838577">
        <ele>566.410763</ele>
        <time>2021-11-15T22:37:20.226Z</time>
      </trkpt>
      <trkpt lat="47.416016" lon="7.838635">
        <ele>567.601977</ele>
        <time>2021-11-15T22:37:29.230Z</time>
      </trkpt>
      <trkpt lat="47.416413" lon="7.838774">
        <ele>570.387549</ele>
        <time>2021-11-15T22:37:48.544Z</time>
      </trkpt>
      <trkpt lat="47.416767" lon="7.838841">
        <ele>572.824243</ele>
        <time>2021-11-15T22:38:04.885Z</time>
      </trkpt>
      <trkpt lat="47.416926" lon="7.838882">
        <ele>573.919763</ele>
        <time>2021-11-15T22:38:13.484Z</time>
      </trkpt>
      <trkpt lat="47.417113" lon="7.838974">
        <ele>575.237747</ele>
        <time>2021-11-15T22:38:23.250Z</time>
      </trkpt>
      <trkpt lat="47.417234" lon="7.839041">
        <ele>576.101833</ele>
        <time>2021-11-15T22:38:30.068Z</time>
      </trkpt>
      <trkpt lat="47.417892" lon="7.839489">
        <ele>580.946533</ele>
        <time>2021-11-15T22:39:03.569Z</time>
      </trkpt>
      <trkpt lat="47.418116" lon="7.839560">
        <ele>582.478536</ele>
        <time>2021-11-15T22:39:13.574Z</time>
      </trkpt>
      <trkpt lat="47.418195" lon="7.839572">
        <ele>583.009610</ele>
        <time>2021-11-15T22:39:18.310Z</time>
      </trkpt>
      <trkpt lat="47.418386" lon="7.839560">
        <ele>584.288024</ele>
        <time>2021-11-15T22:39:27.410Z</time>
      </trkpt>
      <trkpt lat="47.418726" lon="7.839562">
        <ele>586.207120</ele>
        <time>2021-11-15T22:39:43.284Z</time>
      </trkpt>
      <trkpt lat="47.419148" lon="7.839723">
        <ele>588.000689</ele>
        <time>2021-11-15T22:40:01.205Z</time>
      </trkpt>
      <trkpt lat="47.419265" lon="7.839775">
        <ele>588.503474</ele>
        <time>2021-11-15T22:40:07.068Z</time>
      </trkpt>
      <trkpt lat="47.419430" lon="7.839857">
        <ele>589.219853</ele>
        <time>2021-11-15T22:40:14.590Z</time>
      </trkpt>
      <trkpt lat="47.420472" lon="7.840268">
        <ele>592.687840</ele>
        <time>2021-11-15T22:40:50.384Z</time>
      </trkpt>
      <trkpt lat="47.421706" lon="7.840440">
        <ele>589.759899</ele>
        <time>2021-11-15T22:41:09.463Z</time>
      </trkpt>
      <trkpt lat="47.421835" lon="7.840453">
        <ele>589.454463</ele>
        <time>2021-11-15T22:41:11.214Z</time>
      </trkpt>
      <trkpt lat="47.421929" lon="7.840465">
        <ele>589.231585</ele>
        <time>2021-11-15T22:41:12.545Z</time>
      </trkpt>
      <trkpt lat="47.422290" lon="7.840513">
        <ele>587.582767</ele>
        <time>2021-11-15T22:41:17.332Z</time>
      </trkpt>
      <trkpt lat="47.422351" lon="7.840526">
        <ele>587.160758</ele>
        <time>2021-11-15T22:41:18.076Z</time>
      </trkpt>
      <trkpt lat="47.422499" lon="7.840552">
        <ele>586.140216</ele>
        <time>2021-11-15T22:41:19.936Z</time>
      </trkpt>
      <trkpt lat="47.423032" lon="7.840729">
        <ele>582.399586</ele>
        <time>2021-11-15T22:41:26.976Z</time>
      </trkpt>
      <trkpt lat="47.423350" lon="7.840961">
        <ele>579.971308</ele>
        <time>2021-11-15T22:41:31.402Z</time>
      </trkpt>
      <trkpt lat="47.423411" lon="7.841024">
        <ele>579.461750</ele>
        <time>2021-11-15T22:41:32.285Z</time>
      </trkpt>
      <trkpt lat="47.423450" lon="7.841073">
        <ele>579.111257</ele>
        <time>2021-11-15T22:41:32.910Z</time>
      </trkpt>
      <trkpt lat="47.423524" lon="7.841186">
        <ele>578.382696</ele>
        <time>2021-11-15T22:41:34.663Z</time>
      </trkpt>
      <trkpt lat="47.423565" lon="7.841262">
        <ele>577.932382</ele>
        <time>2021-11-15T22:41:35.560Z</time>
      </trkpt>
      <trkpt lat="47.423618" lon="7.841382">
        <ele>577.268484</ele>
        <time>2021-11-15T22:41:36.707Z</time>
      </trkpt>
      <trkpt lat="47.423659" lon="7.841502">
        <ele>576.645691</ele>
        <time>2021-11-15T22:41:37.822Z</time>
      </trkpt>
      <trkpt lat="47.424034" lon="7.842607">
        <ele>571.490732</ele>
        <time>2021-11-15T22:41:49.252Z</time>
      </trkpt>
      <trkpt lat="47.424114" lon="7.842747">
        <ele>570.729157</ele>
        <time>2021-11-15T22:41:50.856Z</time>
      </trkpt>
      <trkpt lat="47.424213" lon="7.842847">
        <ele>569.992599</ele>
        <time>2021-11-15T22:41:52.325Z</time>
      </trkpt>
      <trkpt lat="47.424580" lon="7.843075">
        <ele>567.547234</ele>
        <time>2021-11-15T22:41:57.517Z</time>
      </trkpt>
      <trkpt lat="47.424670" lon="7.843099">
        <ele>566.985476</ele>
        <time>2021-11-15T22:41:58.858Z</time>
      </trkpt>
      <trkpt lat="47.425095" lon="7.843215">
        <ele>564.016912</ele>
        <time>2021-11-15T22:42:04.573Z</time>
      </trkpt>
      <trkpt lat="47.425236" lon="7.843253">
        <ele>562.884854</ele>
        <time>2021-11-15T22:42:06.411Z</time>
      </trkpt>
      <trkpt lat="47.425342" lon="7.843279">
        <ele>562.036156</ele>
        <time>2021-11-15T22:42:07.762Z</time>
      </trkpt>
      <trkpt lat="47.425459" lon="7.843310">
        <ele>561.097295</ele>
        <time>2021-11-15T22:42:09.246Z</time>
      </trkpt>
      <trkpt lat="47.425527" lon="7.843331">
        <ele>560.548595</ele>
        <time>2021-11-15T22:42:10.178Z</time>
      </trkpt>
      <trkpt lat="47.425659" lon="7.843366">
        <ele>559.489342</ele>
        <time>2021-11-15T22:42:11.792Z</time>
      </trkpt>
      <trkpt lat="47.425751" lon="7.843393">
        <ele>558.748489</ele>
        <time>2021-11-15T22:42:12.958Z</time>
      </trkpt>
      <trkpt lat="47.425871" lon="7.843432">
        <ele>557.778021</ele>
        <time>2021-11-15T22:42:14.611Z</time>
      </trkpt>
      <trkpt lat="47.425979" lon="7.843482">
        <ele>556.884112</ele>
        <time>2021-11-15T22:42:15.974Z</time>
      </trkpt>
      <trkpt lat="47.426320" lon="7.843715">
        <ele>553.916844</ele>
        <time>2021-11-15T22:42:20.662Z</time>
      </trkpt>
      <trkpt lat="47.426582" lon="7.844083">
        <ele>551.099539</ele>
        <time>2021-11-15T22:42:25.171Z</time>
      </trkpt>
      <trkpt lat="47.426658" lon="7.844245">
        <ele>550.292918</ele>
        <time>2021-11-15T22:42:26.821Z</time>
      </trkpt>
      <trkpt lat="47.426813" lon="7.844636">
        <ele>548.438672</ele>
        <time>2021-11-15T22:42:30.628Z</time>
      </trkpt>
      <trkpt lat="47.426915" lon="7.844919">
        <ele>547.126668</ele>
        <time>2021-11-15T22:42:33.402Z</time>
      </trkpt>
      <trkpt lat="47.426956" lon="7.845001">
        <ele>546.709468</ele>
        <time>2021-11-15T22:42:34.270Z</time>
      </trkpt>
      <trkpt lat="47.427161" lon="7.845395">
        <ele>544.675747</ele>
        <time>2021-11-15T22:42:38.796Z</time>
      </trkpt>
      <trkpt lat="47.427402" lon="7.845663">
        <ele>542.851773</ele>
        <time>2021-11-15T22:42:42.881Z</time>
      </trkpt>
      <trkpt lat="47.427688" lon="7.845804">
        <ele>541.028388</ele>
        <time>2021-11-15T22:42:46.967Z</time>
      </trkpt>
      <trkpt lat="47.428057" lon="7.845882">
        <ele>539.256189</ele>
        <time>2021-11-15T22:42:52.428Z</time>
      </trkpt>
      <trkpt lat="47.428751" lon="7.845871">
        <ele>536.348057</ele>
        <time>2021-11-15T22:43:02.695Z</time>
      </trkpt>
      <trkpt lat="47.429077" lon="7.845790">
        <ele>534.962905</ele>
        <time>2021-11-15T22:43:07.326Z</time>
      </trkpt>
      <trkpt lat="47.429914" lon="7.845225">
        <ele>530.402706</ele>
        <time>2021-11-15T22:43:19.558Z</time>
      </trkpt>
      <trkpt lat="47.430220" lon="7.845275">
        <ele>528.577934</ele>
        <time>2021-11-15T22:43:23.517Z</time>
      </trkpt>
      <trkpt lat="47.430624" lon="7.845539">
        <ele>525.959806</ele>
        <time>2021-11-15T22:43:29.181Z</time>
      </trkpt>
      <trkpt lat="47.431013" lon="7.845639">
        <ele>523.619519</ele>
        <time>2021-11-15T22:43:34.343Z</time>
      </trkpt>
      <trkpt lat="47.431567" lon="7.845688">
        <ele>520.948892</ele>
        <time>2021-11-15T22:43:41.850Z</time>
      </trkpt>
      <trkpt lat="47.432090" lon="7.845628">
        <ele>518.899159</ele>
        <time>2021-11-15T22:43:49.322Z</time>
      </trkpt>
      <trkpt lat="47.432307" lon="7.845499">
        <ele>517.985254</ele>
        <time>2021-11-15T22:43:52.861Z</time>
      </trkpt>
      <trkpt lat="47.432491" lon="7.845240">
        <ele>516.992488</ele>
        <time>2021-11-15T22:43:56.821Z</time>
      </trkpt>
      <trkpt lat="47.432686" lon="7.844763">
        <ele>515.519323</ele>
        <time>2021-11-15T22:44:02.751Z</time>
      </trkpt>
      <trkpt lat="47.433047" lon="7.843431">
        <ele>508.016838</ele>
        <time>2021-11-15T22:44:15.384Z</time>
      </trkpt>
      <trkpt lat="47.433112" lon="7.843302">
        <ele>507.126631</ele>
        <time>2021-11-15T22:44:16.924Z</time>
      </trkpt>
      <trkpt lat="47.433198" lon="7.843131">
        <ele>505.947385</ele>
        <time>2021-11-15T22:44:18.620Z</time>
      </trkpt>
      <trkpt lat="47.433417" lon="7.842951">
        <ele>503.897382</ele>
        <time>2021-11-15T22:44:21.878Z</time>
      </trkpt>
      <trkpt lat="47.433454" lon="7.842940">
        <ele>503.588615</ele>
        <time>2021-11-15T22:44:22.309Z</time>
      </trkpt>
      <trkpt lat="47.433508" lon="7.842944">
        <ele>503.146272</ele>
        <time>2021-11-15T22:44:22.972Z</time>
      </trkpt>
      <trkpt lat="47.433758" lon="7.843170">
        <ele>500.748850</ele>
        <time>2021-11-15T22:44:26.534Z</time>
      </trkpt>
      <trkpt lat="47.433877" lon="7.843574">
        <ele>496.923941</ele>
        <time>2021-11-15T22:44:30.126Z</time>
      </trkpt>
      <trkpt lat="47.433880" lon="7.843726">
        <ele>495.524896</ele>
        <time>2021-11-15T22:44:31.298Z</time>
      </trkpt>
      <trkpt lat="47.433878" lon="7.843980">
        <ele>493.187856</ele>
        <time>2021-11-15T22:44:33.341Z</time>
      </trkpt>
      <trkpt lat="47.433682" lon="7.846047">
        <ele>474.338614</ele>
        <time>2021-11-15T22:44:49.884Z</time>
      </trkpt>
      <trkpt lat="47.433693" lon="7.846326">
        <ele>472.232760</ele>
        <time>2021-11-15T22:44:52.127Z</time>
      </trkpt>
      <trkpt lat="47.433829" lon="7.847163">
        <ele>465.746515</ele>
        <time>2021-11-15T22:44:59.117Z</time>
      </trkpt>
      <trkpt lat="47.433957" lon="7.847446">
        <ele>463.181328</ele>
        <time>2021-11-15T22:45:01.867Z</time>
      </trkpt>
      <trkpt lat="47.434180" lon="7.847710">
        <ele>459.998936</ele>
        <time>2021-11-15T22:45:05.358Z</time>
      </trkpt>
      <trkpt lat="47.434625" lon="7.848019">
        <ele>455.125330</ele>
        <time>2021-11-15T22:45:11.454Z</time>
      </trkpt>
      <trkpt lat="47.434861" lon="7.848176">
        <ele>453.500677</ele>
        <time>2021-11-15T22:45:14.724Z</time>
      </trkpt>
      <trkpt lat="47.434893" lon="7.848197">
        <ele>453.280884</ele>
        <time>2021-11-15T22:45:15.160Z</time>
      </trkpt>
      <trkpt lat="47.435019" lon="7.848289">
        <ele>452.398666</ele>
        <time>2021-11-15T22:45:17.040Z</time>
      </trkpt>
      <trkpt lat="47.435042" lon="7.848417">
        <ele>451.836268</ele>
        <time>2021-11-15T22:45:18.254Z</time>
      </trkpt>
      <trkpt lat="47.435028" lon="7.848463">
        <ele>451.622070</ele>
        <time>2021-11-15T22:45:18.666Z</time>
      </trkpt>
      <trkpt lat="47.434989" lon="7.848471">
        <ele>451.374890</ele>
        <time>2021-11-15T22:45:19.149Z</time>
      </trkpt>
      <trkpt lat="47.433803" lon="7.847991">
        <ele>444.066417</ele>
        <time>2021-11-15T22:45:35.594Z</time>
      </trkpt>
      <trkpt lat="47.433664" lon="7.848024">
        <ele>443.562154</ele>
        <time>2021-11-15T22:45:37.653Z</time>
      </trkpt>
      <trkpt lat="47.433556" lon="7.848240">
        <ele>442.911346</ele>
        <time>2021-11-15T22:45:40.141Z</time>
      </trkpt>
      <trkpt lat="47.433544" lon="7.848319">
        <ele>442.715166</ele>
        <time>2021-11-15T22:45:40.847Z</time>
      </trkpt>
      <trkpt lat="47.433528" lon="7.848396">
        <ele>442.519995</ele>
        <time>2021-11-15T22:45:41.678Z</time>
      </trkpt>
      <trkpt lat="47.433795" lon="7.848524">
        <ele>441.514600</ele>
        <time>2021-11-15T22:45:45.790Z</time>
      </trkpt>
      <trkpt lat="47.434500" lon="7.848920">
        <ele>438.813229</ele>
        <time>2021-11-15T22:45:56.730Z</time>
      </trkpt>
      <trkpt lat="47.436050" lon="7.850036">
        <ele>434.661205</ele>
        <time>2021-11-15T22:46:23.077Z</time>
      </trkpt>
      <trkpt lat="47.436479" lon="7.850260">
        <ele>433.870728</ele>
        <time>2021-11-15T22:46:30.638Z</time>
      </trkpt>
      <trkpt lat="47.436538" lon="7.850283">
        <ele>433.806000</ele>
        <time>2021-11-15T22:46:31.508Z</time>
      </trkpt>
      <trkpt lat="47.436663" lon="7.850327">
        <ele>433.669691</ele>
        <time>2021-11-15T22:46:33.930Z</time>
      </trkpt>
      <trkpt lat="47.437310" lon="7.850269">
        <ele>432.982080</ele>
        <time>2021-11-15T22:46:45.156Z</time>
      </trkpt>
      <trkpt lat="47.437720" lon="7.850034">
        <ele>432.515602</ele>
        <time>2021-11-15T22:46:53.140Z</time>
      </trkpt>
      <trkpt lat="47.437750" lon="7.850017">
        <ele>432.481520</ele>
        <time>2021-11-15T22:46:53.774Z</time>
      </trkpt>
      <trkpt lat="47.438127" lon="7.849642">
        <ele>431.982612</ele>
        <time>2021-11-15T22:47:02.143Z</time>
      </trkpt>
      <trkpt lat="47.442391" lon="7.843670">
        <ele>424.658282</ele>
        <time>2021-11-15T22:48:41.445Z</time>
      </trkpt>
      <trkpt lat="47.443079" lon="7.842585">
        <ele>422.909926</ele>
        <time>2021-11-15T22:48:57.524Z</time>
      </trkpt>
      <trkpt lat="47.444584" lon="7.839628">
        <ele>416.789126</ele>
        <time>2021-11-15T22:49:35.650Z</time>
      </trkpt>
      <trkpt lat="47.445072" lon="7.838787">
        <ele>414.700092</ele>
        <time>2021-11-15T22:49:46.762Z</time>
      </trkpt>
      <trkpt lat="47.445528" lon="7.838233">
        <ele>413.066340</ele>
        <time>2021-11-15T22:49:55.470Z</time>
      </trkpt>
      <trkpt lat="47.446064" lon="7.837840">
        <ele>411.469525</ele>
        <time>2021-11-15T22:50:04.307Z</time>
      </trkpt>
      <trkpt lat="47.446145" lon="7.837696">
        <ele>411.131445</ele>
        <time>2021-11-15T22:50:06.203Z</time>
      </trkpt>
      <trkpt lat="47.447146" lon="7.836805">
        <ele>408.036343</ele>
        <time>2021-11-15T22:50:24.026Z</time>
      </trkpt>
      <trkpt lat="47.448393" lon="7.835543">
        <ele>404.187843</ele>
        <time>2021-11-15T22:50:46.813Z</time>
      </trkpt>
      <trkpt lat="47.448622" lon="7.835311">
        <ele>403.581260</ele>
        <time>2021-11-15T22:50:51.065Z</time>
      </trkpt>
      <trkpt lat="47.448978" lon="7.835062">
        <ele>402.797057</ele>
        <time>2021-11-15T22:50:57.114Z</time>
      </trkpt>
      <trkpt lat="47.448956" lon="7.834983">
        <ele>402.682007</ele>
        <time>2021-11-15T22:50:58.029Z</time>
      </trkpt>
      <trkpt lat="47.449275" lon="7.834788">
        <ele>401.994647</ele>
        <time>2021-11-15T22:51:01.771Z</time>
      </trkpt>
      <trkpt lat="47.449505" lon="7.834629">
        <ele>401.489072</ele>
        <time>2021-11-15T22:51:04.537Z</time>
      </trkpt>
      <trkpt lat="47.449669" lon="7.834494">
        <ele>401.115310</ele>
        <time>2021-11-15T22:51:06.589Z</time>
      </trkpt>
      <trkpt lat="47.449811" lon="7.834354">
        <ele>400.775462</ele>
        <time>2021-11-15T22:51:08.504Z</time>
      </trkpt>
      <trkpt lat="47.450016" lon="7.834124">
        <ele>400.322479</ele>
        <time>2021-11-15T22:51:11.472Z</time>
      </trkpt>
      <trkpt lat="47.451108" lon="7.832712">
        <ele>399.214277</ele>
        <time>2021-11-15T22:51:29.786Z</time>
      </trkpt>
      <trkpt lat="47.451121" lon="7.832696">
        <ele>399.201356</ele>
        <time>2021-11-15T22:51:29.968Z</time>
      </trkpt>
      <trkpt lat="47.451327" lon="7.832461">
        <ele>399.002592</ele>
        <time>2021-11-15T22:51:33.972Z</time>
      </trkpt>
      <trkpt lat="47.451426" lon="7.832356">
        <ele>398.958685</ele>
        <time>2021-11-15T22:51:35.588Z</time>
      </trkpt>
      <trkpt lat="47.451701" lon="7.832106">
        <ele>398.871960</ele>
        <time>2021-11-15T22:51:40.463Z</time>
      </trkpt>
      <trkpt lat="47.451989" lon="7.831857">
        <ele>398.782333</ele>
        <time>2021-11-15T22:51:45.512Z</time>
      </trkpt>
      <trkpt lat="47.452175" lon="7.831696">
        <ele>398.724432</ele>
        <time>2021-11-15T22:51:48.894Z</time>
      </trkpt>
      <trkpt lat="47.452373" lon="7.831505">
        <ele>398.660921</ele>
        <time>2021-11-15T22:51:52.127Z</time>
      </trkpt>
      <trkpt lat="47.452618" lon="7.831252">
        <ele>398.580640</ele>
        <time>2021-11-15T22:51:56.296Z</time>
      </trkpt>
      <trkpt lat="47.453133" lon="7.830610">
        <ele>397.907460</ele>
        <time>2021-11-15T22:52:04.790Z</time>
      </trkpt>
      <trkpt lat="47.453250" lon="7.830464">
        <ele>397.668730</ele>
        <time>2021-11-15T22:52:06.543Z</time>
      </trkpt>
      <trkpt lat="47.453398" lon="7.830308">
        <ele>397.385308</ele>
        <time>2021-11-15T22:52:08.823Z</time>
      </trkpt>
      <trkpt lat="47.453492" lon="7.830220">
        <ele>397.211818</ele>
        <time>2021-11-15T22:52:10.047Z</time>
      </trkpt>
      <trkpt lat="47.453757" lon="7.829984">
        <ele>396.729420</ele>
        <time>2021-11-15T22:52:13.655Z</time>
      </trkpt>
      <trkpt lat="47.453989" lon="7.829813">
        <ele>396.325185</ele>
        <time>2021-11-15T22:52:16.415Z</time>
      </trkpt>
      <trkpt lat="47.454287" lon="7.829611">
        <ele>395.813980</ele>
        <time>2021-11-15T22:52:19.862Z</time>
      </trkpt>
      <trkpt lat="47.454472" lon="7.829506">
        <ele>395.457178</ele>
        <time>2021-11-15T22:52:22.115Z</time>
      </trkpt>
      <trkpt lat="47.454625" lon="7.829495">
        <ele>395.158930</ele>
        <time>2021-11-15T22:52:23.675Z</time>
      </trkpt>
      <trkpt lat="47.454803" lon="7.829577">
        <ele>394.795934</ele>
        <time>2021-11-15T22:52:25.768Z</time>
      </trkpt>
      <trkpt lat="47.455119" lon="7.829864">
        <ele>394.073915</ele>
        <time>2021-11-15T22:52:29.732Z</time>
      </trkpt>
      <trkpt lat="47.455185" lon="7.829882">
        <ele>393.943244</ele>
        <time>2021-11-15T22:52:30.381Z</time>
      </trkpt>
      <trkpt lat="47.455265" lon="7.829874">
        <ele>393.787126</ele>
        <time>2021-11-15T22:52:31.211Z</time>
      </trkpt>
      <trkpt lat="47.455471" lon="7.829717">
        <ele>393.335912</ele>
        <time>2021-11-15T22:52:33.975Z</time>
      </trkpt>
      <trkpt lat="47.455556" lon="7.829615">
        <ele>393.122788</ele>
        <time>2021-11-15T22:52:35.076Z</time>
      </trkpt>
      <trkpt lat="47.455584" lon="7.829685">
        <ele>393.015715</ele>
        <time>2021-11-15T22:52:36.114Z</time>
      </trkpt>
      <trkpt lat="47.455626" lon="7.829799">
        <ele>392.844800</ele>
        <time>2021-11-15T22:52:37.647Z</time>
      </trkpt>
      <trkpt lat="47.455644" lon="7.829891">
        <ele>392.718713</ele>
        <time>2021-11-15T22:52:38.962Z</time>
      </trkpt>
      <trkpt lat="47.455667" lon="7.830016">
        <ele>392.548166</ele>
        <time>2021-11-15T22:52:40.307Z</time>
      </trkpt>
      <trkpt lat="47.455686" lon="7.830084">
        <ele>392.451301</ele>
        <time>2021-11-15T22:52:41.076Z</time>
      </trkpt>
      <trkpt lat="47.456217" lon="7.829960">
        <ele>391.949525</ele>
        <time>2021-11-15T22:52:50.495Z</time>
      </trkpt>
      <trkpt lat="47.456508" lon="7.829890">
        <ele>391.771128</ele>
        <time>2021-11-15T22:52:55.625Z</time>
      </trkpt>
      <trkpt lat="47.456847" lon="7.829841">
        <ele>391.565023</ele>
        <time>2021-11-15T22:53:02.552Z</time>
      </trkpt>
      <trkpt lat="47.457427" lon="7.829810">
        <ele>391.213838</ele>
        <time>2021-11-15T22:53:13.884Z</time>
      </trkpt>
      <trkpt lat="47.457731" lon="7.829812">
        <ele>390.957183</ele>
        <time>2021-11-15T22:53:19.354Z</time>
      </trkpt>
      <trkpt lat="47.458230" lon="7.829919">
        <ele>390.363970</ele>
        <time>2021-11-15T22:53:28.395Z</time>
      </trkpt>
      <trkpt lat="47.458385" lon="7.829959">
        <ele>390.178857</ele>
        <time>2021-11-15T22:53:30.338Z</time>
      </trkpt>
      <trkpt lat="47.458483" lon="7.830002">
        <ele>390.058593</ele>
        <time>2021-11-15T22:53:31.468Z</time>
      </trkpt>
      <trkpt lat="47.458605" lon="7.829769">
        <ele>389.824171</ele>
        <time>2021-11-15T22:53:33.761Z</time>
      </trkpt>
      <trkpt lat="47.458779" lon="7.829408">
        <ele>389.471513</ele>
        <time>2021-11-15T22:53:37.192Z</time>
      </trkpt>
      <trkpt lat="47.458992" lon="7.829105">
        <ele>389.123820</ele>
        <time>2021-11-15T22:53:40.594Z</time>
      </trkpt>
      <trkpt lat="47.459456" lon="7.828693">
        <ele>388.422708</ele>
        <time>2021-11-15T22:53:46.847Z</time>
      </trkpt>
      <trkpt lat="47.459537" lon="7.828672">
        <ele>388.313588</ele>
        <time>2021-11-15T22:53:47.692Z</time>
      </trkpt>
      <trkpt lat="47.459940" lon="7.828652">
        <ele>387.778537</ele>
        <time>2021-11-15T22:53:52.141Z</time>
      </trkpt>
      <trkpt lat="47.460628" lon="7.828763">
        <ele>386.860198</ele>
        <time>2021-11-15T22:54:00.325Z</time>
      </trkpt>
      <trkpt lat="47.460850" lon="7.828883">
        <ele>386.603490</ele>
        <time>2021-11-15T22:54:03.544Z</time>
      </trkpt>
      <trkpt lat="47.461473" lon="7.829886">
        <ele>386.590396</ele>
        <time>2021-11-15T22:54:16.708Z</time>
      </trkpt>
      <trkpt lat="47.461548" lon="7.829918">
        <ele>386.589286</ele>
        <time>2021-11-15T22:54:17.976Z</time>
      </trkpt>
      <trkpt lat="47.461585" lon="7.830158">
        <ele>386.586920</ele>
        <time>2021-11-15T22:54:20.713Z</time>
      </trkpt>
      <trkpt lat="47.461616" lon="7.830312">
        <ele>386.585375</ele>
        <time>2021-11-15T22:54:22.365Z</time>
      </trkpt>
      <trkpt lat="47.461787" lon="7.831158">
        <ele>386.656227</ele>
        <time>2021-11-15T22:54:31.883Z</time>
      </trkpt>
      <trkpt lat="47.461918" lon="7.831668">
        <ele>386.903975</ele>
        <time>2021-11-15T22:54:37.883Z</time>
      </trkpt>
      <trkpt lat="47.462048" lon="7.832204">
        <ele>387.162566</ele>
        <time>2021-11-15T22:54:44.762Z</time>
      </trkpt>
      <trkpt lat="47.462080" lon="7.832335">
        <ele>387.225818</ele>
        <time>2021-11-15T22:54:46.419Z</time>
      </trkpt>
      <trkpt lat="47.462179" lon="7.832744">
        <ele>387.423093</ele>
        <time>2021-11-15T22:54:51.580Z</time>
      </trkpt>
      <trkpt lat="47.462217" lon="7.832953">
        <ele>387.521374</ele>
        <time>2021-11-15T22:54:54.414Z</time>
      </trkpt>
      <trkpt lat="47.462285" lon="7.833721">
        <ele>387.894374</ele>
        <time>2021-11-15T22:55:03.910Z</time>
      </trkpt>
      <trkpt lat="47.462296" lon="7.833933">
        <ele>388.014678</ele>
        <time>2021-11-15T22:55:06.857Z</time>
      </trkpt>
      <trkpt lat="47.462317" lon="7.834216">
        <ele>388.175763</ele>
        <time>2021-11-15T22:55:10.369Z</time>
      </trkpt>
      <trkpt lat="47.462357" lon="7.834782">
        <ele>388.497754</ele>
        <time>2021-11-15T22:55:17.130Z</time>
      </trkpt>
      <trkpt lat="47.462375" lon="7.834910">
        <ele>388.571727</ele>
        <time>2021-11-15T22:55:18.914Z</time>
      </trkpt>
      <trkpt lat="47.462388" lon="7.834991">
        <ele>388.618831</ele>
        <time>2021-11-15T22:55:19.944Z</time>
      </trkpt>
      <trkpt lat="47.462586" lon="7.835900">
        <ele>389.159183</ele>
        <time>2021-11-15T22:55:31.092Z</time>
      </trkpt>
      <trkpt lat="47.462666" lon="7.836201">
        <ele>389.365591</ele>
        <time>2021-11-15T22:55:35.203Z</time>
      </trkpt>
      <trkpt lat="47.462700" lon="7.836337">
        <ele>389.485860</ele>
        <time>2021-11-15T22:55:37.076Z</time>
      </trkpt>
      <trkpt lat="47.462730" lon="7.836472">
        <ele>389.603728</ele>
        <time>2021-11-15T22:55:38.798Z</time>
      </trkpt>
      <trkpt lat="47.462748" lon="7.836556">
        <ele>389.676817</ele>
        <time>2021-11-15T22:55:39.686Z</time>
      </trkpt>
      <trkpt lat="47.462851" lon="7.837404">
        <ele>390.391442</ele>
        <time>2021-11-15T22:55:52.298Z</time>
      </trkpt>
      <trkpt lat="47.462856" lon="7.837506">
        <ele>390.476267</ele>
        <time>2021-11-15T22:55:54.190Z</time>
      </trkpt>
      <trkpt lat="47.462865" lon="7.837711">
        <ele>390.646659</ele>
        <time>2021-11-15T22:55:56.598Z</time>
      </trkpt>
      <trkpt lat="47.462869" lon="7.837866">
        <ele>390.775316</ele>
        <time>2021-11-15T22:55:58.555Z</time>
      </trkpt>
      <trkpt lat="47.462871" lon="7.837954">
        <ele>390.848347</ele>
        <time>2021-11-15T22:56:00.084Z</time>
      </trkpt>
      <trkpt lat="47.462873" lon="7.838016">
        <ele>390.899831</ele>
        <time>2021-11-15T22:56:01.126Z</time>
      </trkpt>
      <trkpt lat="47.462883" lon="7.838488">
        <ele>391.291517</ele>
        <time>2021-11-15T22:56:07.260Z</time>
      </trkpt>
      <trkpt lat="47.462936" lon="7.838934">
        <ele>391.556815</ele>
        <time>2021-11-15T22:56:12.602Z</time>
      </trkpt>
      <trkpt lat="47.462967" lon="7.839047">
        <ele>391.591757</ele>
        <time>2021-11-15T22:56:14.300Z</time>
      </trkpt>
      <trkpt lat="47.462982" lon="7.839106">
        <ele>391.609818</ele>
        <time>2021-11-15T22:56:15.238Z</time>
      </trkpt>
      <trkpt lat="47.463043" lon="7.839292">
        <ele>391.669052</ele>
        <time>2021-11-15T22:56:17.054Z</time>
      </trkpt>
      <trkpt lat="47.463133" lon="7.839561">
        <ele>391.755051</ele>
        <time>2021-11-15T22:56:20.960Z</time>
      </trkpt>
      <trkpt lat="47.463287" lon="7.840028">
        <ele>391.903929</ele>
        <time>2021-11-15T22:56:26.995Z</time>
      </trkpt>
      <trkpt lat="47.463588" lon="7.840904">
        <ele>392.185485</ele>
        <time>2021-11-15T22:56:38.290Z</time>
      </trkpt>
      <trkpt lat="47.463616" lon="7.840992">
        <ele>392.213353</ele>
        <time>2021-11-15T22:56:39.368Z</time>
      </trkpt>
      <trkpt lat="47.463685" lon="7.841203">
        <ele>392.240984</ele>
        <time>2021-11-15T22:56:41.311Z</time>
      </trkpt>
      <trkpt lat="47.463874" lon="7.841863">
        <ele>392.032407</ele>
        <time>2021-11-15T22:56:47.600Z</time>
      </trkpt>
      <trkpt lat="47.463922" lon="7.842123">
        <ele>391.953978</ele>
        <time>2021-11-15T22:56:49.583Z</time>
      </trkpt>
      <trkpt lat="47.463971" lon="7.842355">
        <ele>391.883249</ele>
        <time>2021-11-15T22:56:52.147Z</time>
      </trkpt>
      <trkpt lat="47.464053" lon="7.842690">
        <ele>391.779573</ele>
        <time>2021-11-15T22:56:54.947Z</time>
      </trkpt>
      <trkpt lat="47.464075" lon="7.842774">
        <ele>391.753359</ele>
        <time>2021-11-15T22:56:56.145Z</time>
      </trkpt>
      <trkpt lat="47.464165" lon="7.843130">
        <ele>391.642758</ele>
        <time>2021-11-15T22:56:59.271Z</time>
      </trkpt>
      <trkpt lat="47.464176" lon="7.843178">
        <ele>391.628010</ele>
        <time>2021-11-15T22:56:59.755Z</time>
      </trkpt>
      <trkpt lat="47.464234" lon="7.843434">
        <ele>391.549444</ele>
        <time>2021-11-15T22:57:02.819Z</time>
      </trkpt>
      <trkpt lat="47.464354" lon="7.843960">
        <ele>391.629971</ele>
        <time>2021-11-15T22:57:08.836Z</time>
      </trkpt>
      <trkpt lat="47.464386" lon="7.844088">
        <ele>391.687553</ele>
        <time>2021-11-15T22:57:10.179Z</time>
      </trkpt>
      <trkpt lat="47.464433" lon="7.844273">
        <ele>391.770941</ele>
        <time>2021-11-15T22:57:12.663Z</time>
      </trkpt>
      <trkpt lat="47.464585" lon="7.844988">
        <ele>392.087186</ele>
        <time>2021-11-15T22:57:21.175Z</time>
      </trkpt>
      <trkpt lat="47.464737" lon="7.846119">
        <ele>392.573729</ele>
        <time>2021-11-15T22:57:35.284Z</time>
      </trkpt>
      <trkpt lat="47.464771" lon="7.847028">
        <ele>393.295348</ele>
        <time>2021-11-15T22:57:47.394Z</time>
      </trkpt>
      <trkpt lat="47.464784" lon="7.847333">
        <ele>393.549137</ele>
        <time>2021-11-15T22:57:51.375Z</time>
      </trkpt>
      <trkpt lat="47.464820" lon="7.847644">
        <ele>393.811164</ele>
        <time>2021-11-15T22:57:55.645Z</time>
      </trkpt>
      <trkpt lat="47.464850" lon="7.847870">
        <ele>394.002429</ele>
        <time>2021-11-15T22:57:58.562Z</time>
      </trkpt>
      <trkpt lat="47.464909" lon="7.848219">
        <ele>394.301179</ele>
        <time>2021-11-15T22:58:03.628Z</time>
      </trkpt>
      <trkpt lat="47.464952" lon="7.848443">
        <ele>394.494552</ele>
        <time>2021-11-15T22:58:06.816Z</time>
      </trkpt>
      <trkpt lat="47.465152" lon="7.849351">
        <ele>395.301886</ele>
        <time>2021-11-15T22:58:20.075Z</time>
      </trkpt>
      <trkpt lat="47.465348" lon="7.849875">
        <ele>395.814347</ele>
        <time>2021-11-15T22:58:28.301Z</time>
      </trkpt>
      <trkpt lat="47.465558" lon="7.850405">
        <ele>396.340040</ele>
        <time>2021-11-15T22:58:36.601Z</time>
      </trkpt>
      <trkpt lat="47.465620" lon="7.850585">
        <ele>396.512911</ele>
        <time>2021-11-15T22:58:39.204Z</time>
      </trkpt>
      <trkpt lat="47.465714" lon="7.850917">
        <ele>396.820921</ele>
        <time>2021-11-15T22:58:43.844Z</time>
      </trkpt>
      <trkpt lat="47.465829" lon="7.851383">
        <ele>397.240566</ele>
        <time>2021-11-15T22:58:50.206Z</time>
      </trkpt>
      <trkpt lat="47.465804" lon="7.851399">
        <ele>397.273929</ele>
        <time>2021-11-15T22:58:50.761Z</time>
      </trkpt>
      <trkpt lat="47.465765" lon="7.851501">
        <ele>397.370958</ele>
        <time>2021-11-15T22:58:52.241Z</time>
      </trkpt>
      <trkpt lat="47.465770" lon="7.851542">
        <ele>397.405454</ele>
        <time>2021-11-15T22:58:52.792Z</time>
      </trkpt>
      <trkpt lat="47.465781" lon="7.851575">
        <ele>397.435919</ele>
        <time>2021-11-15T22:58:53.273Z</time>
      </trkpt>
      <trkpt lat="47.465821" lon="7.851619">
        <ele>397.496972</ele>
        <time>2021-11-15T22:58:54.181Z</time>
      </trkpt>
      <trkpt lat="47.465846" lon="7.851625">
        <ele>397.527992</ele>
        <time>2021-11-15T22:58:54.660Z</time>
      </trkpt>
      <trkpt lat="47.465871" lon="7.851620">
        <ele>397.558891</ele>
        <time>2021-11-15T22:58:55.112Z</time>
      </trkpt>
      <trkpt lat="47.465906" lon="7.851776">
        <ele>397.694986</ele>
        <time>2021-11-15T22:58:57.337Z</time>
      </trkpt>
      <trkpt lat="47.466256" lon="7.853287">
        <ele>399.017493</ele>
        <time>2021-11-15T22:59:18.492Z</time>
      </trkpt>
      <trkpt lat="47.466331" lon="7.853936">
        <ele>399.648607</ele>
        <time>2021-11-15T22:59:28.018Z</time>
      </trkpt>
      <trkpt lat="47.466338" lon="7.854554">
        <ele>400.326842</ele>
        <time>2021-11-15T22:59:36.586Z</time>
      </trkpt>
      <trkpt lat="47.466332" lon="7.854775">
        <ele>400.569544</ele>
        <time>2021-11-15T22:59:39.762Z</time>
      </trkpt>
      <trkpt lat="47.466324" lon="7.855062">
        <ele>400.884741</ele>
        <time>2021-11-15T22:59:44.026Z</time>
      </trkpt>
      <trkpt lat="47.466298" lon="7.855895">
        <ele>401.799778</ele>
        <time>2021-11-15T22:59:56.206Z</time>
      </trkpt>
      <trkpt lat="47.466295" lon="7.856234">
        <ele>402.171800</ele>
        <time>2021-11-15T23:00:01.439Z</time>
      </trkpt>
      <trkpt lat="47.466298" lon="7.856354">
        <ele>402.287241</ele>
        <time>2021-11-15T23:00:03.116Z</time>
      </trkpt>
      <trkpt lat="47.466271" lon="7.856363">
        <ele>402.323600</ele>
        <time>2021-11-15T23:00:03.718Z</time>
      </trkpt>
      <trkpt lat="47.466237" lon="7.856421">
        <ele>402.391776</ele>
        <time>2021-11-15T23:00:04.754Z</time>
      </trkpt>
      <trkpt lat="47.466235" lon="7.856461">
        <ele>402.427396</ele>
        <time>2021-11-15T23:00:05.271Z</time>
      </trkpt>
      <trkpt lat="47.466243" lon="7.856497">
        <ele>402.461050</ele>
        <time>2021-11-15T23:00:05.914Z</time>
      </trkpt>
      <trkpt lat="47.466284" lon="7.856540">
        <ele>402.527074</ele>
        <time>2021-11-15T23:00:07.068Z</time>
      </trkpt>
      <trkpt lat="47.466310" lon="7.856541">
        <ele>402.561241</ele>
        <time>2021-11-15T23:00:07.610Z</time>
      </trkpt>
      <trkpt lat="47.466322" lon="7.856655">
        <ele>402.663701</ele>
        <time>2021-11-15T23:00:09.384Z</time>
      </trkpt>
      <trkpt lat="47.466344" lon="7.856945">
        <ele>402.922859</ele>
        <time>2021-11-15T23:00:13.160Z</time>
      </trkpt>
      <trkpt lat="47.466347" lon="7.856973">
        <ele>402.948035</ele>
        <time>2021-11-15T23:00:13.827Z</time>
      </trkpt>
      <trkpt lat="47.466518" lon="7.858022">
        <ele>403.906322</ele>
        <time>2021-11-15T23:00:28.430Z</time>
      </trkpt>
      <trkpt lat="47.466576" lon="7.858236">
        <ele>404.111074</ele>
        <time>2021-11-15T23:00:31.353Z</time>
      </trkpt>
      <trkpt lat="47.466673" lon="7.858620">
        <ele>404.475121</ele>
        <time>2021-11-15T23:00:37.987Z</time>
      </trkpt>
      <trkpt lat="47.466824" lon="7.859137">
        <ele>404.865071</ele>
        <time>2021-11-15T23:00:47.346Z</time>
      </trkpt>
      <trkpt lat="47.466922" lon="7.859398">
        <ele>405.056146</ele>
        <time>2021-11-15T23:00:51.894Z</time>
      </trkpt>
      <trkpt lat="47.467047" lon="7.859682">
        <ele>405.273032</ele>
        <time>2021-11-15T23:00:57.489Z</time>
      </trkpt>
      <trkpt lat="47.467266" lon="7.860107">
        <ele>405.615036</ele>
        <time>2021-11-15T23:01:06.344Z</time>
      </trkpt>
      <trkpt lat="47.467944" lon="7.861300">
        <ele>406.763714</ele>
        <time>2021-11-15T23:01:31.062Z</time>
      </trkpt>
      <trkpt lat="47.468224" lon="7.861805">
        <ele>407.373868</ele>
        <time>2021-11-15T23:01:42.379Z</time>
      </trkpt>
      <trkpt lat="47.468543" lon="7.862357">
        <ele>408.052288</ele>
        <time>2021-11-15T23:01:55.067Z</time>
      </trkpt>
      <trkpt lat="47.468825" lon="7.862900">
        <ele>408.691963</ele>
        <time>2021-11-15T23:02:07.711Z</time>
      </trkpt>
      <trkpt lat="47.468859" lon="7.862978">
        <ele>408.781335</ele>
        <time>2021-11-15T23:02:09.511Z</time>
      </trkpt>
      <trkpt lat="47.468943" lon="7.863195">
        <ele>409.080724</ele>
        <time>2021-11-15T23:02:14.013Z</time>
      </trkpt>
      <trkpt lat="47.468986" lon="7.863323">
        <ele>409.251855</ele>
        <time>2021-11-15T23:02:16.681Z</time>
      </trkpt>
      <trkpt lat="47.469011" lon="7.863405">
        <ele>409.359554</ele>
        <time>2021-11-15T23:02:18.818Z</time>
      </trkpt>
      <trkpt lat="47.469305" lon="7.864692">
        <ele>410.986036</ele>
        <time>2021-11-15T23:02:43.972Z</time>
      </trkpt>
      <trkpt lat="47.469629" lon="7.865918">
        <ele>412.289798</ele>
        <time>2021-11-15T23:03:07.986Z</time>
      </trkpt>
      <trkpt lat="47.469710" lon="7.866208">
        <ele>412.497038</ele>
        <time>2021-11-15T23:03:12.966Z</time>
      </trkpt>
      <trkpt lat="47.469764" lon="7.866452">
        <ele>412.666606</ele>
        <time>2021-11-15T23:03:17.267Z</time>
      </trkpt>
      <trkpt lat="47.469808" lon="7.866690">
        <ele>412.829568</ele>
        <time>2021-11-15T23:03:21.122Z</time>
      </trkpt>
      <trkpt lat="47.469915" lon="7.867494">
        <ele>413.370768</ele>
        <time>2021-11-15T23:03:34.287Z</time>
      </trkpt>
      <trkpt lat="47.470127" lon="7.868484">
        <ele>414.018376</ele>
        <time>2021-11-15T23:03:49.682Z</time>
      </trkpt>
      <trkpt lat="47.470234" lon="7.868884">
        <ele>414.270930</ele>
        <time>2021-11-15T23:03:56.108Z</time>
      </trkpt>
      <trkpt lat="47.470309" lon="7.869201">
        <ele>414.468106</ele>
        <time>2021-11-15T23:04:01.478Z</time>
      </trkpt>
      <trkpt lat="47.470378" lon="7.869626">
        <ele>414.724713</ele>
        <time>2021-11-15T23:04:08.246Z</time>
      </trkpt>
      <trkpt lat="47.470397" lon="7.870147">
        <ele>415.031029</ele>
        <time>2021-11-15T23:04:16.979Z</time>
      </trkpt>
      <trkpt lat="47.470379" lon="7.870338">
        <ele>415.144247</ele>
        <time>2021-11-15T23:04:20.526Z</time>
      </trkpt>
      <trkpt lat="47.470350" lon="7.870570">
        <ele>415.290845</ele>
        <time>2021-11-15T23:04:23.445Z</time>
      </trkpt>
      <trkpt lat="47.470333" lon="7.870669">
        <ele>415.408075</ele>
        <time>2021-11-15T23:04:24.914Z</time>
      </trkpt>
      <trkpt lat="47.470316" lon="7.870753">
        <ele>415.508709</ele>
        <time>2021-11-15T23:04:26.424Z</time>
      </trkpt>
      <trkpt lat="47.470245" lon="7.871088">
        <ele>415.911639</ele>
        <time>2021-11-15T23:04:30.939Z</time>
      </trkpt>
      <trkpt lat="47.470217" lon="7.871214">
        <ele>416.063862</ele>
        <time>2021-11-15T23:04:32.969Z</time>
      </trkpt>
      <trkpt lat="47.470156" lon="7.871491">
        <ele>416.398217</ele>
        <time>2021-11-15T23:04:37.431Z</time>
      </trkpt>
      <trkpt lat="47.469969" lon="7.872276">
        <ele>417.353464</ele>
        <time>2021-11-15T23:04:49.788Z</time>
      </trkpt>
      <trkpt lat="47.469710" lon="7.873249">
        <ele>418.597599</ele>
        <time>2021-11-15T23:05:05.035Z</time>
      </trkpt>
      <trkpt lat="47.469682" lon="7.873326">
        <ele>418.717507</ele>
        <time>2021-11-15T23:05:06.812Z</time>
      </trkpt>
      <trkpt lat="47.469626" lon="7.873477">
        <ele>418.953709</ele>
        <time>2021-11-15T23:05:09.250Z</time>
      </trkpt>
      <trkpt lat="47.469489" lon="7.873809">
        <ele>419.487149</ele>
        <time>2021-11-15T23:05:15.279Z</time>
      </trkpt>
      <trkpt lat="47.469422" lon="7.873965">
        <ele>419.740620</ele>
        <time>2021-11-15T23:05:17.881Z</time>
      </trkpt>
      <trkpt lat="47.469224" lon="7.874328">
        <ele>420.380300</ele>
        <time>2021-11-15T23:05:25.158Z</time>
      </trkpt>
      <trkpt lat="47.469173" lon="7.874432">
        <ele>420.556505</ele>
        <time>2021-11-15T23:05:26.842Z</time>
      </trkpt>
      <trkpt lat="47.469136" lon="7.874516">
        <ele>420.694003</ele>
        <time>2021-11-15T23:05:28.336Z</time>
      </trkpt>
      <trkpt lat="47.469097" lon="7.874606">
        <ele>420.840615</ele>
        <time>2021-11-15T23:05:30.181Z</time>
      </trkpt>
      <trkpt lat="47.469068" lon="7.874689">
        <ele>420.968749</ele>
        <time>2021-11-15T23:05:32.027Z</time>
      </trkpt>
      <trkpt lat="47.469050" lon="7.874738">
        <ele>421.045230</ele>
        <time>2021-11-15T23:05:32.772Z</time>
      </trkpt>
      <trkpt lat="47.468989" lon="7.874967">
        <ele>421.382791</ele>
        <time>2021-11-15T23:05:36.372Z</time>
      </trkpt>
      <trkpt lat="47.468925" lon="7.875205">
        <ele>421.734069</ele>
        <time>2021-11-15T23:05:40.855Z</time>
      </trkpt>
      <trkpt lat="47.468806" lon="7.875696">
        <ele>423.185672</ele>
        <time>2021-11-15T23:05:48.695Z</time>
      </trkpt>
      <trkpt lat="47.468698" lon="7.876140">
        <ele>424.841662</ele>
        <time>2021-11-15T23:05:57.149Z</time>
      </trkpt>
      <trkpt lat="47.468639" lon="7.876439">
        <ele>425.934773</ele>
        <time>2021-11-15T23:06:03.262Z</time>
      </trkpt>
      <trkpt lat="47.468557" lon="7.876917">
        <ele>427.665455</ele>
        <time>2021-11-15T23:06:14.171Z</time>
      </trkpt>
      <trkpt lat="47.468377" lon="7.877826">
        <ele>430.989590</ele>
        <time>2021-11-15T23:06:43.876Z</time>
      </trkpt>
      <trkpt lat="47.468327" lon="7.877957">
        <ele>431.602243</ele>
        <time>2021-11-15T23:06:49.267Z</time>
      </trkpt>
      <trkpt lat="47.468308" lon="7.877998">
        <ele>431.849575</ele>
        <time>2021-11-15T23:06:52.441Z</time>
      </trkpt>
      <trkpt lat="47.468268" lon="7.878083">
        <ele>432.364889</ele>
        <time>2021-11-15T23:06:55.217Z</time>
      </trkpt>
      <trkpt lat="47.468104" lon="7.878354">
        <ele>434.174659</ele>
        <time>2021-11-15T23:07:05.820Z</time>
      </trkpt>
      <trkpt lat="47.468067" lon="7.878427">
        <ele>434.628636</ele>
        <time>2021-11-15T23:07:10.870Z</time>
      </trkpt>
      <trkpt lat="47.467908" lon="7.878819">
        <ele>436.903250</ele>
        <time>2021-11-15T23:07:24.045Z</time>
      </trkpt>
      <trkpt lat="47.467814" lon="7.879126">
        <ele>438.580161</ele>
        <time>2021-11-15T23:07:34.426Z</time>
      </trkpt>
      <trkpt lat="47.467758" lon="7.879308">
        <ele>439.575123</ele>
        <time>2021-11-15T23:07:41.543Z</time>
      </trkpt>
      <trkpt lat="47.467695" lon="7.879712">
        <ele>441.638083</ele>
        <time>2021-11-15T23:07:54.339Z</time>
      </trkpt>
      <trkpt lat="47.467712" lon="7.880819">
        <ele>444.835220</ele>
        <time>2021-11-15T23:08:23.485Z</time>
      </trkpt>
      <trkpt lat="47.467755" lon="7.881902">
        <ele>445.421372</ele>
        <time>2021-11-15T23:08:38.021Z</time>
      </trkpt>
      <trkpt lat="47.467789" lon="7.882188">
        <ele>445.578268</ele>
        <time>2021-11-15T23:08:40.342Z</time>
      </trkpt>
      <trkpt lat="47.467832" lon="7.882502">
        <ele>445.751368</ele>
        <time>2021-11-15T23:08:42.566Z</time>
      </trkpt>
      <trkpt lat="47.468085" lon="7.883534">
        <ele>444.610631</ele>
        <time>2021-11-15T23:08:49.947Z</time>
      </trkpt>
      <trkpt lat="47.468162" lon="7.884337">
        <ele>442.898803</ele>
        <time>2021-11-15T23:08:55.349Z</time>
      </trkpt>
      <trkpt lat="47.468175" lon="7.884477">
        <ele>442.600536</ele>
        <time>2021-11-15T23:08:56.275Z</time>
      </trkpt>
      <trkpt lat="47.468170" lon="7.884753">
        <ele>442.017785</ele>
        <time>2021-11-15T23:08:58.124Z</time>
      </trkpt>
      <trkpt lat="47.468160" lon="7.885131">
        <ele>441.219345</ele>
        <time>2021-11-15T23:09:00.839Z</time>
      </trkpt>
      <trkpt lat="47.468160" lon="7.885412">
        <ele>440.626250</ele>
        <time>2021-11-15T23:09:02.908Z</time>
      </trkpt>
      <trkpt lat="47.468174" lon="7.885724">
        <ele>440.283065</ele>
        <time>2021-11-15T23:09:05.148Z</time>
      </trkpt>
      <trkpt lat="47.468250" lon="7.886308">
        <ele>440.000140</ele>
        <time>2021-11-15T23:09:09.628Z</time>
      </trkpt>
      <trkpt lat="47.468546" lon="7.888014">
        <ele>439.162249</ele>
        <time>2021-11-15T23:09:26.450Z</time>
      </trkpt>
      <trkpt lat="47.468718" lon="7.888938">
        <ele>439.606847</ele>
        <time>2021-11-15T23:09:37.797Z</time>
      </trkpt>
      <trkpt lat="47.468951" lon="7.890216">
        <ele>440.383714</ele>
        <time>2021-11-15T23:09:54.778Z</time>
      </trkpt>
      <trkpt lat="47.469288" lon="7.891996">
        <ele>441.560513</ele>
        <time>2021-11-15T23:10:18.990Z</time>
      </trkpt>
      <trkpt lat="47.469496" lon="7.893085">
        <ele>442.301212</ele>
        <time>2021-11-15T23:10:33.055Z</time>
      </trkpt>
      <trkpt lat="47.469658" lon="7.894567">
        <ele>443.078667</ele>
        <time>2021-11-15T23:10:50.518Z</time>
      </trkpt>
      <trkpt lat="47.469691" lon="7.894970">
        <ele>443.281796</ele>
        <time>2021-11-15T23:10:55.082Z</time>
      </trkpt>
      <trkpt lat="47.469714" lon="7.895204">
        <ele>443.400118</ele>
        <time>2021-11-15T23:10:57.731Z</time>
      </trkpt>
      <trkpt lat="47.469728" lon="7.895384">
        <ele>443.490782</ele>
        <time>2021-11-15T23:10:59.734Z</time>
      </trkpt>
      <trkpt lat="47.469734" lon="7.895575">
        <ele>443.586459</ele>
        <time>2021-11-15T23:11:02.135Z</time>
      </trkpt>
      <trkpt lat="47.469747" lon="7.895922">
        <ele>443.797821</ele>
        <time>2021-11-15T23:11:06.198Z</time>
      </trkpt>
      <trkpt lat="47.469738" lon="7.896220">
        <ele>444.290719</ele>
        <time>2021-11-15T23:11:10.679Z</time>
      </trkpt>
      <trkpt lat="47.469692" lon="7.896826">
        <ele>445.298352</ele>
        <time>2021-11-15T23:11:19.824Z</time>
      </trkpt>
      <trkpt lat="47.469678" lon="7.896938">
        <ele>445.486556</ele>
        <time>2021-11-15T23:11:21.388Z</time>
      </trkpt>
      <trkpt lat="47.469652" lon="7.897139">
        <ele>445.824710</ele>
        <time>2021-11-15T23:11:24.802Z</time>
      </trkpt>
      <trkpt lat="47.469598" lon="7.897405">
        <ele>446.283635</ele>
        <time>2021-11-15T23:11:29.281Z</time>
      </trkpt>
      <trkpt lat="47.469534" lon="7.897638">
        <ele>446.699210</ele>
        <time>2021-11-15T23:11:33.549Z</time>
      </trkpt>
      <trkpt lat="47.469806" lon="7.897795">
        <ele>447.412910</ele>
        <time>2021-11-15T23:11:40.796Z</time>
      </trkpt>
      <trkpt lat="47.469999" lon="7.897879">
        <ele>447.904676</ele>
        <time>2021-11-15T23:11:46.469Z</time>
      </trkpt>
      <trkpt lat="47.471002" lon="7.898222">
        <ele>452.728754</ele>
        <time>2021-11-15T23:12:21.599Z</time>
      </trkpt>
      <trkpt lat="47.471597" lon="7.898344">
        <ele>455.683002</ele>
        <time>2021-11-15T23:12:43.707Z</time>
      </trkpt>
      <trkpt lat="47.471825" lon="7.898370">
        <ele>456.807658</ele>
        <time>2021-11-15T23:12:51.665Z</time>
      </trkpt>
      <trkpt lat="47.471910" lon="7.898392">
        <ele>457.240984</ele>
        <time>2021-11-15T23:12:55.047Z</time>
      </trkpt>
      <trkpt lat="47.473317" lon="7.898945">
        <ele>464.661569</ele>
        <time>2021-11-15T23:13:47.690Z</time>
      </trkpt>
      <trkpt lat="47.473931" lon="7.899567">
        <ele>468.364229</ele>
        <time>2021-11-15T23:14:10.963Z</time>
      </trkpt>
      <trkpt lat="47.474087" lon="7.899774">
        <ele>469.390372</ele>
        <time>2021-11-15T23:14:18.483Z</time>
      </trkpt>
      <trkpt lat="47.474186" lon="7.899915">
        <ele>470.063287</ele>
        <time>2021-11-15T23:14:23.140Z</time>
      </trkpt>
      <trkpt lat="47.474336" lon="7.900125">
        <ele>471.074545</ele>
        <time>2021-11-15T23:14:30.419Z</time>
      </trkpt>
      <trkpt lat="47.474617" lon="7.900560">
        <ele>473.066116</ele>
        <time>2021-11-15T23:14:44.527Z</time>
      </trkpt>
      <trkpt lat="47.474888" lon="7.900841">
        <ele>474.686620</ele>
        <time>2021-11-15T23:14:55.854Z</time>
      </trkpt>
      <trkpt lat="47.475163" lon="7.901034">
        <ele>476.380600</ele>
        <time>2021-11-15T23:15:06.396Z</time>
      </trkpt>
      <trkpt lat="47.475300" lon="7.901112">
        <ele>477.219861</ele>
        <time>2021-11-15T23:15:12.768Z</time>
      </trkpt>
      <trkpt lat="47.476364" lon="7.901870">
        <ele>483.971524</ele>
        <time>2021-11-15T23:15:57.325Z</time>
      </trkpt>
      <trkpt lat="47.476536" lon="7.901977">
        <ele>485.038285</ele>
        <time>2021-11-15T23:16:04.169Z</time>
      </trkpt>
      <trkpt lat="47.476536" lon="7.901977">
        <ele>485.038285</ele>
        <time>2021-11-15T23:16:04.347Z</time>
      </trkpt>
      <trkpt lat="47.476834" lon="7.902149">
        <ele>487.060979</ele>
        <time>2021-11-15T23:16:15.465Z</time>
      </trkpt>
      <trkpt lat="47.476982" lon="7.902234">
        <ele>488.077192</ele>
        <time>2021-11-15T23:16:23.449Z</time>
      </trkpt>
      <trkpt lat="47.478118" lon="7.903075">
        <ele>496.208152</ele>
        <time>2021-11-15T23:17:15.891Z</time>
      </trkpt>
      <trkpt lat="47.478182" lon="7.903109">
        <ele>496.643421</ele>
        <time>2021-11-15T23:17:19.344Z</time>
      </trkpt>
      <trkpt lat="47.478367" lon="7.903166">
        <ele>497.677275</ele>
        <time>2021-11-15T23:17:26.628Z</time>
      </trkpt>
      <trkpt lat="47.480980" lon="7.903461">
        <ele>512.080204</ele>
        <time>2021-11-15T23:18:59.085Z</time>
      </trkpt>
      <trkpt lat="47.481478" lon="7.903693">
        <ele>515.054969</ele>
        <time>2021-11-15T23:19:18.656Z</time>
      </trkpt>
      <trkpt lat="47.481588" lon="7.903776">
        <ele>515.758503</ele>
        <time>2021-11-15T23:19:23.502Z</time>
      </trkpt>
      <trkpt lat="47.481709" lon="7.903892">
        <ele>516.579977</ele>
        <time>2021-11-15T23:19:29.852Z</time>
      </trkpt>
      <trkpt lat="47.482157" lon="7.904346">
        <ele>520.193926</ele>
        <time>2021-11-15T23:19:53.997Z</time>
      </trkpt>
      <trkpt lat="47.482433" lon="7.904538">
        <ele>522.232603</ele>
        <time>2021-11-15T23:20:07.959Z</time>
      </trkpt>
      <trkpt lat="47.483101" lon="7.904680">
        <ele>526.743773</ele>
        <time>2021-11-15T23:20:39.059Z</time>
      </trkpt>
      <trkpt lat="47.483329" lon="7.904705">
        <ele>528.272046</ele>
        <time>2021-11-15T23:20:47.478Z</time>
      </trkpt>
      <trkpt lat="47.483385" lon="7.904708">
        <ele>528.646630</ele>
        <time>2021-11-15T23:20:49.858Z</time>
      </trkpt>
      <trkpt lat="47.484005" lon="7.904793">
        <ele>529.313870</ele>
        <time>2021-11-15T23:21:06.085Z</time>
      </trkpt>
      <trkpt lat="47.484064" lon="7.904808">
        <ele>529.374128</ele>
        <time>2021-11-15T23:21:07.181Z</time>
      </trkpt>
      <trkpt lat="47.484124" lon="7.904824">
        <ele>529.435496</ele>
        <time>2021-11-15T23:21:08.574Z</time>
      </trkpt>
      <trkpt lat="47.484248" lon="7.904856">
        <ele>529.562196</ele>
        <time>2021-11-15T23:21:11.133Z</time>
      </trkpt>
      <trkpt lat="47.484481" lon="7.904947">
        <ele>529.804760</ele>
        <time>2021-11-15T23:21:15.502Z</time>
      </trkpt>
      <trkpt lat="47.484713" lon="7.905133">
        <ele>530.070360</ele>
        <time>2021-11-15T23:21:20.124Z</time>
      </trkpt>
      <trkpt lat="47.484936" lon="7.905289">
        <ele>530.318646</ele>
        <time>2021-11-15T23:21:22.835Z</time>
      </trkpt>
      <trkpt lat="47.485049" lon="7.905336">
        <ele>530.436797</ele>
        <time>2021-11-15T23:21:24.141Z</time>
      </trkpt>
      <trkpt lat="47.485073" lon="7.905345">
        <ele>530.461719</ele>
        <time>2021-11-15T23:21:24.352Z</time>
      </trkpt>
      <trkpt lat="47.485331" lon="7.905337">
        <ele>529.380361</ele>
        <time>2021-11-15T23:21:27.039Z</time>
      </trkpt>
      <trkpt lat="47.485593" lon="7.905145">
        <ele>527.853346</ele>
        <time>2021-11-15T23:21:29.945Z</time>
      </trkpt>
      <trkpt lat="47.486049" lon="7.904262">
        <ele>523.930947</ele>
        <time>2021-11-15T23:21:36.802Z</time>
      </trkpt>
      <trkpt lat="47.486247" lon="7.904043">
        <ele>522.639859</ele>
        <time>2021-11-15T23:21:38.993Z</time>
      </trkpt>
      <trkpt lat="47.486480" lon="7.904016">
        <ele>521.419191</ele>
        <time>2021-11-15T23:21:41.160Z</time>
      </trkpt>
      <trkpt lat="47.486688" lon="7.904238">
        <ele>520.008462</ele>
        <time>2021-11-15T23:21:43.572Z</time>
      </trkpt>
      <trkpt lat="47.486721" lon="7.904326">
        <ele>519.628691</ele>
        <time>2021-11-15T23:21:44.175Z</time>
      </trkpt>
      <trkpt lat="47.486755" lon="7.904487">
        <ele>518.992184</ele>
        <time>2021-11-15T23:21:45.194Z</time>
      </trkpt>
      <trkpt lat="47.486724" lon="7.905485">
        <ele>515.222264</ele>
        <time>2021-11-15T23:21:51.357Z</time>
      </trkpt>
      <trkpt lat="47.486769" lon="7.905976">
        <ele>513.352517</ele>
        <time>2021-11-15T23:21:54.444Z</time>
      </trkpt>
      <trkpt lat="47.486969" lon="7.906583">
        <ele>510.913724</ele>
        <time>2021-11-15T23:21:58.736Z</time>
      </trkpt>
      <trkpt lat="47.487197" lon="7.906946">
        <ele>509.823246</ele>
        <time>2021-11-15T23:22:02.287Z</time>
      </trkpt>
      <trkpt lat="47.487378" lon="7.907191">
        <ele>509.024517</ele>
        <time>2021-11-15T23:22:04.865Z</time>
      </trkpt>
      <trkpt lat="47.487587" lon="7.907459">
        <ele>508.124032</ele>
        <time>2021-11-15T23:22:07.735Z</time>
      </trkpt>
      <trkpt lat="47.487763" lon="7.907711">
        <ele>507.326610</ele>
        <time>2021-11-15T23:22:10.254Z</time>
      </trkpt>
      <trkpt lat="47.488080" lon="7.908344">
        <ele>505.593009</ele>
        <time>2021-11-15T23:22:15.613Z</time>
      </trkpt>
      <trkpt lat="47.488185" lon="7.908663">
        <ele>504.752142</ele>
        <time>2021-11-15T23:22:18.144Z</time>
      </trkpt>
      <trkpt lat="47.488241" lon="7.908835">
        <ele>504.268577</ele>
        <time>2021-11-15T23:22:19.401Z</time>
      </trkpt>
      <trkpt lat="47.488366" lon="7.909318">
        <ele>502.958604</ele>
        <time>2021-11-15T23:22:23.005Z</time>
      </trkpt>
      <trkpt lat="47.488699" lon="7.910498">
        <ele>499.719801</ele>
        <time>2021-11-15T23:22:31.527Z</time>
      </trkpt>
      <trkpt lat="47.488908" lon="7.911009">
        <ele>498.219723</ele>
        <time>2021-11-15T23:22:35.363Z</time>
      </trkpt>
      <trkpt lat="47.489040" lon="7.911300">
        <ele>497.375326</ele>
        <time>2021-11-15T23:22:37.574Z</time>
      </trkpt>
      <trkpt lat="47.489216" lon="7.911685">
        <ele>496.255460</ele>
        <time>2021-11-15T23:22:40.664Z</time>
      </trkpt>
      <trkpt lat="47.489607" lon="7.912646">
        <ele>493.552922</ele>
        <time>2021-11-15T23:22:48.177Z</time>
      </trkpt>
      <trkpt lat="47.489843" lon="7.913398">
        <ele>491.726575</ele>
        <time>2021-11-15T23:22:54.049Z</time>
      </trkpt>
      <trkpt lat="47.489922" lon="7.913738">
        <ele>491.156709</ele>
        <time>2021-11-15T23:22:56.759Z</time>
      </trkpt>
      <trkpt lat="47.489951" lon="7.913893">
        <ele>490.901792</ele>
        <time>2021-11-15T23:22:57.952Z</time>
      </trkpt>
      <trkpt lat="47.489987" lon="7.914083">
        <ele>490.589030</ele>
        <time>2021-11-15T23:22:59.424Z</time>
      </trkpt>
      <trkpt lat="47.490283" lon="7.915612">
        <ele>488.068095</ele>
        <time>2021-11-15T23:23:10.967Z</time>
      </trkpt>
      <trkpt lat="47.490429" lon="7.916164">
        <ele>486.898268</ele>
        <time>2021-11-15T23:23:15.214Z</time>
      </trkpt>
      <trkpt lat="47.490607" lon="7.916690">
        <ele>485.662741</ele>
        <time>2021-11-15T23:23:19.423Z</time>
      </trkpt>
      <trkpt lat="47.490822" lon="7.917158">
        <ele>484.474174</ele>
        <time>2021-11-15T23:23:23.340Z</time>
      </trkpt>
      <trkpt lat="47.491324" lon="7.917985">
        <ele>482.090810</ele>
        <time>2021-11-15T23:23:30.791Z</time>
      </trkpt>
      <trkpt lat="47.492227" lon="7.918989">
        <ele>476.987394</ele>
        <time>2021-11-15T23:23:41.642Z</time>
      </trkpt>
      <trkpt lat="47.492584" lon="7.919482">
        <ele>474.781098</ele>
        <time>2021-11-15T23:23:46.248Z</time>
      </trkpt>
      <trkpt lat="47.492813" lon="7.919900">
        <ele>473.161882</ele>
        <time>2021-11-15T23:23:49.674Z</time>
      </trkpt>
      <trkpt lat="47.493132" lon="7.920716">
        <ele>470.353347</ele>
        <time>2021-11-15T23:23:55.729Z</time>
      </trkpt>
      <trkpt lat="47.493236" lon="7.921091">
        <ele>469.145733</ele>
        <time>2021-11-15T23:23:58.354Z</time>
      </trkpt>
      <trkpt lat="47.493307" lon="7.921373">
        <ele>468.249193</ele>
        <time>2021-11-15T23:24:00.330Z</time>
      </trkpt>
      <trkpt lat="47.493397" lon="7.921760">
        <ele>467.029898</ele>
        <time>2021-11-15T23:24:03.035Z</time>
      </trkpt>
      <trkpt lat="47.493708" lon="7.923049">
        <ele>463.685086</ele>
        <time>2021-11-15T23:24:12.224Z</time>
      </trkpt>
      <trkpt lat="47.494034" lon="7.924101">
        <ele>461.017810</ele>
        <time>2021-11-15T23:24:20.164Z</time>
      </trkpt>
      <trkpt lat="47.494438" lon="7.925289">
        <ele>457.752188</ele>
        <time>2021-11-15T23:24:29.242Z</time>
      </trkpt>
      <trkpt lat="47.494515" lon="7.925509">
        <ele>457.126694</ele>
        <time>2021-11-15T23:24:30.853Z</time>
      </trkpt>
      <trkpt lat="47.494945" lon="7.926765">
        <ele>453.572060</ele>
        <time>2021-11-15T23:24:40.234Z</time>
      </trkpt>
      <trkpt lat="47.495031" lon="7.927006">
        <ele>452.934553</ele>
        <time>2021-11-15T23:24:41.954Z</time>
      </trkpt>
      <trkpt lat="47.495268" lon="7.927740">
        <ele>451.111850</ele>
        <time>2021-11-15T23:24:47.325Z</time>
      </trkpt>
      <trkpt lat="47.495455" lon="7.928595">
        <ele>449.098324</ele>
        <time>2021-11-15T23:24:53.458Z</time>
      </trkpt>
      <trkpt lat="47.495530" lon="7.929063">
        <ele>448.020664</ele>
        <time>2021-11-15T23:24:56.766Z</time>
      </trkpt>
      <trkpt lat="47.495562" lon="7.929221">
        <ele>447.651098</ele>
        <time>2021-11-15T23:24:58.011Z</time>
      </trkpt>
      <trkpt lat="47.495622" lon="7.929400">
        <ele>447.286275</ele>
        <time>2021-11-15T23:24:59.519Z</time>
      </trkpt>
      <trkpt lat="47.495801" lon="7.929891">
        <ele>446.662392</ele>
        <time>2021-11-15T23:25:03.658Z</time>
      </trkpt>
      <trkpt lat="47.495985" lon="7.930428">
        <ele>445.989093</ele>
        <time>2021-11-15T23:25:08.050Z</time>
      </trkpt>
      <trkpt lat="47.496051" lon="7.930607">
        <ele>445.761063</ele>
        <time>2021-11-15T23:25:09.641Z</time>
      </trkpt>
      <trkpt lat="47.496117" lon="7.930763">
        <ele>445.555241</ele>
        <time>2021-11-15T23:25:11.028Z</time>
      </trkpt>
      <trkpt lat="47.496162" lon="7.930842">
        <ele>445.439695</ele>
        <time>2021-11-15T23:25:11.899Z</time>
      </trkpt>
      <trkpt lat="47.496205" lon="7.930904">
        <ele>445.340339</ele>
        <time>2021-11-15T23:25:12.524Z</time>
      </trkpt>
      <trkpt lat="47.496424" lon="7.931075">
        <ele>444.930533</ele>
        <time>2021-11-15T23:25:15.882Z</time>
      </trkpt>
      <trkpt lat="47.496998" lon="7.931330">
        <ele>443.909459</ele>
        <time>2021-11-15T23:25:23.457Z</time>
      </trkpt>
      <trkpt lat="47.497104" lon="7.931414">
        <ele>443.697643</ele>
        <time>2021-11-15T23:25:24.872Z</time>
      </trkpt>
      <trkpt lat="47.497221" lon="7.931528">
        <ele>443.450877</ele>
        <time>2021-11-15T23:25:26.524Z</time>
      </trkpt>
      <trkpt lat="47.497430" lon="7.931757">
        <ele>442.992784</ele>
        <time>2021-11-15T23:25:29.367Z</time>
      </trkpt>
      <trkpt lat="47.497676" lon="7.932013">
        <ele>442.463023</ele>
        <time>2021-11-15T23:25:32.528Z</time>
      </trkpt>
      <trkpt lat="47.497907" lon="7.932254">
        <ele>441.965148</ele>
        <time>2021-11-15T23:25:35.623Z</time>
      </trkpt>
      <trkpt lat="47.498068" lon="7.932426">
        <ele>441.615359</ele>
        <time>2021-11-15T23:25:37.760Z</time>
      </trkpt>
      <trkpt lat="47.498138" lon="7.932522">
        <ele>441.447246</ele>
        <time>2021-11-15T23:25:38.763Z</time>
      </trkpt>
      <trkpt lat="47.498196" lon="7.932613">
        <ele>441.298348</ele>
        <time>2021-11-15T23:25:39.672Z</time>
      </trkpt>
      <trkpt lat="47.498391" lon="7.932972">
        <ele>440.839784</ele>
        <time>2021-11-15T23:25:43.180Z</time>
      </trkpt>
      <trkpt lat="47.498431" lon="7.932995">
        <ele>440.778513</ele>
        <time>2021-11-15T23:25:43.669Z</time>
      </trkpt>
      <trkpt lat="47.498481" lon="7.933011">
        <ele>440.705472</ele>
        <time>2021-11-15T23:25:44.222Z</time>
      </trkpt>
      <trkpt lat="47.498925" lon="7.932781">
        <ele>440.033811</ele>
        <time>2021-11-15T23:25:49.819Z</time>
      </trkpt>
      <trkpt lat="47.498997" lon="7.932758">
        <ele>439.928641</ele>
        <time>2021-11-15T23:25:50.615Z</time>
      </trkpt>
      <trkpt lat="47.499088" lon="7.932741">
        <ele>439.797677</ele>
        <time>2021-11-15T23:25:51.810Z</time>
      </trkpt>
      <trkpt lat="47.499354" lon="7.932769">
        <ele>439.416915</ele>
        <time>2021-11-15T23:25:54.945Z</time>
      </trkpt>
      <trkpt lat="47.499421" lon="7.932805">
        <ele>439.315142</ele>
        <time>2021-11-15T23:25:55.811Z</time>
      </trkpt>
      <trkpt lat="47.499538" lon="7.932868">
        <ele>439.137375</ele>
        <time>2021-11-15T23:25:57.217Z</time>
      </trkpt>
      <trkpt lat="47.499822" lon="7.933272">
        <ele>438.628065</ele>
        <time>2021-11-15T23:26:01.765Z</time>
      </trkpt>
      <trkpt lat="47.499993" lon="7.933864">
        <ele>438.417909</ele>
        <time>2021-11-15T23:26:07.243Z</time>
      </trkpt>
      <trkpt lat="47.500034" lon="7.933965">
        <ele>438.379448</ele>
        <time>2021-11-15T23:26:08.131Z</time>
      </trkpt>
      <trkpt lat="47.500007" lon="7.933994">
        <ele>438.363331</ele>
        <time>2021-11-15T23:26:08.618Z</time>
      </trkpt>
      <trkpt lat="47.499971" lon="7.934127">
        <ele>438.316564</ele>
        <time>2021-11-15T23:26:10.339Z</time>
      </trkpt>
      <trkpt lat="47.499976" lon="7.934175">
        <ele>438.300711</ele>
        <time>2021-11-15T23:26:11.022Z</time>
      </trkpt>
      <trkpt lat="47.499991" lon="7.934221">
        <ele>438.284039</ele>
        <time>2021-11-15T23:26:11.417Z</time>
      </trkpt>
      <trkpt lat="47.500077" lon="7.934300">
        <ele>438.235137</ele>
        <time>2021-11-15T23:26:12.603Z</time>
      </trkpt>
      <trkpt lat="47.500111" lon="7.934299">
        <ele>438.218707</ele>
        <time>2021-11-15T23:26:13.145Z</time>
      </trkpt>
      <trkpt lat="47.500150" lon="7.934279">
        <ele>438.198765</ele>
        <time>2021-11-15T23:26:13.691Z</time>
      </trkpt>
      <trkpt lat="47.500213" lon="7.934131">
        <ele>438.141667</ele>
        <time>2021-11-15T23:26:16.033Z</time>
      </trkpt>
      <trkpt lat="47.500208" lon="7.934071">
        <ele>438.121934</ele>
        <time>2021-11-15T23:26:16.803Z</time>
      </trkpt>
      <trkpt lat="47.500275" lon="7.934029">
        <ele>438.086780</ele>
        <time>2021-11-15T23:26:17.663Z</time>
      </trkpt>
      <trkpt lat="47.500352" lon="7.933976">
        <ele>438.045752</ele>
        <time>2021-11-15T23:26:18.873Z</time>
      </trkpt>
      <trkpt lat="47.500386" lon="7.933937">
        <ele>438.024970</ele>
        <time>2021-11-15T23:26:19.519Z</time>
      </trkpt>
      <trkpt lat="47.500435" lon="7.933872">
        <ele>437.993180</ele>
        <time>2021-11-15T23:26:20.634Z</time>
      </trkpt>
      <trkpt lat="47.500843" lon="7.933102">
        <ele>437.618200</ele>
        <time>2021-11-15T23:26:29.845Z</time>
      </trkpt>
      <trkpt lat="47.500990" lon="7.932950">
        <ele>437.488754</ele>
        <time>2021-11-15T23:26:32.456Z</time>
      </trkpt>
      <trkpt lat="47.501075" lon="7.932885">
        <ele>437.419689</ele>
        <time>2021-11-15T23:26:33.464Z</time>
      </trkpt>
      <trkpt lat="47.501463" lon="7.932668">
        <ele>437.120269</ele>
        <time>2021-11-15T23:26:38.467Z</time>
      </trkpt>
      <trkpt lat="47.501794" lon="7.932466">
        <ele>436.861812</ele>
        <time>2021-11-15T23:26:43.140Z</time>
      </trkpt>
      <trkpt lat="47.501901" lon="7.932351">
        <ele>436.766356</ele>
        <time>2021-11-15T23:26:45.284Z</time>
      </trkpt>
      <trkpt lat="47.502023" lon="7.932158">
        <ele>436.637455</ele>
        <time>2021-11-15T23:26:47.303Z</time>
      </trkpt>
      <trkpt lat="47.502400" lon="7.931256">
        <ele>436.061891</ele>
        <time>2021-11-15T23:26:56.275Z</time>
      </trkpt>
      <trkpt lat="47.502613" lon="7.930856">
        <ele>435.774118</ele>
        <time>2021-11-15T23:27:00.360Z</time>
      </trkpt>
      <trkpt lat="47.502761" lon="7.930610">
        <ele>435.587997</ele>
        <time>2021-11-15T23:27:03.264Z</time>
      </trkpt>
      <trkpt lat="47.503014" lon="7.930220">
        <ele>435.282498</ele>
        <time>2021-11-15T23:27:07.986Z</time>
      </trkpt>
      <trkpt lat="47.503485" lon="7.929688">
        <ele>434.581180</ele>
        <time>2021-11-15T23:27:15.769Z</time>
      </trkpt>
      <trkpt lat="47.503528" lon="7.929650">
        <ele>434.495422</ele>
        <time>2021-11-15T23:27:16.253Z</time>
      </trkpt>
      <trkpt lat="47.503598" lon="7.929585">
        <ele>434.353920</ele>
        <time>2021-11-15T23:27:17.707Z</time>
      </trkpt>
      <trkpt lat="47.503815" lon="7.929426">
        <ele>433.939292</ele>
        <time>2021-11-15T23:27:20.394Z</time>
      </trkpt>
      <trkpt lat="47.504005" lon="7.929312">
        <ele>433.588221</ele>
        <time>2021-11-15T23:27:23.622Z</time>
      </trkpt>
      <trkpt lat="47.504650" lon="7.928941">
        <ele>432.403254</ele>
        <time>2021-11-15T23:27:31.341Z</time>
      </trkpt>
      <trkpt lat="47.504724" lon="7.928871">
        <ele>432.252871</ele>
        <time>2021-11-15T23:27:32.306Z</time>
      </trkpt>
      <trkpt lat="47.504799" lon="7.928777">
        <ele>432.084589</ele>
        <time>2021-11-15T23:27:33.180Z</time>
      </trkpt>
      <trkpt lat="47.505253" lon="7.928170">
        <ele>430.028117</ele>
        <time>2021-11-15T23:27:39.530Z</time>
      </trkpt>
      <trkpt lat="47.505814" lon="7.927657">
        <ele>427.584125</ele>
        <time>2021-11-15T23:27:45.832Z</time>
      </trkpt>
      <trkpt lat="47.505868" lon="7.927611">
        <ele>427.353210</ele>
        <time>2021-11-15T23:27:46.451Z</time>
      </trkpt>
      <trkpt lat="47.505881" lon="7.927601">
        <ele>427.298910</ele>
        <time>2021-11-15T23:27:46.587Z</time>
      </trkpt>
      <trkpt lat="47.506112" lon="7.927414">
        <ele>426.323085</ele>
        <time>2021-11-15T23:27:49.047Z</time>
      </trkpt>
      <trkpt lat="47.507856" lon="7.925990">
        <ele>420.665039</ele>
        <time>2021-11-15T23:28:09.819Z</time>
      </trkpt>
      <trkpt lat="47.508002" lon="7.925879">
        <ele>420.254946</ele>
        <time>2021-11-15T23:28:11.626Z</time>
      </trkpt>
      <trkpt lat="47.508106" lon="7.925799">
        <ele>419.997353</ele>
        <time>2021-11-15T23:28:13.023Z</time>
      </trkpt>
      <trkpt lat="47.508355" lon="7.925609">
        <ele>419.381666</ele>
        <time>2021-11-15T23:28:16.186Z</time>
      </trkpt>
      <trkpt lat="47.508667" lon="7.925295">
        <ele>418.552483</ele>
        <time>2021-11-15T23:28:20.442Z</time>
      </trkpt>
      <trkpt lat="47.509016" lon="7.924882">
        <ele>417.570487</ele>
        <time>2021-11-15T23:28:25.160Z</time>
      </trkpt>
      <trkpt lat="47.509032" lon="7.924863">
        <ele>417.525406</ele>
        <time>2021-11-15T23:28:25.365Z</time>
      </trkpt>
      <trkpt lat="47.509223" lon="7.924628">
        <ele>416.979564</ele>
        <time>2021-11-15T23:28:28.031Z</time>
      </trkpt>
      <trkpt lat="47.509572" lon="7.924311">
        <ele>416.122900</ele>
        <time>2021-11-15T23:28:32.377Z</time>
      </trkpt>
      <trkpt lat="47.509605" lon="7.924290">
        <ele>416.053359</ele>
        <time>2021-11-15T23:28:32.719Z</time>
      </trkpt>
      <trkpt lat="47.509676" lon="7.924247">
        <ele>415.904843</ele>
        <time>2021-11-15T23:28:33.520Z</time>
      </trkpt>
      <trkpt lat="47.509806" lon="7.924174">
        <ele>415.635661</ele>
        <time>2021-11-15T23:28:35.129Z</time>
      </trkpt>
      <trkpt lat="47.509886" lon="7.924134">
        <ele>415.472183</ele>
        <time>2021-11-15T23:28:36.061Z</time>
      </trkpt>
      <trkpt lat="47.509869" lon="7.923971">
        <ele>415.256499</ele>
        <time>2021-11-15T23:28:37.182Z</time>
      </trkpt>
      <trkpt lat="47.509817" lon="7.923703">
        <ele>414.891856</ele>
        <time>2021-11-15T23:28:39.366Z</time>
      </trkpt>
      <trkpt lat="47.509781" lon="7.923630">
        <ele>414.773656</ele>
        <time>2021-11-15T23:28:40.025Z</time>
      </trkpt>
      <trkpt lat="47.509668" lon="7.923400">
        <ele>414.401731</ele>
        <time>2021-11-15T23:28:42.068Z</time>
      </trkpt>
      <trkpt lat="47.509595" lon="7.923295">
        <ele>414.204681</ele>
        <time>2021-11-15T23:28:43.295Z</time>
      </trkpt>
      <trkpt lat="47.509550" lon="7.923245">
        <ele>414.095752</ele>
        <time>2021-11-15T23:28:43.920Z</time>
      </trkpt>
      <trkpt lat="47.509583" lon="7.922962">
        <ele>413.720190</ele>
        <time>2021-11-15T23:28:46.019Z</time>
      </trkpt>
      <trkpt lat="47.509615" lon="7.922742">
        <ele>413.425895</ele>
        <time>2021-11-15T23:28:47.873Z</time>
      </trkpt>
      <trkpt lat="47.509688" lon="7.922616">
        <ele>413.208812</ele>
        <time>2021-11-15T23:28:49.027Z</time>
      </trkpt>
      <trkpt lat="47.510639" lon="7.921796">
        <ele>412.066074</ele>
        <time>2021-11-15T23:29:02.626Z</time>
      </trkpt>
      <trkpt lat="47.510872" lon="7.921477">
        <ele>411.774130</ele>
        <time>2021-11-15T23:29:06.724Z</time>
      </trkpt>
      <trkpt lat="47.511052" lon="7.921232">
        <ele>411.549200</ele>
        <time>2021-11-15T23:29:09.851Z</time>
      </trkpt>
      <trkpt lat="47.511067" lon="7.921207">
        <ele>411.528422</ele>
        <time>2021-11-15T23:29:10.122Z</time>
      </trkpt>
      <trkpt lat="47.511186" lon="7.920984">
        <ele>411.351834</ele>
        <time>2021-11-15T23:29:12.617Z</time>
      </trkpt>
      <trkpt lat="47.511613" lon="7.920183">
        <ele>410.444793</ele>
        <time>2021-11-15T23:29:21.179Z</time>
      </trkpt>
      <trkpt lat="47.511632" lon="7.920105">
        <ele>410.369355</ele>
        <time>2021-11-15T23:29:21.926Z</time>
      </trkpt>
      <trkpt lat="47.511883" lon="7.920133">
        <ele>410.030308</ele>
        <time>2021-11-15T23:29:26.055Z</time>
      </trkpt>
      <trkpt lat="47.511964" lon="7.919989">
        <ele>409.859816</ele>
        <time>2021-11-15T23:29:27.511Z</time>
      </trkpt>
      <trkpt lat="47.512085" lon="7.919732">
        <ele>409.574801</ele>
        <time>2021-11-15T23:29:29.901Z</time>
      </trkpt>
      <trkpt lat="47.512255" lon="7.919538">
        <ele>409.285690</ele>
        <time>2021-11-15T23:29:32.328Z</time>
      </trkpt>
      <trkpt lat="47.512664" lon="7.919306">
        <ele>408.622831</ele>
        <time>2021-11-15T23:29:37.217Z</time>
      </trkpt>
      <trkpt lat="47.512938" lon="7.919052">
        <ele>408.018028</ele>
        <time>2021-11-15T23:29:40.782Z</time>
      </trkpt>
      <trkpt lat="47.513058" lon="7.918896">
        <ele>407.719266</ele>
        <time>2021-11-15T23:29:42.506Z</time>
      </trkpt>
      <trkpt lat="47.513160" lon="7.918764">
        <ele>407.465818</ele>
        <time>2021-11-15T23:29:43.983Z</time>
      </trkpt>
      <trkpt lat="47.513378" lon="7.918393">
        <ele>406.844441</ele>
        <time>2021-11-15T23:29:47.646Z</time>
      </trkpt>
      <trkpt lat="47.514255" lon="7.917714">
        <ele>405.179975</ele>
        <time>2021-11-15T23:29:58.720Z</time>
      </trkpt>
      <trkpt lat="47.514561" lon="7.917409">
        <ele>404.735626</ele>
        <time>2021-11-15T23:30:03.032Z</time>
      </trkpt>
      <trkpt lat="47.514635" lon="7.917349">
        <ele>404.633995</ele>
        <time>2021-11-15T23:30:03.975Z</time>
      </trkpt>
      <trkpt lat="47.515014" lon="7.917030">
        <ele>404.108840</ele>
        <time>2021-11-15T23:30:09.339Z</time>
      </trkpt>
      <trkpt lat="47.516391" lon="7.915243">
        <ele>402.269550</ele>
        <time>2021-11-15T23:30:32.041Z</time>
      </trkpt>
      <trkpt lat="47.516544" lon="7.914936">
        <ele>402.037671</ele>
        <time>2021-11-15T23:30:35.212Z</time>
      </trkpt>
      <trkpt lat="47.516569" lon="7.914864">
        <ele>401.988469</ele>
        <time>2021-11-15T23:30:35.991Z</time>
      </trkpt>
      <trkpt lat="47.516590" lon="7.914840">
        <ele>401.964597</ele>
        <time>2021-11-15T23:30:36.307Z</time>
      </trkpt>
      <trkpt lat="47.516626" lon="7.914830">
        <ele>401.931636</ele>
        <time>2021-11-15T23:30:36.786Z</time>
      </trkpt>
      <trkpt lat="47.516662" lon="7.914835">
        <ele>401.899099</ele>
        <time>2021-11-15T23:30:37.220Z</time>
      </trkpt>
      <trkpt lat="47.516748" lon="7.914873">
        <ele>401.818338</ele>
        <time>2021-11-15T23:30:38.296Z</time>
      </trkpt>
      <trkpt lat="47.516806" lon="7.914896">
        <ele>401.764306</ele>
        <time>2021-11-15T23:30:39.001Z</time>
      </trkpt>
      <trkpt lat="47.517140" lon="7.915259">
        <ele>401.360389</ele>
        <time>2021-11-15T23:30:44.164Z</time>
      </trkpt>
      <trkpt lat="47.517281" lon="7.915238">
        <ele>401.221260</ele>
        <time>2021-11-15T23:30:45.972Z</time>
      </trkpt>
      <trkpt lat="47.517688" lon="7.914418">
        <ele>400.546513</ele>
        <time>2021-11-15T23:30:54.344Z</time>
      </trkpt>
      <trkpt lat="47.519421" lon="7.912098">
        <ele>398.073570</ele>
        <time>2021-11-15T23:31:22.663Z</time>
      </trkpt>
      <trkpt lat="47.519720" lon="7.911522">
        <ele>397.619529</ele>
        <time>2021-11-15T23:31:28.543Z</time>
      </trkpt>
      <trkpt lat="47.519891" lon="7.911129">
        <ele>397.333365</ele>
        <time>2021-11-15T23:31:32.339Z</time>
      </trkpt>
      <trkpt lat="47.519997" lon="7.910833">
        <ele>397.128285</ele>
        <time>2021-11-15T23:31:34.984Z</time>
      </trkpt>
      <trkpt lat="47.520493" lon="7.908683">
        <ele>396.347507</ele>
        <time>2021-11-15T23:31:55.239Z</time>
      </trkpt>
      <trkpt lat="47.520738" lon="7.907839">
        <ele>396.313802</ele>
        <time>2021-11-15T23:32:05.745Z</time>
      </trkpt>
      <trkpt lat="47.520733" lon="7.907655">
        <ele>396.307046</ele>
        <time>2021-11-15T23:32:07.355Z</time>
      </trkpt>
      <trkpt lat="47.520551" lon="7.907422">
        <ele>396.293975</ele>
        <time>2021-11-15T23:32:11.405Z</time>
      </trkpt>
      <trkpt lat="47.520506" lon="7.907236">
        <ele>396.252428</ele>
        <time>2021-11-15T23:32:13.085Z</time>
      </trkpt>
      <trkpt lat="47.520515" lon="7.907103">
        <ele>396.161399</ele>
        <time>2021-11-15T23:32:14.847Z</time>
      </trkpt>
      <trkpt lat="47.520528" lon="7.906930">
        <ele>396.042854</ele>
        <time>2021-11-15T23:32:16.538Z</time>
      </trkpt>
      <trkpt lat="47.520566" lon="7.906668">
        <ele>395.860358</ele>
        <time>2021-11-15T23:32:18.815Z</time>
      </trkpt>
      <trkpt lat="47.520678" lon="7.906050">
        <ele>395.424595</ele>
        <time>2021-11-15T23:32:24.710Z</time>
      </trkpt>
      <trkpt lat="47.520989" lon="7.905130">
        <ele>394.723945</ele>
        <time>2021-11-15T23:32:33.053Z</time>
      </trkpt>
      <trkpt lat="47.521297" lon="7.904312">
        <ele>393.159672</ele>
        <time>2021-11-15T23:32:39.793Z</time>
      </trkpt>
      <trkpt lat="47.521792" lon="7.903347">
        <ele>390.367529</ele>
        <time>2021-11-15T23:32:47.915Z</time>
      </trkpt>
      <trkpt lat="47.522013" lon="7.902637">
        <ele>388.566221</ele>
        <time>2021-11-15T23:32:53.092Z</time>
      </trkpt>
      <trkpt lat="47.522038" lon="7.902562">
        <ele>388.373510</ele>
        <time>2021-11-15T23:32:53.613Z</time>
      </trkpt>
      <trkpt lat="47.522065" lon="7.902526">
        <ele>388.237049</ele>
        <time>2021-11-15T23:32:53.943Z</time>
      </trkpt>
      <trkpt lat="47.522132" lon="7.902476">
        <ele>387.944924</ele>
        <time>2021-11-15T23:32:54.686Z</time>
      </trkpt>
      <trkpt lat="47.522260" lon="7.902356">
        <ele>387.355063</ele>
        <time>2021-11-15T23:32:56.177Z</time>
      </trkpt>
      <trkpt lat="47.522554" lon="7.901999">
        <ele>385.874698</ele>
        <time>2021-11-15T23:32:59.829Z</time>
      </trkpt>
      <trkpt lat="47.522688" lon="7.901843">
        <ele>385.211028</ele>
        <time>2021-11-15T23:33:01.419Z</time>
      </trkpt>
      <trkpt lat="47.523036" lon="7.901580">
        <ele>383.689804</ele>
        <time>2021-11-15T23:33:05.204Z</time>
      </trkpt>
      <trkpt lat="47.523340" lon="7.901197">
        <ele>382.135738</ele>
        <time>2021-11-15T23:33:09.164Z</time>
      </trkpt>
      <trkpt lat="47.523433" lon="7.901043">
        <ele>381.592532</ele>
        <time>2021-11-15T23:33:10.554Z</time>
      </trkpt>
      <trkpt lat="47.523567" lon="7.900820">
        <ele>381.191247</ele>
        <time>2021-11-15T23:33:12.654Z</time>
      </trkpt>
      <trkpt lat="47.523620" lon="7.900698">
        <ele>381.087309</ele>
        <time>2021-11-15T23:33:13.755Z</time>
      </trkpt>
      <trkpt lat="47.523648" lon="7.900606">
        <ele>381.015007</ele>
        <time>2021-11-15T23:33:14.440Z</time>
      </trkpt>
      <trkpt lat="47.523739" lon="7.900557">
        <ele>380.912270</ele>
        <time>2021-11-15T23:33:15.496Z</time>
      </trkpt>
      <trkpt lat="47.523878" lon="7.900445">
        <ele>380.744370</ele>
        <time>2021-11-15T23:33:17.462Z</time>
      </trkpt>
      <trkpt lat="47.523957" lon="7.900371">
        <ele>380.645189</ele>
        <time>2021-11-15T23:33:18.494Z</time>
      </trkpt>
      <trkpt lat="47.523989" lon="7.900340">
        <ele>380.604617</ele>
        <time>2021-11-15T23:33:18.959Z</time>
      </trkpt>
      <trkpt lat="47.523945" lon="7.900256">
        <ele>380.528448</ele>
        <time>2021-11-15T23:33:20.037Z</time>
      </trkpt>
      <trkpt lat="47.523890" lon="7.900131">
        <ele>380.421553</ele>
        <time>2021-11-15T23:33:21.452Z</time>
      </trkpt>
      <trkpt lat="47.523861" lon="7.900049">
        <ele>380.355232</ele>
        <time>2021-11-15T23:33:22.348Z</time>
      </trkpt>
      <trkpt lat="47.523896" lon="7.900001">
        <ele>380.304617</ele>
        <time>2021-11-15T23:33:22.905Z</time>
      </trkpt>
      <trkpt lat="47.524309" lon="7.899115">
        <ele>379.533258</ele>
        <time>2021-11-15T23:33:32.724Z</time>
      </trkpt>
      <trkpt lat="47.524360" lon="7.898951">
        <ele>379.425814</ele>
        <time>2021-11-15T23:33:34.423Z</time>
      </trkpt>
      <trkpt lat="47.524617" lon="7.898216">
        <ele>379.406943</ele>
        <time>2021-11-15T23:33:43.668Z</time>
      </trkpt>
      <trkpt lat="47.524834" lon="7.897636">
        <ele>379.391826</ele>
        <time>2021-11-15T23:33:50.846Z</time>
      </trkpt>
      <trkpt lat="47.525149" lon="7.897036">
        <ele>379.374499</ele>
        <time>2021-11-15T23:33:58.861Z</time>
      </trkpt>
      <trkpt lat="47.525220" lon="7.896902">
        <ele>379.370615</ele>
        <time>2021-11-15T23:34:00.569Z</time>
      </trkpt>
      <trkpt lat="47.525518" lon="7.896336">
        <ele>378.671583</ele>
        <time>2021-11-15T23:34:07.067Z</time>
      </trkpt>
      <trkpt lat="47.525590" lon="7.896117">
        <ele>378.337938</ele>
        <time>2021-11-15T23:34:08.705Z</time>
      </trkpt>
      <trkpt lat="47.525622" lon="7.895944">
        <ele>378.092238</ele>
        <time>2021-11-15T23:34:10.843Z</time>
      </trkpt>
      <trkpt lat="47.525631" lon="7.895583">
        <ele>377.597415</ele>
        <time>2021-11-15T23:34:13.230Z</time>
      </trkpt>
      <trkpt lat="47.525631" lon="7.895442">
        <ele>377.404278</ele>
        <time>2021-11-15T23:34:14.979Z</time>
      </trkpt>
      <trkpt lat="47.525603" lon="7.895265">
        <ele>377.155264</ele>
        <time>2021-11-15T23:34:16.323Z</time>
      </trkpt>
      <trkpt lat="47.525725" lon="7.895110">
        <ele>376.829194</ele>
        <time>2021-11-15T23:34:17.846Z</time>
      </trkpt>
      <trkpt lat="47.526257" lon="7.894278">
        <ele>375.112627</ele>
        <time>2021-11-15T23:34:26.039Z</time>
      </trkpt>
      <trkpt lat="47.526335" lon="7.893960">
        <ele>374.500264</ele>
        <time>2021-11-15T23:34:28.372Z</time>
      </trkpt>
      <trkpt lat="47.526401" lon="7.893964">
        <ele>374.323209</ele>
        <time>2021-11-15T23:34:29.008Z</time>
      </trkpt>
      <trkpt lat="47.526451" lon="7.893983">
        <ele>374.184846</ele>
        <time>2021-11-15T23:34:29.740Z</time>
      </trkpt>
      <trkpt lat="47.526504" lon="7.894030">
        <ele>374.019262</ele>
        <time>2021-11-15T23:34:30.410Z</time>
      </trkpt>
      <trkpt lat="47.526709" lon="7.893617">
        <ele>373.091521</ele>
        <time>2021-11-15T23:34:33.836Z</time>
      </trkpt>
      <trkpt lat="47.527011" lon="7.893061">
        <ele>371.800026</ele>
        <time>2021-11-15T23:34:38.840Z</time>
      </trkpt>
      <trkpt lat="47.527498" lon="7.892650">
        <ele>370.621762</ele>
        <time>2021-11-15T23:34:44.914Z</time>
      </trkpt>
      <trkpt lat="47.528003" lon="7.892732">
        <ele>369.997551</ele>
        <time>2021-11-15T23:34:51.164Z</time>
      </trkpt>
      <trkpt lat="47.528331" lon="7.892682">
        <ele>369.592408</ele>
        <time>2021-11-15T23:34:55.432Z</time>
      </trkpt>
      <trkpt lat="47.529235" lon="7.892158">
        <ele>368.453457</ele>
        <time>2021-11-15T23:35:07.123Z</time>
      </trkpt>
      <trkpt lat="47.529695" lon="7.891638">
        <ele>367.876027</ele>
        <time>2021-11-15T23:35:14.178Z</time>
      </trkpt>
      <trkpt lat="47.529714" lon="7.891609">
        <ele>367.848803</ele>
        <time>2021-11-15T23:35:14.441Z</time>
      </trkpt>
      <trkpt lat="47.529972" lon="7.891210">
        <ele>367.476592</ele>
        <time>2021-11-15T23:35:18.868Z</time>
      </trkpt>
      <trkpt lat="47.530095" lon="7.891027">
        <ele>367.302624</ele>
        <time>2021-11-15T23:35:20.992Z</time>
      </trkpt>
      <trkpt lat="47.530322" lon="7.890690">
        <ele>366.981912</ele>
        <time>2021-11-15T23:35:25.009Z</time>
      </trkpt>
      <trkpt lat="47.530606" lon="7.890373">
        <ele>366.991528</ele>
        <time>2021-11-15T23:35:29.717Z</time>
      </trkpt>
      <trkpt lat="47.531076" lon="7.890029">
        <ele>367.189655</ele>
        <time>2021-11-15T23:35:37.425Z</time>
      </trkpt>
      <trkpt lat="47.531265" lon="7.889937">
        <ele>367.264841</ele>
        <time>2021-11-15T23:35:40.487Z</time>
      </trkpt>
      <trkpt lat="47.531560" lon="7.889776">
        <ele>367.383655</ele>
        <time>2021-11-15T23:35:46.158Z</time>
      </trkpt>
      <trkpt lat="47.531843" lon="7.889349">
        <ele>367.536330</ele>
        <time>2021-11-15T23:35:53.745Z</time>
      </trkpt>
      <trkpt lat="47.532011" lon="7.888896">
        <ele>368.010625</ele>
        <time>2021-11-15T23:36:00.942Z</time>
      </trkpt>
      <trkpt lat="47.532288" lon="7.887728">
        <ele>369.440906</ele>
        <time>2021-11-15T23:36:19.821Z</time>
      </trkpt>
      <trkpt lat="47.532505" lon="7.887120">
        <ele>370.235466</ele>
        <time>2021-11-15T23:36:30.107Z</time>
      </trkpt>
      <trkpt lat="47.532650" lon="7.885569">
        <ele>371.797068</ele>
        <time>2021-11-15T23:36:52.869Z</time>
      </trkpt>
      <trkpt lat="47.532658" lon="7.884989">
        <ele>372.348471</ele>
        <time>2021-11-15T23:37:01.056Z</time>
      </trkpt>
      <trkpt lat="47.532670" lon="7.884773">
        <ele>372.554472</ele>
        <time>2021-11-15T23:37:04.359Z</time>
      </trkpt>
      <trkpt lat="47.532699" lon="7.884224">
        <ele>373.077888</ele>
        <time>2021-11-15T23:37:11.475Z</time>
      </trkpt>
      <trkpt lat="47.532713" lon="7.884122">
        <ele>373.176822</ele>
        <time>2021-11-15T23:37:12.638Z</time>
      </trkpt>
      <trkpt lat="47.532859" lon="7.883508">
        <ele>373.026243</ele>
        <time>2021-11-15T23:37:20.250Z</time>
      </trkpt>
      <trkpt lat="47.533014" lon="7.882949">
        <ele>372.881512</ele>
        <time>2021-11-15T23:37:26.469Z</time>
      </trkpt>
      <trkpt lat="47.533374" lon="7.881639">
        <ele>372.540847</ele>
        <time>2021-11-15T23:37:38.181Z</time>
      </trkpt>
      <trkpt lat="47.533606" lon="7.880961">
        <ele>371.079296</ele>
        <time>2021-11-15T23:37:43.976Z</time>
      </trkpt>
      <trkpt lat="47.533892" lon="7.880353">
        <ele>369.654456</ele>
        <time>2021-11-15T23:37:49.293Z</time>
      </trkpt>
      <trkpt lat="47.534616" lon="7.879490">
        <ele>366.650591</ele>
        <time>2021-11-15T23:37:58.464Z</time>
      </trkpt>
      <trkpt lat="47.534908" lon="7.878975">
        <ele>364.238774</ele>
        <time>2021-11-15T23:38:02.666Z</time>
      </trkpt>
      <trkpt lat="47.534946" lon="7.878790">
        <ele>363.545296</ele>
        <time>2021-11-15T23:38:03.941Z</time>
      </trkpt>
      <trkpt lat="47.534825" lon="7.878414">
        <ele>362.051525</ele>
        <time>2021-11-15T23:38:06.468Z</time>
      </trkpt>
      <trkpt lat="47.534778" lon="7.878270">
        <ele>361.477926</ele>
        <time>2021-11-15T23:38:07.619Z</time>
      </trkpt>
      <trkpt lat="47.534855" lon="7.878090">
        <ele>360.713734</ele>
        <time>2021-11-15T23:38:08.870Z</time>
      </trkpt>
      <trkpt lat="47.535088" lon="7.877742">
        <ele>358.956090</ele>
        <time>2021-11-15T23:38:11.965Z</time>
      </trkpt>
      <trkpt lat="47.535322" lon="7.877590">
        <ele>357.648899</ele>
        <time>2021-11-15T23:38:14.462Z</time>
      </trkpt>
      <trkpt lat="47.535551" lon="7.877487">
        <ele>356.615364</ele>
        <time>2021-11-15T23:38:16.616Z</time>
      </trkpt>
      <trkpt lat="47.535635" lon="7.877484">
        <ele>356.252502</ele>
        <time>2021-11-15T23:38:17.554Z</time>
      </trkpt>
      <trkpt lat="47.535770" lon="7.877432">
        <ele>355.650110</ele>
        <time>2021-11-15T23:38:18.806Z</time>
      </trkpt>
      <trkpt lat="47.535851" lon="7.877319">
        <ele>355.169585</ele>
        <time>2021-11-15T23:38:19.835Z</time>
      </trkpt>
      <trkpt lat="47.536444" lon="7.876177">
        <ele>350.969098</ele>
        <time>2021-11-15T23:38:29.214Z</time>
      </trkpt>
      <trkpt lat="47.536632" lon="7.875912">
        <ele>350.009544</ele>
        <time>2021-11-15T23:38:31.864Z</time>
      </trkpt>
      <trkpt lat="47.536757" lon="7.875759">
        <ele>349.759608</ele>
        <time>2021-11-15T23:38:33.810Z</time>
      </trkpt>
      <trkpt lat="47.536921" lon="7.875537">
        <ele>349.417174</ele>
        <time>2021-11-15T23:38:36.377Z</time>
      </trkpt>
      <trkpt lat="47.537182" lon="7.875293">
        <ele>348.941464</ele>
        <time>2021-11-15T23:38:40.087Z</time>
      </trkpt>
      <trkpt lat="47.537261" lon="7.875237">
        <ele>348.806474</ele>
        <time>2021-11-15T23:38:41.048Z</time>
      </trkpt>
      <trkpt lat="47.537716" lon="7.874966">
        <ele>348.050598</ele>
        <time>2021-11-15T23:38:46.937Z</time>
      </trkpt>
      <trkpt lat="47.538278" lon="7.874319">
        <ele>347.061929</ele>
        <time>2021-11-15T23:38:55.412Z</time>
      </trkpt>
      <trkpt lat="47.539222" lon="7.873416">
        <ele>345.833071</ele>
        <time>2021-11-15T23:39:09.858Z</time>
      </trkpt>
      <trkpt lat="47.539678" lon="7.872430">
        <ele>345.359787</ele>
        <time>2021-11-15T23:39:18.940Z</time>
      </trkpt>
      <trkpt lat="47.539841" lon="7.872151">
        <ele>345.359787</ele>
        <time>2021-11-15T23:39:21.712Z</time>
      </trkpt>
      <trkpt lat="47.539930" lon="7.872041">
        <ele>345.359787</ele>
        <time>2021-11-15T23:39:22.905Z</time>
      </trkpt>
      <trkpt lat="47.540034" lon="7.871970">
        <ele>345.359787</ele>
        <time>2021-11-15T23:39:24.169Z</time>
      </trkpt>
      <trkpt lat="47.540216" lon="7.871851">
        <ele>345.359787</ele>
        <time>2021-11-15T23:39:26.328Z</time>
      </trkpt>
      <trkpt lat="47.540265" lon="7.871808">
        <ele>345.359787</ele>
        <time>2021-11-15T23:39:26.920Z</time>
      </trkpt>
      <trkpt lat="47.540463" lon="7.871584">
        <ele>345.359787</ele>
        <time>2021-11-15T23:39:29.649Z</time>
      </trkpt>
      <trkpt lat="47.540693" lon="7.871390">
        <ele>345.359787</ele>
        <time>2021-11-15T23:39:32.447Z</time>
      </trkpt>
      <trkpt lat="47.540894" lon="7.871220">
        <ele>345.359787</ele>
        <time>2021-11-15T23:39:34.913Z</time>
      </trkpt>
      <trkpt lat="47.540933" lon="7.871187">
        <ele>345.359787</ele>
        <time>2021-11-15T23:39:35.376Z</time>
      </trkpt>
      <trkpt lat="47.541144" lon="7.871012">
        <ele>345.359787</ele>
        <time>2021-11-15T23:39:38.017Z</time>
      </trkpt>
      <trkpt lat="47.541410" lon="7.870791">
        <ele>345.359787</ele>
        <time>2021-11-15T23:39:41.297Z</time>
      </trkpt>
      <trkpt lat="47.541576" lon="7.870664">
        <ele>345.359787</ele>
        <time>2021-11-15T23:39:43.298Z</time>
      </trkpt>
      <trkpt lat="47.541576" lon="7.870664">
        <ele>345.359787</ele>
        <time>2021-11-15T23:39:43.301Z</time>
      </trkpt>
    </trkseg>
  </trk>
</gpx>